<?xml version="1.0" encoding="UTF-8" standalone="no" ?>
<gpx xmlns="http://www.topografix.com/GPX/1/1" xmlns:xsi="http://www.w3.org/2001/XMLSchema-instance" xsi:schemaLocation="http://www.topografix.com/GPX/1/1 http://www.topografix.com/GPX/1/1/gpx.xsd" version="1.1" creator="VisuGPX - https://www.visugpx.com">
  <metadata>
    <name>9564154-2019 j2 expert</name>
  </metadata>
  <trk>
    <name><![CDATA[9564154-2019 j2 expert]]></name>
    <trkseg>
      <trkpt lat="46.07826" lon="6.72633">
        <ele>706</ele>
        <time>2019-06-11T11:36:00Z</time>
      </trkpt>
      <trkpt lat="46.07863" lon="6.72539">
        <ele>703</ele>
        <time>2019-06-11T11:36:13Z</time>
      </trkpt>
      <trkpt lat="46.07809" lon="6.72494">
        <ele>702</ele>
        <time>2019-06-11T11:36:24Z</time>
      </trkpt>
      <trkpt lat="46.07797" lon="6.72476">
        <ele>701</ele>
        <time>2019-06-11T11:36:28Z</time>
      </trkpt>
      <trkpt lat="46.07791" lon="6.7246">
        <ele>701</ele>
        <time>2019-06-11T11:36:30Z</time>
      </trkpt>
      <trkpt lat="46.07665" lon="6.72013">
        <ele>700</ele>
        <time>2019-06-11T11:37:29Z</time>
      </trkpt>
      <trkpt lat="46.07663" lon="6.71998">
        <ele>700</ele>
        <time>2019-06-11T11:37:31Z</time>
      </trkpt>
      <trkpt lat="46.07664" lon="6.71979">
        <ele>700</ele>
        <time>2019-06-11T11:37:34Z</time>
      </trkpt>
      <trkpt lat="46.07682" lon="6.71945">
        <ele>698</ele>
        <time>2019-06-11T11:37:39Z</time>
      </trkpt>
      <trkpt lat="46.07688" lon="6.71938">
        <ele>698</ele>
        <time>2019-06-11T11:37:40Z</time>
      </trkpt>
      <trkpt lat="46.07693" lon="6.71936">
        <ele>697</ele>
        <time>2019-06-11T11:37:41Z</time>
      </trkpt>
      <trkpt lat="46.07698" lon="6.7193">
        <ele>697</ele>
        <time>2019-06-11T11:37:42Z</time>
      </trkpt>
      <trkpt lat="46.07699" lon="6.71923">
        <ele>697</ele>
        <time>2019-06-11T11:37:43Z</time>
      </trkpt>
      <trkpt lat="46.07698" lon="6.71916">
        <ele>697</ele>
        <time>2019-06-11T11:37:44Z</time>
      </trkpt>
      <trkpt lat="46.07691" lon="6.71907">
        <ele>697</ele>
        <time>2019-06-11T11:37:46Z</time>
      </trkpt>
      <trkpt lat="46.07685" lon="6.71908">
        <ele>697</ele>
        <time>2019-06-11T11:37:47Z</time>
      </trkpt>
      <trkpt lat="46.07672" lon="6.71902">
        <ele>698</ele>
        <time>2019-06-11T11:37:49Z</time>
      </trkpt>
      <trkpt lat="46.07644" lon="6.71882">
        <ele>707</ele>
        <time>2019-06-11T11:37:55Z</time>
      </trkpt>
      <trkpt lat="46.07599" lon="6.71838">
        <ele>726</ele>
        <time>2019-06-11T11:38:04Z</time>
      </trkpt>
      <trkpt lat="46.07591" lon="6.71834">
        <ele>730</ele>
        <time>2019-06-11T11:38:06Z</time>
      </trkpt>
      <trkpt lat="46.07586" lon="6.71828">
        <ele>733</ele>
        <time>2019-06-11T11:38:07Z</time>
      </trkpt>
      <trkpt lat="46.07585" lon="6.71812">
        <ele>736</ele>
        <time>2019-06-11T11:38:09Z</time>
      </trkpt>
      <trkpt lat="46.07607" lon="6.7165">
        <ele>739</ele>
        <time>2019-06-11T11:38:29Z</time>
      </trkpt>
      <trkpt lat="46.0761" lon="6.71613">
        <ele>738</ele>
        <time>2019-06-11T11:38:34Z</time>
      </trkpt>
      <trkpt lat="46.0761" lon="6.7158">
        <ele>739</ele>
        <time>2019-06-11T11:38:38Z</time>
      </trkpt>
      <trkpt lat="46.07606" lon="6.71557">
        <ele>742</ele>
        <time>2019-06-11T11:38:41Z</time>
      </trkpt>
      <trkpt lat="46.07587" lon="6.71508">
        <ele>753</ele>
        <time>2019-06-11T11:38:48Z</time>
      </trkpt>
      <trkpt lat="46.07583" lon="6.71492">
        <ele>754</ele>
        <time>2019-06-11T11:38:50Z</time>
      </trkpt>
      <trkpt lat="46.07583" lon="6.71476">
        <ele>753</ele>
        <time>2019-06-11T11:38:52Z</time>
      </trkpt>
      <trkpt lat="46.07592" lon="6.71415">
        <ele>743</ele>
        <time>2019-06-11T11:39:00Z</time>
      </trkpt>
      <trkpt lat="46.07592" lon="6.71399">
        <ele>743</ele>
        <time>2019-06-11T11:39:02Z</time>
      </trkpt>
      <trkpt lat="46.07588" lon="6.71391">
        <ele>744</ele>
        <time>2019-06-11T11:39:03Z</time>
      </trkpt>
      <trkpt lat="46.07582" lon="6.71387">
        <ele>746</ele>
        <time>2019-06-11T11:39:04Z</time>
      </trkpt>
      <trkpt lat="46.07576" lon="6.71387">
        <ele>748</ele>
        <time>2019-06-11T11:39:05Z</time>
      </trkpt>
      <trkpt lat="46.0757" lon="6.71391">
        <ele>751</ele>
        <time>2019-06-11T11:39:06Z</time>
      </trkpt>
      <trkpt lat="46.07566" lon="6.71399">
        <ele>754</ele>
        <time>2019-06-11T11:39:08Z</time>
      </trkpt>
      <trkpt lat="46.07563" lon="6.71415">
        <ele>757</ele>
        <time>2019-06-11T11:39:10Z</time>
      </trkpt>
      <trkpt lat="46.07564" lon="6.71447">
        <ele>760</ele>
        <time>2019-06-11T11:39:14Z</time>
      </trkpt>
      <trkpt lat="46.07561" lon="6.71461">
        <ele>763</ele>
        <time>2019-06-11T11:39:15Z</time>
      </trkpt>
      <trkpt lat="46.07557" lon="6.71466">
        <ele>766</ele>
        <time>2019-06-11T11:39:16Z</time>
      </trkpt>
      <trkpt lat="46.07548" lon="6.71465">
        <ele>770</ele>
        <time>2019-06-11T11:39:18Z</time>
      </trkpt>
      <trkpt lat="46.07542" lon="6.71456">
        <ele>772</ele>
        <time>2019-06-11T11:39:20Z</time>
      </trkpt>
      <trkpt lat="46.07539" lon="6.71441">
        <ele>772</ele>
        <time>2019-06-11T11:39:21Z</time>
      </trkpt>
      <trkpt lat="46.0754" lon="6.71328">
        <ele>756</ele>
        <time>2019-06-11T11:39:35Z</time>
      </trkpt>
      <trkpt lat="46.07551" lon="6.71094">
        <ele>756</ele>
        <time>2019-06-11T11:40:04Z</time>
      </trkpt>
      <trkpt lat="46.07532" lon="6.71016">
        <ele>760</ele>
        <time>2019-06-11T11:40:15Z</time>
      </trkpt>
      <trkpt lat="46.07516" lon="6.70892">
        <ele>764</ele>
        <time>2019-06-11T11:40:30Z</time>
      </trkpt>
      <trkpt lat="46.07508" lon="6.70765">
        <ele>767</ele>
        <time>2019-06-11T11:40:46Z</time>
      </trkpt>
      <trkpt lat="46.07447" lon="6.70657">
        <ele>777</ele>
        <time>2019-06-11T11:41:03Z</time>
      </trkpt>
      <trkpt lat="46.07443" lon="6.70627">
        <ele>779</ele>
        <time>2019-06-11T11:41:07Z</time>
      </trkpt>
      <trkpt lat="46.07445" lon="6.70606">
        <ele>780</ele>
        <time>2019-06-11T11:41:09Z</time>
      </trkpt>
      <trkpt lat="46.07452" lon="6.70585">
        <ele>780</ele>
        <time>2019-06-11T11:41:12Z</time>
      </trkpt>
      <trkpt lat="46.0747" lon="6.70543">
        <ele>780</ele>
        <time>2019-06-11T11:41:18Z</time>
      </trkpt>
      <trkpt lat="46.07476" lon="6.70514">
        <ele>781</ele>
        <time>2019-06-11T11:41:22Z</time>
      </trkpt>
      <trkpt lat="46.07474" lon="6.70476">
        <ele>782</ele>
        <time>2019-06-11T11:41:27Z</time>
      </trkpt>
      <trkpt lat="46.07465" lon="6.70421">
        <ele>785</ele>
        <time>2019-06-11T11:41:34Z</time>
      </trkpt>
      <trkpt lat="46.07474" lon="6.70418">
        <ele>784</ele>
        <time>2019-06-11T11:41:35Z</time>
      </trkpt>
      <trkpt lat="46.075" lon="6.70421">
        <ele>780</ele>
        <time>2019-06-11T11:41:40Z</time>
      </trkpt>
      <trkpt lat="46.07516" lon="6.70415">
        <ele>779</ele>
        <time>2019-06-11T11:41:43Z</time>
      </trkpt>
      <trkpt lat="46.07529" lon="6.70397">
        <ele>780</ele>
        <time>2019-06-11T11:41:46Z</time>
      </trkpt>
      <trkpt lat="46.07538" lon="6.70375">
        <ele>782</ele>
        <time>2019-06-11T11:41:49Z</time>
      </trkpt>
      <trkpt lat="46.07557" lon="6.70256">
        <ele>782</ele>
        <time>2019-06-11T11:42:04Z</time>
      </trkpt>
      <trkpt lat="46.07572" lon="6.70216">
        <ele>778</ele>
        <time>2019-06-11T11:42:10Z</time>
      </trkpt>
      <trkpt lat="46.07612" lon="6.70158">
        <ele>764</ele>
        <time>2019-06-11T11:42:20Z</time>
      </trkpt>
      <trkpt lat="46.07622" lon="6.70128">
        <ele>759</ele>
        <time>2019-06-11T11:42:24Z</time>
      </trkpt>
      <trkpt lat="46.07626" lon="6.70085">
        <ele>754</ele>
        <time>2019-06-11T11:42:30Z</time>
      </trkpt>
      <trkpt lat="46.07623" lon="6.7006">
        <ele>752</ele>
        <time>2019-06-11T11:42:33Z</time>
      </trkpt>
      <trkpt lat="46.07605" lon="6.70004">
        <ele>752</ele>
        <time>2019-06-11T11:42:40Z</time>
      </trkpt>
      <trkpt lat="46.07597" lon="6.69975">
        <ele>752</ele>
        <time>2019-06-11T11:42:44Z</time>
      </trkpt>
      <trkpt lat="46.07592" lon="6.69936">
        <ele>752</ele>
        <time>2019-06-11T11:42:49Z</time>
      </trkpt>
      <trkpt lat="46.07579" lon="6.69893">
        <ele>755</ele>
        <time>2019-06-11T11:42:55Z</time>
      </trkpt>
      <trkpt lat="46.07566" lon="6.69864">
        <ele>757</ele>
        <time>2019-06-11T11:42:59Z</time>
      </trkpt>
      <trkpt lat="46.07545" lon="6.69785">
        <ele>750</ele>
        <time>2019-06-11T11:43:10Z</time>
      </trkpt>
      <trkpt lat="46.0754" lon="6.69706">
        <ele>739</ele>
        <time>2019-06-11T11:43:19Z</time>
      </trkpt>
      <trkpt lat="46.07539" lon="6.6967">
        <ele>734</ele>
        <time>2019-06-11T11:43:24Z</time>
      </trkpt>
      <trkpt lat="46.07545" lon="6.69619">
        <ele>729</ele>
        <time>2019-06-11T11:43:30Z</time>
      </trkpt>
      <trkpt lat="46.07544" lon="6.69562">
        <ele>727</ele>
        <time>2019-06-11T11:43:37Z</time>
      </trkpt>
      <trkpt lat="46.07548" lon="6.69516">
        <ele>725</ele>
        <time>2019-06-11T11:43:43Z</time>
      </trkpt>
      <trkpt lat="46.07555" lon="6.69504">
        <ele>723</ele>
        <time>2019-06-11T11:43:45Z</time>
      </trkpt>
      <trkpt lat="46.07601" lon="6.69461">
        <ele>711</ele>
        <time>2019-06-11T11:43:55Z</time>
      </trkpt>
      <trkpt lat="46.07611" lon="6.69445">
        <ele>710</ele>
        <time>2019-06-11T11:43:57Z</time>
      </trkpt>
      <trkpt lat="46.07692" lon="6.69264">
        <ele>700</ele>
        <time>2019-06-11T11:44:24Z</time>
      </trkpt>
      <trkpt lat="46.07719" lon="6.69214">
        <ele>700</ele>
        <time>2019-06-11T11:44:32Z</time>
      </trkpt>
      <trkpt lat="46.07762" lon="6.69151">
        <ele>701</ele>
        <time>2019-06-11T11:44:43Z</time>
      </trkpt>
      <trkpt lat="46.07786" lon="6.69111">
        <ele>702</ele>
        <time>2019-06-11T11:44:49Z</time>
      </trkpt>
      <trkpt lat="46.07801" lon="6.69095">
        <ele>702</ele>
        <time>2019-06-11T11:44:53Z</time>
      </trkpt>
      <trkpt lat="46.07831" lon="6.6907">
        <ele>703</ele>
        <time>2019-06-11T11:44:59Z</time>
      </trkpt>
      <trkpt lat="46.07842" lon="6.69037">
        <ele>705</ele>
        <time>2019-06-11T11:45:03Z</time>
      </trkpt>
      <trkpt lat="46.07849" lon="6.68971">
        <ele>710</ele>
        <time>2019-06-11T11:45:11Z</time>
      </trkpt>
      <trkpt lat="46.07863" lon="6.68888">
        <ele>716</ele>
        <time>2019-06-11T11:45:22Z</time>
      </trkpt>
      <trkpt lat="46.07878" lon="6.68832">
        <ele>719</ele>
        <time>2019-06-11T11:45:29Z</time>
      </trkpt>
      <trkpt lat="46.07919" lon="6.68714">
        <ele>714</ele>
        <time>2019-06-11T11:45:46Z</time>
      </trkpt>
      <trkpt lat="46.07945" lon="6.68678">
        <ele>711</ele>
        <time>2019-06-11T11:45:52Z</time>
      </trkpt>
      <trkpt lat="46.0796" lon="6.68648">
        <ele>710</ele>
        <time>2019-06-11T11:45:57Z</time>
      </trkpt>
      <trkpt lat="46.0797" lon="6.68617">
        <ele>708</ele>
        <time>2019-06-11T11:46:01Z</time>
      </trkpt>
      <trkpt lat="46.08102" lon="6.68469">
        <ele>696</ele>
        <time>2019-06-11T11:46:31Z</time>
      </trkpt>
      <trkpt lat="46.08113" lon="6.68422">
        <ele>695</ele>
        <time>2019-06-11T11:46:37Z</time>
      </trkpt>
      <trkpt lat="46.08122" lon="6.68396">
        <ele>694</ele>
        <time>2019-06-11T11:46:40Z</time>
      </trkpt>
      <trkpt lat="46.0814" lon="6.68395">
        <ele>692</ele>
        <time>2019-06-11T11:46:44Z</time>
      </trkpt>
      <trkpt lat="46.08144" lon="6.68372">
        <ele>692</ele>
        <time>2019-06-11T11:46:46Z</time>
      </trkpt>
      <trkpt lat="46.08151" lon="6.68344">
        <ele>691</ele>
        <time>2019-06-11T11:46:50Z</time>
      </trkpt>
      <trkpt lat="46.08163" lon="6.68227">
        <ele>687</ele>
        <time>2019-06-11T11:47:05Z</time>
      </trkpt>
      <trkpt lat="46.08165" lon="6.68185">
        <ele>687</ele>
        <time>2019-06-11T11:47:10Z</time>
      </trkpt>
      <trkpt lat="46.08168" lon="6.68152">
        <ele>687</ele>
        <time>2019-06-11T11:47:14Z</time>
      </trkpt>
      <trkpt lat="46.08191" lon="6.68062">
        <ele>686</ele>
        <time>2019-06-11T11:47:26Z</time>
      </trkpt>
      <trkpt lat="46.08212" lon="6.68008">
        <ele>684</ele>
        <time>2019-06-11T11:47:34Z</time>
      </trkpt>
      <trkpt lat="46.08255" lon="6.67857">
        <ele>685</ele>
        <time>2019-06-11T11:47:54Z</time>
      </trkpt>
      <trkpt lat="46.08297" lon="6.67776">
        <ele>686</ele>
        <time>2019-06-11T11:48:06Z</time>
      </trkpt>
      <trkpt lat="46.08308" lon="6.67751">
        <ele>686</ele>
        <time>2019-06-11T11:48:10Z</time>
      </trkpt>
      <trkpt lat="46.08328" lon="6.6772">
        <ele>686</ele>
        <time>2019-06-11T11:48:15Z</time>
      </trkpt>
      <trkpt lat="46.08351" lon="6.67643">
        <ele>687</ele>
        <time>2019-06-11T11:48:25Z</time>
      </trkpt>
      <trkpt lat="46.08383" lon="6.6757">
        <ele>687</ele>
        <time>2019-06-11T11:48:36Z</time>
      </trkpt>
      <trkpt lat="46.08397" lon="6.67534">
        <ele>687</ele>
        <time>2019-06-11T11:48:41Z</time>
      </trkpt>
      <trkpt lat="46.08407" lon="6.67501">
        <ele>686</ele>
        <time>2019-06-11T11:48:46Z</time>
      </trkpt>
      <trkpt lat="46.08425" lon="6.67434">
        <ele>681</ele>
        <time>2019-06-11T11:48:54Z</time>
      </trkpt>
      <trkpt lat="46.0843" lon="6.67372">
        <ele>678</ele>
        <time>2019-06-11T11:49:02Z</time>
      </trkpt>
      <trkpt lat="46.08435" lon="6.67353">
        <ele>678</ele>
        <time>2019-06-11T11:49:05Z</time>
      </trkpt>
      <trkpt lat="46.08455" lon="6.67311">
        <ele>676</ele>
        <time>2019-06-11T11:49:11Z</time>
      </trkpt>
      <trkpt lat="46.08463" lon="6.67284">
        <ele>676</ele>
        <time>2019-06-11T11:49:15Z</time>
      </trkpt>
      <trkpt lat="46.08474" lon="6.67243">
        <ele>675</ele>
        <time>2019-06-11T11:49:20Z</time>
      </trkpt>
      <trkpt lat="46.08481" lon="6.672">
        <ele>675</ele>
        <time>2019-06-11T11:49:25Z</time>
      </trkpt>
      <trkpt lat="46.08487" lon="6.67179">
        <ele>674</ele>
        <time>2019-06-11T11:49:28Z</time>
      </trkpt>
      <trkpt lat="46.08493" lon="6.67165">
        <ele>672</ele>
        <time>2019-06-11T11:49:30Z</time>
      </trkpt>
      <trkpt lat="46.08538" lon="6.67092">
        <ele>672</ele>
        <time>2019-06-11T11:49:42Z</time>
      </trkpt>
      <trkpt lat="46.08548" lon="6.67065">
        <ele>671</ele>
        <time>2019-06-11T11:49:46Z</time>
      </trkpt>
      <trkpt lat="46.08567" lon="6.67023">
        <ele>670</ele>
        <time>2019-06-11T11:49:52Z</time>
      </trkpt>
      <trkpt lat="46.08642" lon="6.66889">
        <ele>669</ele>
        <time>2019-06-11T11:50:14Z</time>
      </trkpt>
      <trkpt lat="46.08662" lon="6.66833">
        <ele>667</ele>
        <time>2019-06-11T11:50:21Z</time>
      </trkpt>
      <trkpt lat="46.08665" lon="6.66834">
        <ele>666</ele>
        <time>2019-06-11T11:50:22Z</time>
      </trkpt>
      <trkpt lat="46.08672" lon="6.66828">
        <ele>666</ele>
        <time>2019-06-11T11:50:23Z</time>
      </trkpt>
      <trkpt lat="46.08673" lon="6.66825">
        <ele>667</ele>
        <time>2019-06-11T11:50:24Z</time>
      </trkpt>
      <trkpt lat="46.08674" lon="6.66821">
        <ele>667</ele>
        <time>2019-06-11T11:50:24Z</time>
      </trkpt>
      <trkpt lat="46.08671" lon="6.6681">
        <ele>667</ele>
        <time>2019-06-11T11:50:26Z</time>
      </trkpt>
      <trkpt lat="46.08668" lon="6.66808">
        <ele>667</ele>
        <time>2019-06-11T11:50:26Z</time>
      </trkpt>
      <trkpt lat="46.08712" lon="6.66623">
        <ele>672</ele>
        <time>2019-06-11T11:50:50Z</time>
      </trkpt>
      <trkpt lat="46.08743" lon="6.66508">
        <ele>664</ele>
        <time>2019-06-11T11:51:06Z</time>
      </trkpt>
      <trkpt lat="46.08942" lon="6.66034">
        <ele>655</ele>
        <time>2019-06-11T11:52:14Z</time>
      </trkpt>
      <trkpt lat="46.0898" lon="6.65941">
        <ele>655</ele>
        <time>2019-06-11T11:52:27Z</time>
      </trkpt>
      <trkpt lat="46.09035" lon="6.65707">
        <ele>655</ele>
        <time>2019-06-11T11:52:58Z</time>
      </trkpt>
      <trkpt lat="46.0905" lon="6.65668">
        <ele>654</ele>
        <time>2019-06-11T11:53:03Z</time>
      </trkpt>
      <trkpt lat="46.09098" lon="6.6557">
        <ele>652</ele>
        <time>2019-06-11T11:53:18Z</time>
      </trkpt>
      <trkpt lat="46.09106" lon="6.6555">
        <ele>652</ele>
        <time>2019-06-11T11:53:21Z</time>
      </trkpt>
      <trkpt lat="46.09114" lon="6.65521">
        <ele>651</ele>
        <time>2019-06-11T11:53:25Z</time>
      </trkpt>
      <trkpt lat="46.09231" lon="6.64951">
        <ele>652</ele>
        <time>2019-06-11T11:54:38Z</time>
      </trkpt>
      <trkpt lat="46.09272" lon="6.64767">
        <ele>648</ele>
        <time>2019-06-11T11:55:02Z</time>
      </trkpt>
      <trkpt lat="46.09282" lon="6.64717">
        <ele>647</ele>
        <time>2019-06-11T11:55:08Z</time>
      </trkpt>
      <trkpt lat="46.09301" lon="6.64645">
        <ele>647</ele>
        <time>2019-06-11T11:55:18Z</time>
      </trkpt>
      <trkpt lat="46.09307" lon="6.64613">
        <ele>648</ele>
        <time>2019-06-11T11:55:22Z</time>
      </trkpt>
      <trkpt lat="46.09309" lon="6.64579">
        <ele>648</ele>
        <time>2019-06-11T11:55:26Z</time>
      </trkpt>
      <trkpt lat="46.09324" lon="6.64057">
        <ele>644</ele>
        <time>2019-06-11T11:56:31Z</time>
      </trkpt>
      <trkpt lat="46.09319" lon="6.63925">
        <ele>649</ele>
        <time>2019-06-11T11:56:47Z</time>
      </trkpt>
      <trkpt lat="46.0932" lon="6.63893">
        <ele>649</ele>
        <time>2019-06-11T11:56:51Z</time>
      </trkpt>
      <trkpt lat="46.09323" lon="6.63867">
        <ele>648</ele>
        <time>2019-06-11T11:56:54Z</time>
      </trkpt>
      <trkpt lat="46.09331" lon="6.6383">
        <ele>647</ele>
        <time>2019-06-11T11:56:59Z</time>
      </trkpt>
      <trkpt lat="46.09369" lon="6.63696">
        <ele>653</ele>
        <time>2019-06-11T11:57:17Z</time>
      </trkpt>
      <trkpt lat="46.09383" lon="6.63631">
        <ele>653</ele>
        <time>2019-06-11T11:57:25Z</time>
      </trkpt>
      <trkpt lat="46.09408" lon="6.63446">
        <ele>648</ele>
        <time>2019-06-11T11:57:49Z</time>
      </trkpt>
      <trkpt lat="46.09429" lon="6.63372">
        <ele>646</ele>
        <time>2019-06-11T11:57:58Z</time>
      </trkpt>
      <trkpt lat="46.09482" lon="6.63242">
        <ele>644</ele>
        <time>2019-06-11T11:58:17Z</time>
      </trkpt>
      <trkpt lat="46.09506" lon="6.63165">
        <ele>641</ele>
        <time>2019-06-11T11:58:27Z</time>
      </trkpt>
      <trkpt lat="46.09514" lon="6.63128">
        <ele>640</ele>
        <time>2019-06-11T11:58:32Z</time>
      </trkpt>
      <trkpt lat="46.09519" lon="6.63091">
        <ele>639</ele>
        <time>2019-06-11T11:58:37Z</time>
      </trkpt>
      <trkpt lat="46.0953" lon="6.62996">
        <ele>640</ele>
        <time>2019-06-11T11:58:49Z</time>
      </trkpt>
      <trkpt lat="46.09565" lon="6.62704">
        <ele>641</ele>
        <time>2019-06-11T11:59:25Z</time>
      </trkpt>
      <trkpt lat="46.09566" lon="6.62633">
        <ele>639</ele>
        <time>2019-06-11T11:59:34Z</time>
      </trkpt>
      <trkpt lat="46.09562" lon="6.6219">
        <ele>645</ele>
        <time>2019-06-11T12:00:29Z</time>
      </trkpt>
      <trkpt lat="46.09569" lon="6.62105">
        <ele>643</ele>
        <time>2019-06-11T12:00:39Z</time>
      </trkpt>
      <trkpt lat="46.09588" lon="6.61973">
        <ele>643</ele>
        <time>2019-06-11T12:00:56Z</time>
      </trkpt>
      <trkpt lat="46.09593" lon="6.61927">
        <ele>643</ele>
        <time>2019-06-11T12:01:02Z</time>
      </trkpt>
      <trkpt lat="46.09598" lon="6.61847">
        <ele>645</ele>
        <time>2019-06-11T12:01:12Z</time>
      </trkpt>
      <trkpt lat="46.09577" lon="6.61764">
        <ele>651</ele>
        <time>2019-06-11T12:01:23Z</time>
      </trkpt>
      <trkpt lat="46.09577" lon="6.61706">
        <ele>657</ele>
        <time>2019-06-11T12:01:30Z</time>
      </trkpt>
      <trkpt lat="46.09629" lon="6.61556">
        <ele>653</ele>
        <time>2019-06-11T12:01:50Z</time>
      </trkpt>
      <trkpt lat="46.0967" lon="6.61383">
        <ele>654</ele>
        <time>2019-06-11T12:02:13Z</time>
      </trkpt>
      <trkpt lat="46.09678" lon="6.61308">
        <ele>656</ele>
        <time>2019-06-11T12:02:22Z</time>
      </trkpt>
      <trkpt lat="46.09665" lon="6.61213">
        <ele>658</ele>
        <time>2019-06-11T12:02:34Z</time>
      </trkpt>
      <trkpt lat="46.09592" lon="6.6107">
        <ele>666</ele>
        <time>2019-06-11T12:02:56Z</time>
      </trkpt>
      <trkpt lat="46.0957" lon="6.61006">
        <ele>667</ele>
        <time>2019-06-11T12:03:05Z</time>
      </trkpt>
      <trkpt lat="46.09563" lon="6.60963">
        <ele>667</ele>
        <time>2019-06-11T12:03:10Z</time>
      </trkpt>
      <trkpt lat="46.09556" lon="6.60833">
        <ele>669</ele>
        <time>2019-06-11T12:03:26Z</time>
      </trkpt>
      <trkpt lat="46.09557" lon="6.60782">
        <ele>670</ele>
        <time>2019-06-11T12:03:33Z</time>
      </trkpt>
      <trkpt lat="46.09601" lon="6.60691">
        <ele>664</ele>
        <time>2019-06-11T12:03:46Z</time>
      </trkpt>
      <trkpt lat="46.09612" lon="6.60649">
        <ele>663</ele>
        <time>2019-06-11T12:03:52Z</time>
      </trkpt>
      <trkpt lat="46.0962" lon="6.60595">
        <ele>662</ele>
        <time>2019-06-11T12:03:59Z</time>
      </trkpt>
      <trkpt lat="46.09618" lon="6.60559">
        <ele>663</ele>
        <time>2019-06-11T12:04:03Z</time>
      </trkpt>
      <trkpt lat="46.09603" lon="6.60505">
        <ele>667</ele>
        <time>2019-06-11T12:04:10Z</time>
      </trkpt>
      <trkpt lat="46.09604" lon="6.60467">
        <ele>668</ele>
        <time>2019-06-11T12:04:15Z</time>
      </trkpt>
      <trkpt lat="46.09622" lon="6.60368">
        <ele>668</ele>
        <time>2019-06-11T12:04:28Z</time>
      </trkpt>
      <trkpt lat="46.09616" lon="6.6025">
        <ele>668</ele>
        <time>2019-06-11T12:04:42Z</time>
      </trkpt>
      <trkpt lat="46.09627" lon="6.6008">
        <ele>671</ele>
        <time>2019-06-11T12:05:03Z</time>
      </trkpt>
      <trkpt lat="46.09625" lon="6.60029">
        <ele>671</ele>
        <time>2019-06-11T12:05:10Z</time>
      </trkpt>
      <trkpt lat="46.09613" lon="6.59912">
        <ele>675</ele>
        <time>2019-06-11T12:05:24Z</time>
      </trkpt>
      <trkpt lat="46.09613" lon="6.59897">
        <ele>674</ele>
        <time>2019-06-11T12:05:26Z</time>
      </trkpt>
      <trkpt lat="46.09601" lon="6.59898">
        <ele>678</ele>
        <time>2019-06-11T12:05:28Z</time>
      </trkpt>
      <trkpt lat="46.09595" lon="6.59893">
        <ele>680</ele>
        <time>2019-06-11T12:05:30Z</time>
      </trkpt>
      <trkpt lat="46.09588" lon="6.59882">
        <ele>682</ele>
        <time>2019-06-11T12:05:31Z</time>
      </trkpt>
      <trkpt lat="46.09585" lon="6.59863">
        <ele>681</ele>
        <time>2019-06-11T12:05:34Z</time>
      </trkpt>
      <trkpt lat="46.09587" lon="6.59782">
        <ele>675</ele>
        <time>2019-06-11T12:05:44Z</time>
      </trkpt>
      <trkpt lat="46.09587" lon="6.5973">
        <ele>673</ele>
        <time>2019-06-11T12:05:50Z</time>
      </trkpt>
      <trkpt lat="46.09582" lon="6.59695">
        <ele>675</ele>
        <time>2019-06-11T12:05:55Z</time>
      </trkpt>
      <trkpt lat="46.09553" lon="6.59591">
        <ele>686</ele>
        <time>2019-06-11T12:06:08Z</time>
      </trkpt>
      <trkpt lat="46.09509" lon="6.59378">
        <ele>691</ele>
        <time>2019-06-11T12:06:36Z</time>
      </trkpt>
      <trkpt lat="46.09484" lon="6.59291">
        <ele>691</ele>
        <time>2019-06-11T12:06:47Z</time>
      </trkpt>
      <trkpt lat="46.09459" lon="6.59225">
        <ele>694</ele>
        <time>2019-06-11T12:06:57Z</time>
      </trkpt>
      <trkpt lat="46.09425" lon="6.59149">
        <ele>698</ele>
        <time>2019-06-11T12:07:08Z</time>
      </trkpt>
      <trkpt lat="46.0939" lon="6.59087">
        <ele>699</ele>
        <time>2019-06-11T12:07:18Z</time>
      </trkpt>
      <trkpt lat="46.09317" lon="6.5902">
        <ele>709</ele>
        <time>2019-06-11T12:07:33Z</time>
      </trkpt>
      <trkpt lat="46.09285" lon="6.58986">
        <ele>714</ele>
        <time>2019-06-11T12:07:40Z</time>
      </trkpt>
      <trkpt lat="46.09261" lon="6.58937">
        <ele>720</ele>
        <time>2019-06-11T12:07:48Z</time>
      </trkpt>
      <trkpt lat="46.09245" lon="6.5889">
        <ele>726</ele>
        <time>2019-06-11T12:07:54Z</time>
      </trkpt>
      <trkpt lat="46.09239" lon="6.58835">
        <ele>729</ele>
        <time>2019-06-11T12:08:01Z</time>
      </trkpt>
      <trkpt lat="46.09238" lon="6.58782">
        <ele>733</ele>
        <time>2019-06-11T12:08:08Z</time>
      </trkpt>
      <trkpt lat="46.09255" lon="6.58668">
        <ele>734</ele>
        <time>2019-06-11T12:08:22Z</time>
      </trkpt>
      <trkpt lat="46.0925" lon="6.58605">
        <ele>734</ele>
        <time>2019-06-11T12:08:30Z</time>
      </trkpt>
      <trkpt lat="46.09244" lon="6.58582">
        <ele>734</ele>
        <time>2019-06-11T12:08:33Z</time>
      </trkpt>
      <trkpt lat="46.0923" lon="6.58551">
        <ele>734</ele>
        <time>2019-06-11T12:08:37Z</time>
      </trkpt>
      <trkpt lat="46.09218" lon="6.58537">
        <ele>735</ele>
        <time>2019-06-11T12:08:40Z</time>
      </trkpt>
      <trkpt lat="46.09197" lon="6.58523">
        <ele>737</ele>
        <time>2019-06-11T12:08:44Z</time>
      </trkpt>
      <trkpt lat="46.09174" lon="6.58515">
        <ele>739</ele>
        <time>2019-06-11T12:08:48Z</time>
      </trkpt>
      <trkpt lat="46.09126" lon="6.58515">
        <ele>738</ele>
        <time>2019-06-11T12:08:57Z</time>
      </trkpt>
      <trkpt lat="46.09094" lon="6.58511">
        <ele>736</ele>
        <time>2019-06-11T12:09:03Z</time>
      </trkpt>
      <trkpt lat="46.08964" lon="6.58428">
        <ele>736</ele>
        <time>2019-06-11T12:09:28Z</time>
      </trkpt>
      <trkpt lat="46.08883" lon="6.58372">
        <ele>742</ele>
        <time>2019-06-11T12:09:44Z</time>
      </trkpt>
      <trkpt lat="46.08863" lon="6.58353">
        <ele>742</ele>
        <time>2019-06-11T12:09:48Z</time>
      </trkpt>
      <trkpt lat="46.08861" lon="6.58342">
        <ele>741</ele>
        <time>2019-06-11T12:09:50Z</time>
      </trkpt>
      <trkpt lat="46.08857" lon="6.58337">
        <ele>741</ele>
        <time>2019-06-11T12:09:51Z</time>
      </trkpt>
      <trkpt lat="46.08848" lon="6.58337">
        <ele>741</ele>
        <time>2019-06-11T12:09:52Z</time>
      </trkpt>
      <trkpt lat="46.08843" lon="6.58342">
        <ele>742</ele>
        <time>2019-06-11T12:09:53Z</time>
      </trkpt>
      <trkpt lat="46.08823" lon="6.58334">
        <ele>742</ele>
        <time>2019-06-11T12:09:57Z</time>
      </trkpt>
      <trkpt lat="46.08727" lon="6.58271">
        <ele>741</ele>
        <time>2019-06-11T12:10:16Z</time>
      </trkpt>
      <trkpt lat="46.08672" lon="6.58238">
        <ele>738</ele>
        <time>2019-06-11T12:10:26Z</time>
      </trkpt>
      <trkpt lat="46.08655" lon="6.58222">
        <ele>737</ele>
        <time>2019-06-11T12:10:30Z</time>
      </trkpt>
      <trkpt lat="46.08642" lon="6.582">
        <ele>735</ele>
        <time>2019-06-11T12:10:33Z</time>
      </trkpt>
      <trkpt lat="46.08624" lon="6.58113">
        <ele>731</ele>
        <time>2019-06-11T12:10:45Z</time>
      </trkpt>
      <trkpt lat="46.0862" lon="6.58108">
        <ele>731</ele>
        <time>2019-06-11T12:10:46Z</time>
      </trkpt>
      <trkpt lat="46.08617" lon="6.58098">
        <ele>731</ele>
        <time>2019-06-11T12:10:47Z</time>
      </trkpt>
      <trkpt lat="46.08612" lon="6.58055">
        <ele>729</ele>
        <time>2019-06-11T12:10:52Z</time>
      </trkpt>
      <trkpt lat="46.08602" lon="6.58021">
        <ele>726</ele>
        <time>2019-06-11T12:10:57Z</time>
      </trkpt>
      <trkpt lat="46.08591" lon="6.57999">
        <ele>723</ele>
        <time>2019-06-11T12:11:00Z</time>
      </trkpt>
      <trkpt lat="46.08577" lon="6.57978">
        <ele>720</ele>
        <time>2019-06-11T12:11:04Z</time>
      </trkpt>
      <trkpt lat="46.08554" lon="6.57961">
        <ele>715</ele>
        <time>2019-06-11T12:11:08Z</time>
      </trkpt>
      <trkpt lat="46.08542" lon="6.57948">
        <ele>712</ele>
        <time>2019-06-11T12:11:11Z</time>
      </trkpt>
      <trkpt lat="46.08523" lon="6.57935">
        <ele>708</ele>
        <time>2019-06-11T12:11:15Z</time>
      </trkpt>
      <trkpt lat="46.08507" lon="6.5792">
        <ele>704</ele>
        <time>2019-06-11T12:11:18Z</time>
      </trkpt>
      <trkpt lat="46.08485" lon="6.57894">
        <ele>697</ele>
        <time>2019-06-11T12:11:23Z</time>
      </trkpt>
      <trkpt lat="46.0847" lon="6.57859">
        <ele>692</ele>
        <time>2019-06-11T12:11:28Z</time>
      </trkpt>
      <trkpt lat="46.08444" lon="6.57785">
        <ele>686</ele>
        <time>2019-06-11T12:11:39Z</time>
      </trkpt>
      <trkpt lat="46.08442" lon="6.57766">
        <ele>686</ele>
        <time>2019-06-11T12:11:41Z</time>
      </trkpt>
      <trkpt lat="46.08442" lon="6.57739">
        <ele>687</ele>
        <time>2019-06-11T12:11:44Z</time>
      </trkpt>
      <trkpt lat="46.0844" lon="6.5772">
        <ele>686</ele>
        <time>2019-06-11T12:11:47Z</time>
      </trkpt>
      <trkpt lat="46.08437" lon="6.57713">
        <ele>686</ele>
        <time>2019-06-11T12:11:48Z</time>
      </trkpt>
      <trkpt lat="46.08432" lon="6.57712">
        <ele>684</ele>
        <time>2019-06-11T12:11:49Z</time>
      </trkpt>
      <trkpt lat="46.08428" lon="6.57718">
        <ele>683</ele>
        <time>2019-06-11T12:11:50Z</time>
      </trkpt>
      <trkpt lat="46.08418" lon="6.57763">
        <ele>680</ele>
        <time>2019-06-11T12:11:55Z</time>
      </trkpt>
      <trkpt lat="46.08409" lon="6.5779">
        <ele>675</ele>
        <time>2019-06-11T12:11:59Z</time>
      </trkpt>
      <trkpt lat="46.08405" lon="6.57794">
        <ele>673</ele>
        <time>2019-06-11T12:12:00Z</time>
      </trkpt>
      <trkpt lat="46.08401" lon="6.57791">
        <ele>672</ele>
        <time>2019-06-11T12:12:01Z</time>
      </trkpt>
      <trkpt lat="46.08402" lon="6.57759">
        <ele>674</ele>
        <time>2019-06-11T12:12:05Z</time>
      </trkpt>
      <trkpt lat="46.08396" lon="6.57731">
        <ele>672</ele>
        <time>2019-06-11T12:12:08Z</time>
      </trkpt>
      <trkpt lat="46.08384" lon="6.57703">
        <ele>669</ele>
        <time>2019-06-11T12:12:12Z</time>
      </trkpt>
      <trkpt lat="46.08366" lon="6.5768">
        <ele>663</ele>
        <time>2019-06-11T12:12:17Z</time>
      </trkpt>
      <trkpt lat="46.08346" lon="6.57649">
        <ele>658</ele>
        <time>2019-06-11T12:12:22Z</time>
      </trkpt>
      <trkpt lat="46.08316" lon="6.57564">
        <ele>652</ele>
        <time>2019-06-11T12:12:34Z</time>
      </trkpt>
      <trkpt lat="46.08315" lon="6.57544">
        <ele>651</ele>
        <time>2019-06-11T12:12:36Z</time>
      </trkpt>
      <trkpt lat="46.08317" lon="6.57523">
        <ele>652</ele>
        <time>2019-06-11T12:12:39Z</time>
      </trkpt>
      <trkpt lat="46.08321" lon="6.57513">
        <ele>655</ele>
        <time>2019-06-11T12:12:40Z</time>
      </trkpt>
      <trkpt lat="46.08318" lon="6.575">
        <ele>653</ele>
        <time>2019-06-11T12:12:42Z</time>
      </trkpt>
      <trkpt lat="46.08315" lon="6.57498">
        <ele>651</ele>
        <time>2019-06-11T12:12:43Z</time>
      </trkpt>
      <trkpt lat="46.08306" lon="6.57543">
        <ele>646</ele>
        <time>2019-06-11T12:12:48Z</time>
      </trkpt>
      <trkpt lat="46.083" lon="6.57607">
        <ele>643</ele>
        <time>2019-06-11T12:12:56Z</time>
      </trkpt>
      <trkpt lat="46.08297" lon="6.57678">
        <ele>640</ele>
        <time>2019-06-11T12:13:05Z</time>
      </trkpt>
      <trkpt lat="46.08299" lon="6.57708">
        <ele>639</ele>
        <time>2019-06-11T12:13:09Z</time>
      </trkpt>
      <trkpt lat="46.08305" lon="6.57753">
        <ele>640</ele>
        <time>2019-06-11T12:13:14Z</time>
      </trkpt>
      <trkpt lat="46.08306" lon="6.57775">
        <ele>639</ele>
        <time>2019-06-11T12:13:17Z</time>
      </trkpt>
      <trkpt lat="46.08301" lon="6.57805">
        <ele>637</ele>
        <time>2019-06-11T12:13:21Z</time>
      </trkpt>
      <trkpt lat="46.08295" lon="6.57821">
        <ele>634</ele>
        <time>2019-06-11T12:13:23Z</time>
      </trkpt>
      <trkpt lat="46.0825" lon="6.57901">
        <ele>630</ele>
        <time>2019-06-11T12:13:36Z</time>
      </trkpt>
      <trkpt lat="46.08234" lon="6.57936">
        <ele>632</ele>
        <time>2019-06-11T12:13:41Z</time>
      </trkpt>
      <trkpt lat="46.08225" lon="6.57963">
        <ele>634</ele>
        <time>2019-06-11T12:13:45Z</time>
      </trkpt>
      <trkpt lat="46.08214" lon="6.58013">
        <ele>637</ele>
        <time>2019-06-11T12:13:51Z</time>
      </trkpt>
      <trkpt lat="46.08207" lon="6.58081">
        <ele>645</ele>
        <time>2019-06-11T12:14:00Z</time>
      </trkpt>
      <trkpt lat="46.08202" lon="6.58114">
        <ele>642</ele>
        <time>2019-06-11T12:14:04Z</time>
      </trkpt>
      <trkpt lat="46.08196" lon="6.58136">
        <ele>639</ele>
        <time>2019-06-11T12:14:07Z</time>
      </trkpt>
      <trkpt lat="46.08188" lon="6.58156">
        <ele>635</ele>
        <time>2019-06-11T12:14:10Z</time>
      </trkpt>
      <trkpt lat="46.08179" lon="6.58174">
        <ele>630</ele>
        <time>2019-06-11T12:14:12Z</time>
      </trkpt>
      <trkpt lat="46.08153" lon="6.58213">
        <ele>621</ele>
        <time>2019-06-11T12:14:19Z</time>
      </trkpt>
      <trkpt lat="46.08115" lon="6.58261">
        <ele>617</ele>
        <time>2019-06-11T12:14:28Z</time>
      </trkpt>
      <trkpt lat="46.08095" lon="6.58277">
        <ele>616</ele>
        <time>2019-06-11T12:14:32Z</time>
      </trkpt>
      <trkpt lat="46.08071" lon="6.58286">
        <ele>615</ele>
        <time>2019-06-11T12:14:37Z</time>
      </trkpt>
      <trkpt lat="46.0806" lon="6.58286">
        <ele>615</ele>
        <time>2019-06-11T12:14:39Z</time>
      </trkpt>
      <trkpt lat="46.08047" lon="6.58284">
        <ele>615</ele>
        <time>2019-06-11T12:14:41Z</time>
      </trkpt>
      <trkpt lat="46.07994" lon="6.58261">
        <ele>612</ele>
        <time>2019-06-11T12:14:51Z</time>
      </trkpt>
      <trkpt lat="46.07978" lon="6.58259">
        <ele>610</ele>
        <time>2019-06-11T12:14:54Z</time>
      </trkpt>
      <trkpt lat="46.07965" lon="6.5826">
        <ele>608</ele>
        <time>2019-06-11T12:14:56Z</time>
      </trkpt>
      <trkpt lat="46.07923" lon="6.58268">
        <ele>605</ele>
        <time>2019-06-11T12:15:03Z</time>
      </trkpt>
      <trkpt lat="46.07867" lon="6.58286">
        <ele>603</ele>
        <time>2019-06-11T12:15:14Z</time>
      </trkpt>
      <trkpt lat="46.07851" lon="6.58298">
        <ele>604</ele>
        <time>2019-06-11T12:15:17Z</time>
      </trkpt>
      <trkpt lat="46.07838" lon="6.58311">
        <ele>604</ele>
        <time>2019-06-11T12:15:20Z</time>
      </trkpt>
      <trkpt lat="46.0782" lon="6.58335">
        <ele>604</ele>
        <time>2019-06-11T12:15:24Z</time>
      </trkpt>
      <trkpt lat="46.07809" lon="6.58359">
        <ele>603</ele>
        <time>2019-06-11T12:15:28Z</time>
      </trkpt>
      <trkpt lat="46.07791" lon="6.58405">
        <ele>603</ele>
        <time>2019-06-11T12:15:34Z</time>
      </trkpt>
      <trkpt lat="46.07786" lon="6.58411">
        <ele>602</ele>
        <time>2019-06-11T12:15:35Z</time>
      </trkpt>
      <trkpt lat="46.0778" lon="6.58414">
        <ele>601</ele>
        <time>2019-06-11T12:15:36Z</time>
      </trkpt>
      <trkpt lat="46.07767" lon="6.58413">
        <ele>598</ele>
        <time>2019-06-11T12:15:39Z</time>
      </trkpt>
      <trkpt lat="46.07759" lon="6.58405">
        <ele>595</ele>
        <time>2019-06-11T12:15:40Z</time>
      </trkpt>
      <trkpt lat="46.07755" lon="6.58394">
        <ele>593</ele>
        <time>2019-06-11T12:15:42Z</time>
      </trkpt>
      <trkpt lat="46.07754" lon="6.58386">
        <ele>592</ele>
        <time>2019-06-11T12:15:43Z</time>
      </trkpt>
      <trkpt lat="46.07755" lon="6.58375">
        <ele>591</ele>
        <time>2019-06-11T12:15:44Z</time>
      </trkpt>
      <trkpt lat="46.07758" lon="6.58364">
        <ele>591</ele>
        <time>2019-06-11T12:15:46Z</time>
      </trkpt>
      <trkpt lat="46.07828" lon="6.58222">
        <ele>591</ele>
        <time>2019-06-11T12:16:07Z</time>
      </trkpt>
      <trkpt lat="46.07849" lon="6.58193">
        <ele>589</ele>
        <time>2019-06-11T12:16:12Z</time>
      </trkpt>
      <trkpt lat="46.07864" lon="6.58177">
        <ele>587</ele>
        <time>2019-06-11T12:16:16Z</time>
      </trkpt>
      <trkpt lat="46.07884" lon="6.58166">
        <ele>586</ele>
        <time>2019-06-11T12:16:20Z</time>
      </trkpt>
      <trkpt lat="46.07928" lon="6.58169">
        <ele>587</ele>
        <time>2019-06-11T12:16:27Z</time>
      </trkpt>
      <trkpt lat="46.0794" lon="6.58164">
        <ele>587</ele>
        <time>2019-06-11T12:16:30Z</time>
      </trkpt>
      <trkpt lat="46.07946" lon="6.58151">
        <ele>586</ele>
        <time>2019-06-11T12:16:32Z</time>
      </trkpt>
      <trkpt lat="46.07947" lon="6.58137">
        <ele>584</ele>
        <time>2019-06-11T12:16:33Z</time>
      </trkpt>
      <trkpt lat="46.07945" lon="6.58124">
        <ele>583</ele>
        <time>2019-06-11T12:16:35Z</time>
      </trkpt>
      <trkpt lat="46.07932" lon="6.58107">
        <ele>580</ele>
        <time>2019-06-11T12:16:38Z</time>
      </trkpt>
      <trkpt lat="46.07915" lon="6.58095">
        <ele>578</ele>
        <time>2019-06-11T12:16:41Z</time>
      </trkpt>
      <trkpt lat="46.07875" lon="6.58083">
        <ele>574</ele>
        <time>2019-06-11T12:16:49Z</time>
      </trkpt>
      <trkpt lat="46.0786" lon="6.58082">
        <ele>573</ele>
        <time>2019-06-11T12:16:51Z</time>
      </trkpt>
      <trkpt lat="46.07844" lon="6.58086">
        <ele>572</ele>
        <time>2019-06-11T12:16:54Z</time>
      </trkpt>
      <trkpt lat="46.07821" lon="6.58097">
        <ele>571</ele>
        <time>2019-06-11T12:16:59Z</time>
      </trkpt>
      <trkpt lat="46.0776" lon="6.58136">
        <ele>564</ele>
        <time>2019-06-11T12:17:10Z</time>
      </trkpt>
      <trkpt lat="46.07684" lon="6.58258">
        <ele>560</ele>
        <time>2019-06-11T12:17:31Z</time>
      </trkpt>
      <trkpt lat="46.07654" lon="6.58295">
        <ele>557</ele>
        <time>2019-06-11T12:17:38Z</time>
      </trkpt>
      <trkpt lat="46.07615" lon="6.58322">
        <ele>553</ele>
        <time>2019-06-11T12:17:45Z</time>
      </trkpt>
      <trkpt lat="46.07605" lon="6.58356">
        <ele>556</ele>
        <time>2019-06-11T12:17:50Z</time>
      </trkpt>
      <trkpt lat="46.07603" lon="6.58379">
        <ele>558</ele>
        <time>2019-06-11T12:17:53Z</time>
      </trkpt>
      <trkpt lat="46.07587" lon="6.5841">
        <ele>559</ele>
        <time>2019-06-11T12:17:58Z</time>
      </trkpt>
      <trkpt lat="46.07548" lon="6.58426">
        <ele>560</ele>
        <time>2019-06-11T12:18:05Z</time>
      </trkpt>
      <trkpt lat="46.0753" lon="6.58431">
        <ele>560</ele>
        <time>2019-06-11T12:18:08Z</time>
      </trkpt>
      <trkpt lat="46.07516" lon="6.58432">
        <ele>560</ele>
        <time>2019-06-11T12:18:11Z</time>
      </trkpt>
      <trkpt lat="46.07502" lon="6.58421">
        <ele>556</ele>
        <time>2019-06-11T12:18:13Z</time>
      </trkpt>
      <trkpt lat="46.07486" lon="6.58404">
        <ele>550</ele>
        <time>2019-06-11T12:18:17Z</time>
      </trkpt>
      <trkpt lat="46.07469" lon="6.58398">
        <ele>545</ele>
        <time>2019-06-11T12:18:20Z</time>
      </trkpt>
      <trkpt lat="46.07447" lon="6.58403">
        <ele>542</ele>
        <time>2019-06-11T12:18:24Z</time>
      </trkpt>
      <trkpt lat="46.07435" lon="6.58414">
        <ele>543</ele>
        <time>2019-06-11T12:18:27Z</time>
      </trkpt>
      <trkpt lat="46.07425" lon="6.58428">
        <ele>544</ele>
        <time>2019-06-11T12:18:29Z</time>
      </trkpt>
      <trkpt lat="46.07402" lon="6.58444">
        <ele>543</ele>
        <time>2019-06-11T12:18:34Z</time>
      </trkpt>
      <trkpt lat="46.0738" lon="6.58448">
        <ele>538</ele>
        <time>2019-06-11T12:18:38Z</time>
      </trkpt>
      <trkpt lat="46.07364" lon="6.58465">
        <ele>537</ele>
        <time>2019-06-11T12:18:41Z</time>
      </trkpt>
      <trkpt lat="46.07353" lon="6.58489">
        <ele>538</ele>
        <time>2019-06-11T12:18:45Z</time>
      </trkpt>
      <trkpt lat="46.07346" lon="6.5856">
        <ele>547</ele>
        <time>2019-06-11T12:18:53Z</time>
      </trkpt>
      <trkpt lat="46.07341" lon="6.58578">
        <ele>548</ele>
        <time>2019-06-11T12:18:56Z</time>
      </trkpt>
      <trkpt lat="46.07333" lon="6.58592">
        <ele>549</ele>
        <time>2019-06-11T12:18:58Z</time>
      </trkpt>
      <trkpt lat="46.07325" lon="6.58597">
        <ele>549</ele>
        <time>2019-06-11T12:19:00Z</time>
      </trkpt>
      <trkpt lat="46.07309" lon="6.58592">
        <ele>548</ele>
        <time>2019-06-11T12:19:03Z</time>
      </trkpt>
      <trkpt lat="46.07301" lon="6.58581">
        <ele>545</ele>
        <time>2019-06-11T12:19:05Z</time>
      </trkpt>
      <trkpt lat="46.07259" lon="6.58512">
        <ele>530</ele>
        <time>2019-06-11T12:19:16Z</time>
      </trkpt>
      <trkpt lat="46.07242" lon="6.58496">
        <ele>525</ele>
        <time>2019-06-11T12:19:20Z</time>
      </trkpt>
      <trkpt lat="46.07227" lon="6.58494">
        <ele>522</ele>
        <time>2019-06-11T12:19:22Z</time>
      </trkpt>
      <trkpt lat="46.07135" lon="6.58521">
        <ele>513</ele>
        <time>2019-06-11T12:19:39Z</time>
      </trkpt>
      <trkpt lat="46.0711" lon="6.58535">
        <ele>511</ele>
        <time>2019-06-11T12:19:44Z</time>
      </trkpt>
      <trkpt lat="46.0709" lon="6.58553">
        <ele>510</ele>
        <time>2019-06-11T12:19:48Z</time>
      </trkpt>
      <trkpt lat="46.07064" lon="6.58588">
        <ele>511</ele>
        <time>2019-06-11T12:19:54Z</time>
      </trkpt>
      <trkpt lat="46.07048" lon="6.586">
        <ele>511</ele>
        <time>2019-06-11T12:19:57Z</time>
      </trkpt>
      <trkpt lat="46.07037" lon="6.586">
        <ele>509</ele>
        <time>2019-06-11T12:19:59Z</time>
      </trkpt>
      <trkpt lat="46.07026" lon="6.58594">
        <ele>507</ele>
        <time>2019-06-11T12:20:01Z</time>
      </trkpt>
      <trkpt lat="46.06963" lon="6.58537">
        <ele>497</ele>
        <time>2019-06-11T12:20:15Z</time>
      </trkpt>
      <trkpt lat="46.06946" lon="6.58517">
        <ele>495</ele>
        <time>2019-06-11T12:20:19Z</time>
      </trkpt>
      <trkpt lat="46.06923" lon="6.58468">
        <ele>492</ele>
        <time>2019-06-11T12:20:26Z</time>
      </trkpt>
      <trkpt lat="46.06898" lon="6.5841">
        <ele>490</ele>
        <time>2019-06-11T12:20:34Z</time>
      </trkpt>
      <trkpt lat="46.06889" lon="6.5838">
        <ele>489</ele>
        <time>2019-06-11T12:20:38Z</time>
      </trkpt>
      <trkpt lat="46.0689" lon="6.58365">
        <ele>489</ele>
        <time>2019-06-11T12:20:40Z</time>
      </trkpt>
      <trkpt lat="46.06885" lon="6.58353">
        <ele>488</ele>
        <time>2019-06-11T12:20:42Z</time>
      </trkpt>
      <trkpt lat="46.06875" lon="6.58349">
        <ele>488</ele>
        <time>2019-06-11T12:20:44Z</time>
      </trkpt>
      <trkpt lat="46.06858" lon="6.58317">
        <ele>488</ele>
        <time>2019-06-11T12:20:49Z</time>
      </trkpt>
      <trkpt lat="46.06806" lon="6.58177">
        <ele>488</ele>
        <time>2019-06-11T12:21:08Z</time>
      </trkpt>
      <trkpt lat="46.06748" lon="6.58008">
        <ele>486</ele>
        <time>2019-06-11T12:21:32Z</time>
      </trkpt>
      <trkpt lat="46.06736" lon="6.57982">
        <ele>485</ele>
        <time>2019-06-11T12:21:35Z</time>
      </trkpt>
      <trkpt lat="46.06728" lon="6.57956">
        <ele>485</ele>
        <time>2019-06-11T12:21:39Z</time>
      </trkpt>
      <trkpt lat="46.06531" lon="6.58022">
        <ele>483</ele>
        <time>2019-06-11T12:22:15Z</time>
      </trkpt>
      <trkpt lat="46.06526" lon="6.58022">
        <ele>483</ele>
        <time>2019-06-11T12:22:16Z</time>
      </trkpt>
      <trkpt lat="46.06515" lon="6.58017">
        <ele>483</ele>
        <time>2019-06-11T12:22:18Z</time>
      </trkpt>
      <trkpt lat="46.06508" lon="6.5801">
        <ele>482</ele>
        <time>2019-06-11T12:22:19Z</time>
      </trkpt>
      <trkpt lat="46.06489" lon="6.57984">
        <ele>483</ele>
        <time>2019-06-11T12:22:24Z</time>
      </trkpt>
      <trkpt lat="46.0648" lon="6.57977">
        <ele>483</ele>
        <time>2019-06-11T12:22:26Z</time>
      </trkpt>
      <trkpt lat="46.06466" lon="6.57971">
        <ele>484</ele>
        <time>2019-06-11T12:22:29Z</time>
      </trkpt>
      <trkpt lat="46.06445" lon="6.5797">
        <ele>485</ele>
        <time>2019-06-11T12:22:32Z</time>
      </trkpt>
      <trkpt lat="46.06398" lon="6.57974">
        <ele>485</ele>
        <time>2019-06-11T12:22:41Z</time>
      </trkpt>
      <trkpt lat="46.06337" lon="6.57981">
        <ele>483</ele>
        <time>2019-06-11T12:22:52Z</time>
      </trkpt>
      <trkpt lat="46.06246" lon="6.57999">
        <ele>486</ele>
        <time>2019-06-11T12:23:08Z</time>
      </trkpt>
      <trkpt lat="46.06198" lon="6.58006">
        <ele>486</ele>
        <time>2019-06-11T12:23:16Z</time>
      </trkpt>
      <trkpt lat="46.06187" lon="6.58008">
        <ele>486</ele>
        <time>2019-06-11T12:23:18Z</time>
      </trkpt>
      <trkpt lat="46.0618" lon="6.58005">
        <ele>486</ele>
        <time>2019-06-11T12:23:20Z</time>
      </trkpt>
      <trkpt lat="46.06133" lon="6.58011">
        <ele>487</ele>
        <time>2019-06-11T12:23:28Z</time>
      </trkpt>
      <trkpt lat="46.06127" lon="6.58004">
        <ele>487</ele>
        <time>2019-06-11T12:23:30Z</time>
      </trkpt>
      <trkpt lat="46.06124" lon="6.58004">
        <ele>487</ele>
        <time>2019-06-11T12:23:30Z</time>
      </trkpt>
      <trkpt lat="46.06122" lon="6.58005">
        <ele>487</ele>
        <time>2019-06-11T12:23:30Z</time>
      </trkpt>
      <trkpt lat="46.06118" lon="6.58014">
        <ele>487</ele>
        <time>2019-06-11T12:23:32Z</time>
      </trkpt>
      <trkpt lat="46.06118" lon="6.58018">
        <ele>487</ele>
        <time>2019-06-11T12:23:32Z</time>
      </trkpt>
      <trkpt lat="46.06051" lon="6.58029">
        <ele>488</ele>
        <time>2019-06-11T12:23:44Z</time>
      </trkpt>
      <trkpt lat="46.05788" lon="6.58063">
        <ele>487</ele>
        <time>2019-06-11T12:24:31Z</time>
      </trkpt>
      <trkpt lat="46.05785" lon="6.58054">
        <ele>487</ele>
        <time>2019-06-11T12:24:32Z</time>
      </trkpt>
      <trkpt lat="46.05779" lon="6.58052">
        <ele>487</ele>
        <time>2019-06-11T12:24:34Z</time>
      </trkpt>
      <trkpt lat="46.05774" lon="6.58055">
        <ele>487</ele>
        <time>2019-06-11T12:24:34Z</time>
      </trkpt>
      <trkpt lat="46.05752" lon="6.58029">
        <ele>486</ele>
        <time>2019-06-11T12:24:40Z</time>
      </trkpt>
      <trkpt lat="46.05731" lon="6.58015">
        <ele>486</ele>
        <time>2019-06-11T12:24:44Z</time>
      </trkpt>
      <trkpt lat="46.05724" lon="6.58002">
        <ele>486</ele>
        <time>2019-06-11T12:24:46Z</time>
      </trkpt>
      <trkpt lat="46.05714" lon="6.57996">
        <ele>486</ele>
        <time>2019-06-11T12:24:48Z</time>
      </trkpt>
      <trkpt lat="46.05705" lon="6.57997">
        <ele>486</ele>
        <time>2019-06-11T12:24:49Z</time>
      </trkpt>
      <trkpt lat="46.05696" lon="6.58006">
        <ele>486</ele>
        <time>2019-06-11T12:24:51Z</time>
      </trkpt>
      <trkpt lat="46.05694" lon="6.58011">
        <ele>486</ele>
        <time>2019-06-11T12:24:52Z</time>
      </trkpt>
      <trkpt lat="46.05673" lon="6.58021">
        <ele>486</ele>
        <time>2019-06-11T12:24:56Z</time>
      </trkpt>
      <trkpt lat="46.05661" lon="6.58014">
        <ele>486</ele>
        <time>2019-06-11T12:24:58Z</time>
      </trkpt>
      <trkpt lat="46.05649" lon="6.57969">
        <ele>487</ele>
        <time>2019-06-11T12:25:04Z</time>
      </trkpt>
      <trkpt lat="46.05641" lon="6.57924">
        <ele>490</ele>
        <time>2019-06-11T12:25:10Z</time>
      </trkpt>
      <trkpt lat="46.05652" lon="6.57894">
        <ele>489</ele>
        <time>2019-06-11T12:25:14Z</time>
      </trkpt>
      <trkpt lat="46.05664" lon="6.57877">
        <ele>487</ele>
        <time>2019-06-11T12:25:17Z</time>
      </trkpt>
      <trkpt lat="46.05677" lon="6.57868">
        <ele>487</ele>
        <time>2019-06-11T12:25:20Z</time>
      </trkpt>
      <trkpt lat="46.05682" lon="6.57861">
        <ele>487</ele>
        <time>2019-06-11T12:25:21Z</time>
      </trkpt>
      <trkpt lat="46.0569" lon="6.57841">
        <ele>487</ele>
        <time>2019-06-11T12:25:24Z</time>
      </trkpt>
      <trkpt lat="46.05708" lon="6.57831">
        <ele>486</ele>
        <time>2019-06-11T12:25:27Z</time>
      </trkpt>
      <trkpt lat="46.05712" lon="6.57827">
        <ele>486</ele>
        <time>2019-06-11T12:25:28Z</time>
      </trkpt>
      <trkpt lat="46.05731" lon="6.5779">
        <ele>485</ele>
        <time>2019-06-11T12:25:34Z</time>
      </trkpt>
      <trkpt lat="46.05805" lon="6.57683">
        <ele>483</ele>
        <time>2019-06-11T12:25:52Z</time>
      </trkpt>
      <trkpt lat="46.0589" lon="6.57528">
        <ele>482</ele>
        <time>2019-06-11T12:26:17Z</time>
      </trkpt>
      <trkpt lat="46.0592" lon="6.57494">
        <ele>481</ele>
        <time>2019-06-11T12:26:23Z</time>
      </trkpt>
      <trkpt lat="46.05944" lon="6.57457">
        <ele>482</ele>
        <time>2019-06-11T12:26:30Z</time>
      </trkpt>
      <trkpt lat="46.05947" lon="6.57454">
        <ele>482</ele>
        <time>2019-06-11T12:26:30Z</time>
      </trkpt>
      <trkpt lat="46.05951" lon="6.57454">
        <ele>482</ele>
        <time>2019-06-11T12:26:31Z</time>
      </trkpt>
      <trkpt lat="46.05953" lon="6.5745">
        <ele>482</ele>
        <time>2019-06-11T12:26:32Z</time>
      </trkpt>
      <trkpt lat="46.05945" lon="6.57433">
        <ele>482</ele>
        <time>2019-06-11T12:26:34Z</time>
      </trkpt>
      <trkpt lat="46.05891" lon="6.5734">
        <ele>483</ele>
        <time>2019-06-11T12:26:49Z</time>
      </trkpt>
      <trkpt lat="46.05886" lon="6.57319">
        <ele>483</ele>
        <time>2019-06-11T12:26:52Z</time>
      </trkpt>
      <trkpt lat="46.05885" lon="6.57294">
        <ele>482</ele>
        <time>2019-06-11T12:26:55Z</time>
      </trkpt>
      <trkpt lat="46.05883" lon="6.5728">
        <ele>482</ele>
        <time>2019-06-11T12:26:57Z</time>
      </trkpt>
      <trkpt lat="46.05877" lon="6.5726">
        <ele>482</ele>
        <time>2019-06-11T12:27:00Z</time>
      </trkpt>
      <trkpt lat="46.05878" lon="6.57229">
        <ele>482</ele>
        <time>2019-06-11T12:27:03Z</time>
      </trkpt>
      <trkpt lat="46.05877" lon="6.57215">
        <ele>482</ele>
        <time>2019-06-11T12:27:05Z</time>
      </trkpt>
      <trkpt lat="46.0587" lon="6.57203">
        <ele>482</ele>
        <time>2019-06-11T12:27:07Z</time>
      </trkpt>
      <trkpt lat="46.05859" lon="6.57192">
        <ele>482</ele>
        <time>2019-06-11T12:27:09Z</time>
      </trkpt>
      <trkpt lat="46.05848" lon="6.5719">
        <ele>482</ele>
        <time>2019-06-11T12:27:11Z</time>
      </trkpt>
      <trkpt lat="46.0584" lon="6.57191">
        <ele>482</ele>
        <time>2019-06-11T12:27:13Z</time>
      </trkpt>
      <trkpt lat="46.05827" lon="6.57204">
        <ele>483</ele>
        <time>2019-06-11T12:27:16Z</time>
      </trkpt>
      <trkpt lat="46.05783" lon="6.57209">
        <ele>483</ele>
        <time>2019-06-11T12:27:23Z</time>
      </trkpt>
      <trkpt lat="46.05773" lon="6.57208">
        <ele>484</ele>
        <time>2019-06-11T12:27:25Z</time>
      </trkpt>
      <trkpt lat="46.05672" lon="6.57119">
        <ele>484</ele>
        <time>2019-06-11T12:27:46Z</time>
      </trkpt>
      <trkpt lat="46.05647" lon="6.57078">
        <ele>484</ele>
        <time>2019-06-11T12:27:53Z</time>
      </trkpt>
      <trkpt lat="46.05637" lon="6.57044">
        <ele>483</ele>
        <time>2019-06-11T12:27:58Z</time>
      </trkpt>
      <trkpt lat="46.05628" lon="6.57059">
        <ele>483</ele>
        <time>2019-06-11T12:28:00Z</time>
      </trkpt>
      <trkpt lat="46.05623" lon="6.57075">
        <ele>483</ele>
        <time>2019-06-11T12:28:02Z</time>
      </trkpt>
      <trkpt lat="46.05621" lon="6.57168">
        <ele>485</ele>
        <time>2019-06-11T12:28:14Z</time>
      </trkpt>
      <trkpt lat="46.05612" lon="6.57326">
        <ele>483</ele>
        <time>2019-06-11T12:28:33Z</time>
      </trkpt>
      <trkpt lat="46.05613" lon="6.57423">
        <ele>484</ele>
        <time>2019-06-11T12:28:45Z</time>
      </trkpt>
      <trkpt lat="46.05608" lon="6.57488">
        <ele>486</ele>
        <time>2019-06-11T12:28:53Z</time>
      </trkpt>
      <trkpt lat="46.056" lon="6.57538">
        <ele>487</ele>
        <time>2019-06-11T12:29:00Z</time>
      </trkpt>
      <trkpt lat="46.05576" lon="6.57659">
        <ele>502</ele>
        <time>2019-06-11T12:29:15Z</time>
      </trkpt>
      <trkpt lat="46.0555" lon="6.57762">
        <ele>521</ele>
        <time>2019-06-11T12:29:29Z</time>
      </trkpt>
      <trkpt lat="46.05536" lon="6.57807">
        <ele>524</ele>
        <time>2019-06-11T12:29:35Z</time>
      </trkpt>
      <trkpt lat="46.05519" lon="6.57847">
        <ele>522</ele>
        <time>2019-06-11T12:29:41Z</time>
      </trkpt>
      <trkpt lat="46.05511" lon="6.57862">
        <ele>521</ele>
        <time>2019-06-11T12:29:43Z</time>
      </trkpt>
      <trkpt lat="46.05488" lon="6.57879">
        <ele>524</ele>
        <time>2019-06-11T12:29:48Z</time>
      </trkpt>
      <trkpt lat="46.05471" lon="6.579">
        <ele>524</ele>
        <time>2019-06-11T12:29:52Z</time>
      </trkpt>
      <trkpt lat="46.05457" lon="6.57914">
        <ele>523</ele>
        <time>2019-06-11T12:29:55Z</time>
      </trkpt>
      <trkpt lat="46.05444" lon="6.5792">
        <ele>524</ele>
        <time>2019-06-11T12:29:57Z</time>
      </trkpt>
      <trkpt lat="46.05405" lon="6.57927">
        <ele>532</ele>
        <time>2019-06-11T12:30:04Z</time>
      </trkpt>
      <trkpt lat="46.05395" lon="6.57934">
        <ele>531</ele>
        <time>2019-06-11T12:30:06Z</time>
      </trkpt>
      <trkpt lat="46.05285" lon="6.57942">
        <ele>563</ele>
        <time>2019-06-11T12:30:26Z</time>
      </trkpt>
      <trkpt lat="46.05258" lon="6.57945">
        <ele>574</ele>
        <time>2019-06-11T12:30:30Z</time>
      </trkpt>
      <trkpt lat="46.0525" lon="6.57948">
        <ele>576</ele>
        <time>2019-06-11T12:30:32Z</time>
      </trkpt>
      <trkpt lat="46.05236" lon="6.5796">
        <ele>577</ele>
        <time>2019-06-11T12:30:35Z</time>
      </trkpt>
      <trkpt lat="46.05227" lon="6.57972">
        <ele>573</ele>
        <time>2019-06-11T12:30:37Z</time>
      </trkpt>
      <trkpt lat="46.05214" lon="6.57985">
        <ele>572</ele>
        <time>2019-06-11T12:30:40Z</time>
      </trkpt>
      <trkpt lat="46.05188" lon="6.57994">
        <ele>581</ele>
        <time>2019-06-11T12:30:45Z</time>
      </trkpt>
      <trkpt lat="46.05177" lon="6.58001">
        <ele>582</ele>
        <time>2019-06-11T12:30:47Z</time>
      </trkpt>
      <trkpt lat="46.05129" lon="6.58042">
        <ele>591</ele>
        <time>2019-06-11T12:30:57Z</time>
      </trkpt>
      <trkpt lat="46.05101" lon="6.58063">
        <ele>591</ele>
        <time>2019-06-11T12:31:02Z</time>
      </trkpt>
      <trkpt lat="46.05015" lon="6.5811">
        <ele>602</ele>
        <time>2019-06-11T12:31:19Z</time>
      </trkpt>
      <trkpt lat="46.04991" lon="6.58131">
        <ele>606</ele>
        <time>2019-06-11T12:31:24Z</time>
      </trkpt>
      <trkpt lat="46.0497" lon="6.58143">
        <ele>614</ele>
        <time>2019-06-11T12:31:28Z</time>
      </trkpt>
      <trkpt lat="46.04942" lon="6.58168">
        <ele>614</ele>
        <time>2019-06-11T12:31:33Z</time>
      </trkpt>
      <trkpt lat="46.04933" lon="6.58169">
        <ele>619</ele>
        <time>2019-06-11T12:31:35Z</time>
      </trkpt>
      <trkpt lat="46.0493" lon="6.58167">
        <ele>622</ele>
        <time>2019-06-11T12:31:36Z</time>
      </trkpt>
      <trkpt lat="46.04925" lon="6.58162">
        <ele>629</ele>
        <time>2019-06-11T12:31:37Z</time>
      </trkpt>
      <trkpt lat="46.04921" lon="6.58149">
        <ele>644</ele>
        <time>2019-06-11T12:31:38Z</time>
      </trkpt>
      <trkpt lat="46.04921" lon="6.58136">
        <ele>656</ele>
        <time>2019-06-11T12:31:40Z</time>
      </trkpt>
      <trkpt lat="46.04923" lon="6.58129">
        <ele>662</ele>
        <time>2019-06-11T12:31:41Z</time>
      </trkpt>
      <trkpt lat="46.04926" lon="6.58124">
        <ele>664</ele>
        <time>2019-06-11T12:31:42Z</time>
      </trkpt>
      <trkpt lat="46.04949" lon="6.58116">
        <ele>651</ele>
        <time>2019-06-11T12:31:46Z</time>
      </trkpt>
      <trkpt lat="46.04983" lon="6.58097">
        <ele>634</ele>
        <time>2019-06-11T12:31:53Z</time>
      </trkpt>
      <trkpt lat="46.05048" lon="6.58065">
        <ele>623</ele>
        <time>2019-06-11T12:32:05Z</time>
      </trkpt>
      <trkpt lat="46.05064" lon="6.58055">
        <ele>625</ele>
        <time>2019-06-11T12:32:08Z</time>
      </trkpt>
      <trkpt lat="46.05069" lon="6.58049">
        <ele>629</ele>
        <time>2019-06-11T12:32:09Z</time>
      </trkpt>
      <trkpt lat="46.05071" lon="6.58041">
        <ele>637</ele>
        <time>2019-06-11T12:32:10Z</time>
      </trkpt>
      <trkpt lat="46.05075" lon="6.58008">
        <ele>672</ele>
        <time>2019-06-11T12:32:14Z</time>
      </trkpt>
      <trkpt lat="46.0508" lon="6.58001">
        <ele>675</ele>
        <time>2019-06-11T12:32:15Z</time>
      </trkpt>
      <trkpt lat="46.05103" lon="6.57997">
        <ele>656</ele>
        <time>2019-06-11T12:32:20Z</time>
      </trkpt>
      <trkpt lat="46.05113" lon="6.57989">
        <ele>654</ele>
        <time>2019-06-11T12:32:22Z</time>
      </trkpt>
      <trkpt lat="46.05172" lon="6.57937">
        <ele>642</ele>
        <time>2019-06-11T12:32:34Z</time>
      </trkpt>
      <trkpt lat="46.05187" lon="6.57909">
        <ele>656</ele>
        <time>2019-06-11T12:32:38Z</time>
      </trkpt>
      <trkpt lat="46.05247" lon="6.57892">
        <ele>621</ele>
        <time>2019-06-11T12:32:49Z</time>
      </trkpt>
      <trkpt lat="46.05258" lon="6.57863">
        <ele>636</ele>
        <time>2019-06-11T12:32:53Z</time>
      </trkpt>
      <trkpt lat="46.05265" lon="6.5785">
        <ele>641</ele>
        <time>2019-06-11T12:32:55Z</time>
      </trkpt>
      <trkpt lat="46.05298" lon="6.57838">
        <ele>625</ele>
        <time>2019-06-11T12:33:01Z</time>
      </trkpt>
      <trkpt lat="46.05331" lon="6.57761">
        <ele>668</ele>
        <time>2019-06-11T12:33:13Z</time>
      </trkpt>
      <trkpt lat="46.05366" lon="6.57726">
        <ele>668</ele>
        <time>2019-06-11T12:33:20Z</time>
      </trkpt>
      <trkpt lat="46.05372" lon="6.57726">
        <ele>664</ele>
        <time>2019-06-11T12:33:21Z</time>
      </trkpt>
      <trkpt lat="46.05379" lon="6.57729">
        <ele>659</ele>
        <time>2019-06-11T12:33:22Z</time>
      </trkpt>
      <trkpt lat="46.05404" lon="6.57752">
        <ele>633</ele>
        <time>2019-06-11T12:33:28Z</time>
      </trkpt>
      <trkpt lat="46.05409" lon="6.57754">
        <ele>629</ele>
        <time>2019-06-11T12:33:29Z</time>
      </trkpt>
      <trkpt lat="46.05417" lon="6.57751">
        <ele>625</ele>
        <time>2019-06-11T12:33:30Z</time>
      </trkpt>
      <trkpt lat="46.0542" lon="6.57744">
        <ele>627</ele>
        <time>2019-06-11T12:33:31Z</time>
      </trkpt>
      <trkpt lat="46.0542" lon="6.57735">
        <ele>631</ele>
        <time>2019-06-11T12:33:32Z</time>
      </trkpt>
      <trkpt lat="46.05413" lon="6.57692">
        <ele>659</ele>
        <time>2019-06-11T12:33:38Z</time>
      </trkpt>
      <trkpt lat="46.05405" lon="6.57584">
        <ele>681</ele>
        <time>2019-06-11T12:33:51Z</time>
      </trkpt>
      <trkpt lat="46.05406" lon="6.57554">
        <ele>678</ele>
        <time>2019-06-11T12:33:55Z</time>
      </trkpt>
      <trkpt lat="46.05403" lon="6.5754">
        <ele>679</ele>
        <time>2019-06-11T12:33:57Z</time>
      </trkpt>
      <trkpt lat="46.05396" lon="6.57531">
        <ele>683</ele>
        <time>2019-06-11T12:33:58Z</time>
      </trkpt>
      <trkpt lat="46.05387" lon="6.57532">
        <ele>688</ele>
        <time>2019-06-11T12:34:00Z</time>
      </trkpt>
      <trkpt lat="46.05383" lon="6.57535">
        <ele>691</ele>
        <time>2019-06-11T12:34:01Z</time>
      </trkpt>
      <trkpt lat="46.05381" lon="6.57539">
        <ele>693</ele>
        <time>2019-06-11T12:34:01Z</time>
      </trkpt>
      <trkpt lat="46.05381" lon="6.57546">
        <ele>693</ele>
        <time>2019-06-11T12:34:02Z</time>
      </trkpt>
      <trkpt lat="46.05389" lon="6.57596">
        <ele>689</ele>
        <time>2019-06-11T12:34:09Z</time>
      </trkpt>
      <trkpt lat="46.05387" lon="6.57643">
        <ele>687</ele>
        <time>2019-06-11T12:34:14Z</time>
      </trkpt>
      <trkpt lat="46.05389" lon="6.57662">
        <ele>684</ele>
        <time>2019-06-11T12:34:17Z</time>
      </trkpt>
      <trkpt lat="46.05388" lon="6.57678">
        <ele>679</ele>
        <time>2019-06-11T12:34:19Z</time>
      </trkpt>
      <trkpt lat="46.05382" lon="6.57688">
        <ele>677</ele>
        <time>2019-06-11T12:34:20Z</time>
      </trkpt>
      <trkpt lat="46.05377" lon="6.5769">
        <ele>679</ele>
        <time>2019-06-11T12:34:21Z</time>
      </trkpt>
      <trkpt lat="46.05371" lon="6.57688">
        <ele>683</ele>
        <time>2019-06-11T12:34:22Z</time>
      </trkpt>
      <trkpt lat="46.05362" lon="6.57679">
        <ele>692</ele>
        <time>2019-06-11T12:34:24Z</time>
      </trkpt>
      <trkpt lat="46.05358" lon="6.57668">
        <ele>699</ele>
        <time>2019-06-11T12:34:26Z</time>
      </trkpt>
      <trkpt lat="46.05357" lon="6.57662">
        <ele>701</ele>
        <time>2019-06-11T12:34:27Z</time>
      </trkpt>
      <trkpt lat="46.05367" lon="6.57595">
        <ele>702</ele>
        <time>2019-06-11T12:34:35Z</time>
      </trkpt>
      <trkpt lat="46.05366" lon="6.57585">
        <ele>704</ele>
        <time>2019-06-11T12:34:36Z</time>
      </trkpt>
      <trkpt lat="46.05364" lon="6.57574">
        <ele>705</ele>
        <time>2019-06-11T12:34:38Z</time>
      </trkpt>
      <trkpt lat="46.05348" lon="6.57537">
        <ele>714</ele>
        <time>2019-06-11T12:34:43Z</time>
      </trkpt>
      <trkpt lat="46.05339" lon="6.57494">
        <ele>720</ele>
        <time>2019-06-11T12:34:49Z</time>
      </trkpt>
      <trkpt lat="46.05328" lon="6.57468">
        <ele>725</ele>
        <time>2019-06-11T12:34:52Z</time>
      </trkpt>
      <trkpt lat="46.05324" lon="6.57418">
        <ele>725</ele>
        <time>2019-06-11T12:34:59Z</time>
      </trkpt>
      <trkpt lat="46.0529" lon="6.57301">
        <ele>723</ele>
        <time>2019-06-11T12:35:14Z</time>
      </trkpt>
      <trkpt lat="46.05281" lon="6.57249">
        <ele>719</ele>
        <time>2019-06-11T12:35:21Z</time>
      </trkpt>
      <trkpt lat="46.05277" lon="6.57237">
        <ele>718</ele>
        <time>2019-06-11T12:35:23Z</time>
      </trkpt>
      <trkpt lat="46.05268" lon="6.57226">
        <ele>724</ele>
        <time>2019-06-11T12:35:25Z</time>
      </trkpt>
      <trkpt lat="46.05263" lon="6.57221">
        <ele>728</ele>
        <time>2019-06-11T12:35:26Z</time>
      </trkpt>
      <trkpt lat="46.05248" lon="6.57218">
        <ele>741</ele>
        <time>2019-06-11T12:35:28Z</time>
      </trkpt>
      <trkpt lat="46.05239" lon="6.57222">
        <ele>744</ele>
        <time>2019-06-11T12:35:30Z</time>
      </trkpt>
      <trkpt lat="46.05233" lon="6.57228">
        <ele>747</ele>
        <time>2019-06-11T12:35:31Z</time>
      </trkpt>
      <trkpt lat="46.05228" lon="6.5724">
        <ele>749</ele>
        <time>2019-06-11T12:35:33Z</time>
      </trkpt>
      <trkpt lat="46.05226" lon="6.57258">
        <ele>750</ele>
        <time>2019-06-11T12:35:35Z</time>
      </trkpt>
      <trkpt lat="46.05225" lon="6.57383">
        <ele>757</ele>
        <time>2019-06-11T12:35:51Z</time>
      </trkpt>
      <trkpt lat="46.05223" lon="6.574">
        <ele>759</ele>
        <time>2019-06-11T12:35:53Z</time>
      </trkpt>
      <trkpt lat="46.05212" lon="6.57439">
        <ele>765</ele>
        <time>2019-06-11T12:35:58Z</time>
      </trkpt>
      <trkpt lat="46.05209" lon="6.57457">
        <ele>766</ele>
        <time>2019-06-11T12:36:00Z</time>
      </trkpt>
      <trkpt lat="46.05208" lon="6.57473">
        <ele>768</ele>
        <time>2019-06-11T12:36:02Z</time>
      </trkpt>
      <trkpt lat="46.05208" lon="6.5752">
        <ele>770</ele>
        <time>2019-06-11T12:36:08Z</time>
      </trkpt>
      <trkpt lat="46.05206" lon="6.57526">
        <ele>771</ele>
        <time>2019-06-11T12:36:09Z</time>
      </trkpt>
      <trkpt lat="46.05201" lon="6.57533">
        <ele>773</ele>
        <time>2019-06-11T12:36:10Z</time>
      </trkpt>
      <trkpt lat="46.05196" lon="6.57536">
        <ele>775</ele>
        <time>2019-06-11T12:36:11Z</time>
      </trkpt>
      <trkpt lat="46.05189" lon="6.57537">
        <ele>778</ele>
        <time>2019-06-11T12:36:12Z</time>
      </trkpt>
      <trkpt lat="46.05183" lon="6.57534">
        <ele>780</ele>
        <time>2019-06-11T12:36:14Z</time>
      </trkpt>
      <trkpt lat="46.05176" lon="6.57523">
        <ele>781</ele>
        <time>2019-06-11T12:36:15Z</time>
      </trkpt>
      <trkpt lat="46.05174" lon="6.57514">
        <ele>781</ele>
        <time>2019-06-11T12:36:17Z</time>
      </trkpt>
      <trkpt lat="46.05174" lon="6.57504">
        <ele>781</ele>
        <time>2019-06-11T12:36:18Z</time>
      </trkpt>
      <trkpt lat="46.05181" lon="6.57482">
        <ele>777</ele>
        <time>2019-06-11T12:36:21Z</time>
      </trkpt>
      <trkpt lat="46.05183" lon="6.57463">
        <ele>775</ele>
        <time>2019-06-11T12:36:23Z</time>
      </trkpt>
      <trkpt lat="46.0518" lon="6.57448">
        <ele>775</ele>
        <time>2019-06-11T12:36:25Z</time>
      </trkpt>
      <trkpt lat="46.05164" lon="6.5741">
        <ele>779</ele>
        <time>2019-06-11T12:36:31Z</time>
      </trkpt>
      <trkpt lat="46.05166" lon="6.57341">
        <ele>775</ele>
        <time>2019-06-11T12:36:39Z</time>
      </trkpt>
      <trkpt lat="46.05114" lon="6.57194">
        <ele>793</ele>
        <time>2019-06-11T12:37:00Z</time>
      </trkpt>
      <trkpt lat="46.05099" lon="6.57128">
        <ele>802</ele>
        <time>2019-06-11T12:37:08Z</time>
      </trkpt>
      <trkpt lat="46.05098" lon="6.57101">
        <ele>804</ele>
        <time>2019-06-11T12:37:11Z</time>
      </trkpt>
      <trkpt lat="46.05105" lon="6.57017">
        <ele>808</ele>
        <time>2019-06-11T12:37:22Z</time>
      </trkpt>
      <trkpt lat="46.05113" lon="6.56989">
        <ele>805</ele>
        <time>2019-06-11T12:37:26Z</time>
      </trkpt>
      <trkpt lat="46.05125" lon="6.56969">
        <ele>795</ele>
        <time>2019-06-11T12:37:29Z</time>
      </trkpt>
      <trkpt lat="46.05132" lon="6.56962">
        <ele>788</ele>
        <time>2019-06-11T12:37:30Z</time>
      </trkpt>
      <trkpt lat="46.05134" lon="6.56948">
        <ele>784</ele>
        <time>2019-06-11T12:37:32Z</time>
      </trkpt>
      <trkpt lat="46.0513" lon="6.56934">
        <ele>785</ele>
        <time>2019-06-11T12:37:34Z</time>
      </trkpt>
      <trkpt lat="46.05122" lon="6.56919">
        <ele>790</ele>
        <time>2019-06-11T12:37:36Z</time>
      </trkpt>
      <trkpt lat="46.05111" lon="6.56914">
        <ele>800</ele>
        <time>2019-06-11T12:37:38Z</time>
      </trkpt>
      <trkpt lat="46.05099" lon="6.56916">
        <ele>814</ele>
        <time>2019-06-11T12:37:41Z</time>
      </trkpt>
      <trkpt lat="46.0508" lon="6.56965">
        <ele>827</ele>
        <time>2019-06-11T12:37:48Z</time>
      </trkpt>
      <trkpt lat="46.05042" lon="6.571">
        <ele>832</ele>
        <time>2019-06-11T12:38:06Z</time>
      </trkpt>
      <trkpt lat="46.05032" lon="6.57147">
        <ele>832</ele>
        <time>2019-06-11T12:38:12Z</time>
      </trkpt>
      <trkpt lat="46.05015" lon="6.57205">
        <ele>838</ele>
        <time>2019-06-11T12:38:19Z</time>
      </trkpt>
      <trkpt lat="46.05005" lon="6.57495">
        <ele>853</ele>
        <time>2019-06-11T12:38:55Z</time>
      </trkpt>
      <trkpt lat="46.04999" lon="6.57523">
        <ele>855</ele>
        <time>2019-06-11T12:38:59Z</time>
      </trkpt>
      <trkpt lat="46.04988" lon="6.57547">
        <ele>859</ele>
        <time>2019-06-11T12:39:02Z</time>
      </trkpt>
      <trkpt lat="46.04979" lon="6.57576">
        <ele>862</ele>
        <time>2019-06-11T12:39:06Z</time>
      </trkpt>
      <trkpt lat="46.04961" lon="6.57664">
        <ele>872</ele>
        <time>2019-06-11T12:39:18Z</time>
      </trkpt>
      <trkpt lat="46.04953" lon="6.57692">
        <ele>876</ele>
        <time>2019-06-11T12:39:21Z</time>
      </trkpt>
      <trkpt lat="46.04944" lon="6.5774">
        <ele>880</ele>
        <time>2019-06-11T12:39:28Z</time>
      </trkpt>
      <trkpt lat="46.04941" lon="6.57766">
        <ele>881</ele>
        <time>2019-06-11T12:39:31Z</time>
      </trkpt>
      <trkpt lat="46.04942" lon="6.57792">
        <ele>880</ele>
        <time>2019-06-11T12:39:34Z</time>
      </trkpt>
      <trkpt lat="46.04936" lon="6.57824">
        <ele>881</ele>
        <time>2019-06-11T12:39:38Z</time>
      </trkpt>
      <trkpt lat="46.04927" lon="6.5785">
        <ele>876</ele>
        <time>2019-06-11T12:39:42Z</time>
      </trkpt>
      <trkpt lat="46.04908" lon="6.57895">
        <ele>864</ele>
        <time>2019-06-11T12:39:48Z</time>
      </trkpt>
      <trkpt lat="46.04875" lon="6.57941">
        <ele>864</ele>
        <time>2019-06-11T12:39:56Z</time>
      </trkpt>
      <trkpt lat="46.04846" lon="6.57993">
        <ele>865</ele>
        <time>2019-06-11T12:40:05Z</time>
      </trkpt>
      <trkpt lat="46.04828" lon="6.58038">
        <ele>847</ele>
        <time>2019-06-11T12:40:11Z</time>
      </trkpt>
      <trkpt lat="46.04818" lon="6.58053">
        <ele>843</ele>
        <time>2019-06-11T12:40:14Z</time>
      </trkpt>
      <trkpt lat="46.04808" lon="6.58061">
        <ele>845</ele>
        <time>2019-06-11T12:40:16Z</time>
      </trkpt>
      <trkpt lat="46.04769" lon="6.58075">
        <ele>869</ele>
        <time>2019-06-11T12:40:23Z</time>
      </trkpt>
      <trkpt lat="46.04744" lon="6.5809">
        <ele>879</ele>
        <time>2019-06-11T12:40:28Z</time>
      </trkpt>
      <trkpt lat="46.04724" lon="6.58117">
        <ele>872</ele>
        <time>2019-06-11T12:40:32Z</time>
      </trkpt>
      <trkpt lat="46.04706" lon="6.5815">
        <ele>863</ele>
        <time>2019-06-11T12:40:38Z</time>
      </trkpt>
      <trkpt lat="46.04695" lon="6.58159">
        <ele>863</ele>
        <time>2019-06-11T12:40:40Z</time>
      </trkpt>
      <trkpt lat="46.04688" lon="6.58163">
        <ele>864</ele>
        <time>2019-06-11T12:40:41Z</time>
      </trkpt>
      <trkpt lat="46.04678" lon="6.58162">
        <ele>868</ele>
        <time>2019-06-11T12:40:43Z</time>
      </trkpt>
      <trkpt lat="46.04641" lon="6.58107">
        <ele>886</ele>
        <time>2019-06-11T12:40:52Z</time>
      </trkpt>
      <trkpt lat="46.04622" lon="6.58072">
        <ele>893</ele>
        <time>2019-06-11T12:40:58Z</time>
      </trkpt>
      <trkpt lat="46.04584" lon="6.57981">
        <ele>904</ele>
        <time>2019-06-11T12:41:11Z</time>
      </trkpt>
      <trkpt lat="46.04571" lon="6.57956">
        <ele>907</ele>
        <time>2019-06-11T12:41:15Z</time>
      </trkpt>
      <trkpt lat="46.04528" lon="6.57882">
        <ele>914</ele>
        <time>2019-06-11T12:41:27Z</time>
      </trkpt>
      <trkpt lat="46.04478" lon="6.57786">
        <ele>926</ele>
        <time>2019-06-11T12:41:42Z</time>
      </trkpt>
      <trkpt lat="46.04458" lon="6.57756">
        <ele>930</ele>
        <time>2019-06-11T12:41:47Z</time>
      </trkpt>
      <trkpt lat="46.04417" lon="6.57721">
        <ele>929</ele>
        <time>2019-06-11T12:41:55Z</time>
      </trkpt>
      <trkpt lat="46.04404" lon="6.57726">
        <ele>929</ele>
        <time>2019-06-11T12:41:58Z</time>
      </trkpt>
      <trkpt lat="46.04378" lon="6.57771">
        <ele>926</ele>
        <time>2019-06-11T12:42:05Z</time>
      </trkpt>
      <trkpt lat="46.04349" lon="6.57784">
        <ele>929</ele>
        <time>2019-06-11T12:42:10Z</time>
      </trkpt>
      <trkpt lat="46.04324" lon="6.57791">
        <ele>932</ele>
        <time>2019-06-11T12:42:15Z</time>
      </trkpt>
      <trkpt lat="46.04285" lon="6.57799">
        <ele>937</ele>
        <time>2019-06-11T12:42:22Z</time>
      </trkpt>
      <trkpt lat="46.04276" lon="6.57807">
        <ele>939</ele>
        <time>2019-06-11T12:42:24Z</time>
      </trkpt>
      <trkpt lat="46.0427" lon="6.57815">
        <ele>940</ele>
        <time>2019-06-11T12:42:25Z</time>
      </trkpt>
      <trkpt lat="46.04258" lon="6.57849">
        <ele>941</ele>
        <time>2019-06-11T12:42:30Z</time>
      </trkpt>
      <trkpt lat="46.04253" lon="6.57857">
        <ele>942</ele>
        <time>2019-06-11T12:42:31Z</time>
      </trkpt>
      <trkpt lat="46.04202" lon="6.57898">
        <ele>952</ele>
        <time>2019-06-11T12:42:42Z</time>
      </trkpt>
      <trkpt lat="46.04192" lon="6.5791">
        <ele>954</ele>
        <time>2019-06-11T12:42:44Z</time>
      </trkpt>
      <trkpt lat="46.0419" lon="6.57917">
        <ele>954</ele>
        <time>2019-06-11T12:42:45Z</time>
      </trkpt>
      <trkpt lat="46.04186" lon="6.57938">
        <ele>954</ele>
        <time>2019-06-11T12:42:48Z</time>
      </trkpt>
      <trkpt lat="46.04181" lon="6.58001">
        <ele>952</ele>
        <time>2019-06-11T12:42:55Z</time>
      </trkpt>
      <trkpt lat="46.04172" lon="6.58023">
        <ele>954</ele>
        <time>2019-06-11T12:42:59Z</time>
      </trkpt>
      <trkpt lat="46.04168" lon="6.58029">
        <ele>955</ele>
        <time>2019-06-11T12:43:00Z</time>
      </trkpt>
      <trkpt lat="46.0414" lon="6.58056">
        <ele>968</ele>
        <time>2019-06-11T12:43:06Z</time>
      </trkpt>
      <trkpt lat="46.04123" lon="6.58077">
        <ele>975</ele>
        <time>2019-06-11T12:43:10Z</time>
      </trkpt>
      <trkpt lat="46.04089" lon="6.5813">
        <ele>982</ele>
        <time>2019-06-11T12:43:18Z</time>
      </trkpt>
      <trkpt lat="46.04069" lon="6.5817">
        <ele>981</ele>
        <time>2019-06-11T12:43:25Z</time>
      </trkpt>
      <trkpt lat="46.04062" lon="6.58176">
        <ele>983</ele>
        <time>2019-06-11T12:43:26Z</time>
      </trkpt>
      <trkpt lat="46.04051" lon="6.58179">
        <ele>986</ele>
        <time>2019-06-11T12:43:28Z</time>
      </trkpt>
      <trkpt lat="46.0403" lon="6.58178">
        <ele>995</ele>
        <time>2019-06-11T12:43:32Z</time>
      </trkpt>
      <trkpt lat="46.04017" lon="6.58181">
        <ele>999</ele>
        <time>2019-06-11T12:43:34Z</time>
      </trkpt>
      <trkpt lat="46.03987" lon="6.58223">
        <ele>998</ele>
        <time>2019-06-11T12:43:42Z</time>
      </trkpt>
      <trkpt lat="46.03979" lon="6.58231">
        <ele>999</ele>
        <time>2019-06-11T12:43:43Z</time>
      </trkpt>
      <trkpt lat="46.03936" lon="6.58254">
        <ele>1010</ele>
        <time>2019-06-11T12:43:51Z</time>
      </trkpt>
      <trkpt lat="46.03889" lon="6.58331">
        <ele>1004</ele>
        <time>2019-06-11T12:44:04Z</time>
      </trkpt>
      <trkpt lat="46.03876" lon="6.58347">
        <ele>1004</ele>
        <time>2019-06-11T12:44:07Z</time>
      </trkpt>
      <trkpt lat="46.03861" lon="6.58354">
        <ele>1005</ele>
        <time>2019-06-11T12:44:10Z</time>
      </trkpt>
      <trkpt lat="46.03829" lon="6.58361">
        <ele>1008</ele>
        <time>2019-06-11T12:44:16Z</time>
      </trkpt>
      <trkpt lat="46.03807" lon="6.58362">
        <ele>1009</ele>
        <time>2019-06-11T12:44:20Z</time>
      </trkpt>
      <trkpt lat="46.03758" lon="6.5835">
        <ele>1012</ele>
        <time>2019-06-11T12:44:28Z</time>
      </trkpt>
      <trkpt lat="46.03731" lon="6.5834">
        <ele>1016</ele>
        <time>2019-06-11T12:44:33Z</time>
      </trkpt>
      <trkpt lat="46.03725" lon="6.58336">
        <ele>1018</ele>
        <time>2019-06-11T12:44:35Z</time>
      </trkpt>
      <trkpt lat="46.03721" lon="6.5833">
        <ele>1019</ele>
        <time>2019-06-11T12:44:36Z</time>
      </trkpt>
      <trkpt lat="46.03717" lon="6.58315">
        <ele>1024</ele>
        <time>2019-06-11T12:44:38Z</time>
      </trkpt>
      <trkpt lat="46.03721" lon="6.58301">
        <ele>1027</ele>
        <time>2019-06-11T12:44:39Z</time>
      </trkpt>
      <trkpt lat="46.03731" lon="6.58293">
        <ele>1028</ele>
        <time>2019-06-11T12:44:41Z</time>
      </trkpt>
      <trkpt lat="46.03752" lon="6.58282">
        <ele>1027</ele>
        <time>2019-06-11T12:44:45Z</time>
      </trkpt>
      <trkpt lat="46.0379" lon="6.58231">
        <ele>1035</ele>
        <time>2019-06-11T12:44:55Z</time>
      </trkpt>
      <trkpt lat="46.03826" lon="6.58201">
        <ele>1035</ele>
        <time>2019-06-11T12:45:02Z</time>
      </trkpt>
      <trkpt lat="46.03832" lon="6.58189">
        <ele>1036</ele>
        <time>2019-06-11T12:45:04Z</time>
      </trkpt>
      <trkpt lat="46.03833" lon="6.58175">
        <ele>1039</ele>
        <time>2019-06-11T12:45:06Z</time>
      </trkpt>
      <trkpt lat="46.03829" lon="6.58165">
        <ele>1042</ele>
        <time>2019-06-11T12:45:07Z</time>
      </trkpt>
      <trkpt lat="46.03825" lon="6.58159">
        <ele>1045</ele>
        <time>2019-06-11T12:45:08Z</time>
      </trkpt>
      <trkpt lat="46.03811" lon="6.58155">
        <ele>1050</ele>
        <time>2019-06-11T12:45:11Z</time>
      </trkpt>
      <trkpt lat="46.03791" lon="6.58155">
        <ele>1056</ele>
        <time>2019-06-11T12:45:14Z</time>
      </trkpt>
      <trkpt lat="46.03712" lon="6.58182">
        <ele>1067</ele>
        <time>2019-06-11T12:45:29Z</time>
      </trkpt>
      <trkpt lat="46.03666" lon="6.58212">
        <ele>1068</ele>
        <time>2019-06-11T12:45:38Z</time>
      </trkpt>
      <trkpt lat="46.03622" lon="6.58236">
        <ele>1066</ele>
        <time>2019-06-11T12:45:46Z</time>
      </trkpt>
      <trkpt lat="46.03602" lon="6.58239">
        <ele>1068</ele>
        <time>2019-06-11T12:45:50Z</time>
      </trkpt>
      <trkpt lat="46.03557" lon="6.58234">
        <ele>1079</ele>
        <time>2019-06-11T12:45:58Z</time>
      </trkpt>
      <trkpt lat="46.03538" lon="6.58236">
        <ele>1083</ele>
        <time>2019-06-11T12:46:01Z</time>
      </trkpt>
      <trkpt lat="46.03524" lon="6.58246">
        <ele>1084</ele>
        <time>2019-06-11T12:46:04Z</time>
      </trkpt>
      <trkpt lat="46.03503" lon="6.58275">
        <ele>1084</ele>
        <time>2019-06-11T12:46:09Z</time>
      </trkpt>
      <trkpt lat="46.03474" lon="6.58305">
        <ele>1090</ele>
        <time>2019-06-11T12:46:15Z</time>
      </trkpt>
      <trkpt lat="46.0346" lon="6.58325">
        <ele>1091</ele>
        <time>2019-06-11T12:46:19Z</time>
      </trkpt>
      <trkpt lat="46.03429" lon="6.58377">
        <ele>1095</ele>
        <time>2019-06-11T12:46:27Z</time>
      </trkpt>
      <trkpt lat="46.03424" lon="6.5839">
        <ele>1095</ele>
        <time>2019-06-11T12:46:29Z</time>
      </trkpt>
      <trkpt lat="46.03415" lon="6.58418">
        <ele>1094</ele>
        <time>2019-06-11T12:46:33Z</time>
      </trkpt>
      <trkpt lat="46.03413" lon="6.58441">
        <ele>1096</ele>
        <time>2019-06-11T12:46:36Z</time>
      </trkpt>
      <trkpt lat="46.03408" lon="6.58457">
        <ele>1099</ele>
        <time>2019-06-11T12:46:38Z</time>
      </trkpt>
      <trkpt lat="46.03401" lon="6.58464">
        <ele>1103</ele>
        <time>2019-06-11T12:46:39Z</time>
      </trkpt>
      <trkpt lat="46.03397" lon="6.58465">
        <ele>1105</ele>
        <time>2019-06-11T12:46:40Z</time>
      </trkpt>
      <trkpt lat="46.03389" lon="6.58461">
        <ele>1108</ele>
        <time>2019-06-11T12:46:42Z</time>
      </trkpt>
      <trkpt lat="46.03383" lon="6.58454">
        <ele>1111</ele>
        <time>2019-06-11T12:46:43Z</time>
      </trkpt>
      <trkpt lat="46.03382" lon="6.58443">
        <ele>1110</ele>
        <time>2019-06-11T12:46:44Z</time>
      </trkpt>
      <trkpt lat="46.03396" lon="6.58384">
        <ele>1108</ele>
        <time>2019-06-11T12:46:52Z</time>
      </trkpt>
      <trkpt lat="46.03408" lon="6.5832">
        <ele>1114</ele>
        <time>2019-06-11T12:47:00Z</time>
      </trkpt>
      <trkpt lat="46.03433" lon="6.58207">
        <ele>1124</ele>
        <time>2019-06-11T12:47:15Z</time>
      </trkpt>
      <trkpt lat="46.03448" lon="6.58159">
        <ele>1128</ele>
        <time>2019-06-11T12:47:22Z</time>
      </trkpt>
      <trkpt lat="46.03482" lon="6.5807">
        <ele>1134</ele>
        <time>2019-06-11T12:47:34Z</time>
      </trkpt>
      <trkpt lat="46.03491" lon="6.58059">
        <ele>1134</ele>
        <time>2019-06-11T12:47:36Z</time>
      </trkpt>
      <trkpt lat="46.03499" lon="6.58056">
        <ele>1132</ele>
        <time>2019-06-11T12:47:38Z</time>
      </trkpt>
      <trkpt lat="46.03587" lon="6.58033">
        <ele>1138</ele>
        <time>2019-06-11T12:47:54Z</time>
      </trkpt>
      <trkpt lat="46.03609" lon="6.58026">
        <ele>1139</ele>
        <time>2019-06-11T12:47:58Z</time>
      </trkpt>
      <trkpt lat="46.03628" lon="6.58015">
        <ele>1141</ele>
        <time>2019-06-11T12:48:01Z</time>
      </trkpt>
      <trkpt lat="46.03648" lon="6.58">
        <ele>1145</ele>
        <time>2019-06-11T12:48:05Z</time>
      </trkpt>
      <trkpt lat="46.03673" lon="6.57978">
        <ele>1148</ele>
        <time>2019-06-11T12:48:10Z</time>
      </trkpt>
      <trkpt lat="46.03721" lon="6.57925">
        <ele>1158</ele>
        <time>2019-06-11T12:48:21Z</time>
      </trkpt>
      <trkpt lat="46.03734" lon="6.57917">
        <ele>1159</ele>
        <time>2019-06-11T12:48:24Z</time>
      </trkpt>
      <trkpt lat="46.03752" lon="6.5792">
        <ele>1156</ele>
        <time>2019-06-11T12:48:27Z</time>
      </trkpt>
      <trkpt lat="46.0376" lon="6.57918">
        <ele>1155</ele>
        <time>2019-06-11T12:48:28Z</time>
      </trkpt>
      <trkpt lat="46.03768" lon="6.57907">
        <ele>1155</ele>
        <time>2019-06-11T12:48:30Z</time>
      </trkpt>
      <trkpt lat="46.03769" lon="6.57891">
        <ele>1160</ele>
        <time>2019-06-11T12:48:32Z</time>
      </trkpt>
      <trkpt lat="46.03765" lon="6.57881">
        <ele>1163</ele>
        <time>2019-06-11T12:48:34Z</time>
      </trkpt>
      <trkpt lat="46.03763" lon="6.57877">
        <ele>1165</ele>
        <time>2019-06-11T12:48:34Z</time>
      </trkpt>
      <trkpt lat="46.03751" lon="6.57873">
        <ele>1169</ele>
        <time>2019-06-11T12:48:37Z</time>
      </trkpt>
      <trkpt lat="46.03726" lon="6.57882">
        <ele>1169</ele>
        <time>2019-06-11T12:48:41Z</time>
      </trkpt>
      <trkpt lat="46.03715" lon="6.57883">
        <ele>1170</ele>
        <time>2019-06-11T12:48:43Z</time>
      </trkpt>
      <trkpt lat="46.03583" lon="6.57875">
        <ele>1183</ele>
        <time>2019-06-11T12:49:07Z</time>
      </trkpt>
      <trkpt lat="46.0357" lon="6.57872">
        <ele>1184</ele>
        <time>2019-06-11T12:49:09Z</time>
      </trkpt>
      <trkpt lat="46.0353" lon="6.57855">
        <ele>1190</ele>
        <time>2019-06-11T12:49:16Z</time>
      </trkpt>
      <trkpt lat="46.0349" lon="6.5785">
        <ele>1193</ele>
        <time>2019-06-11T12:49:24Z</time>
      </trkpt>
      <trkpt lat="46.03468" lon="6.5784">
        <ele>1198</ele>
        <time>2019-06-11T12:49:28Z</time>
      </trkpt>
      <trkpt lat="46.03439" lon="6.57832">
        <ele>1203</ele>
        <time>2019-06-11T12:49:33Z</time>
      </trkpt>
      <trkpt lat="46.0342" lon="6.57832">
        <ele>1204</ele>
        <time>2019-06-11T12:49:36Z</time>
      </trkpt>
      <trkpt lat="46.03407" lon="6.57834">
        <ele>1205</ele>
        <time>2019-06-11T12:49:39Z</time>
      </trkpt>
      <trkpt lat="46.0338" lon="6.57848">
        <ele>1207</ele>
        <time>2019-06-11T12:49:44Z</time>
      </trkpt>
      <trkpt lat="46.0337" lon="6.57846">
        <ele>1209</ele>
        <time>2019-06-11T12:49:45Z</time>
      </trkpt>
      <trkpt lat="46.03364" lon="6.57837">
        <ele>1212</ele>
        <time>2019-06-11T12:49:47Z</time>
      </trkpt>
      <trkpt lat="46.03362" lon="6.57824">
        <ele>1215</ele>
        <time>2019-06-11T12:49:49Z</time>
      </trkpt>
      <trkpt lat="46.03363" lon="6.57814">
        <ele>1217</ele>
        <time>2019-06-11T12:49:50Z</time>
      </trkpt>
      <trkpt lat="46.03368" lon="6.57804">
        <ele>1219</ele>
        <time>2019-06-11T12:49:51Z</time>
      </trkpt>
      <trkpt lat="46.03381" lon="6.57793">
        <ele>1220</ele>
        <time>2019-06-11T12:49:54Z</time>
      </trkpt>
      <trkpt lat="46.0354" lon="6.57712">
        <ele>1235</ele>
        <time>2019-06-11T12:50:24Z</time>
      </trkpt>
      <trkpt lat="46.03609" lon="6.57669">
        <ele>1242</ele>
        <time>2019-06-11T12:50:37Z</time>
      </trkpt>
      <trkpt lat="46.03621" lon="6.57664">
        <ele>1242</ele>
        <time>2019-06-11T12:50:40Z</time>
      </trkpt>
      <trkpt lat="46.03648" lon="6.57668">
        <ele>1238</ele>
        <time>2019-06-11T12:50:45Z</time>
      </trkpt>
      <trkpt lat="46.03654" lon="6.57666">
        <ele>1238</ele>
        <time>2019-06-11T12:50:46Z</time>
      </trkpt>
      <trkpt lat="46.03663" lon="6.57657">
        <ele>1239</ele>
        <time>2019-06-11T12:50:48Z</time>
      </trkpt>
      <trkpt lat="46.03666" lon="6.57644">
        <ele>1242</ele>
        <time>2019-06-11T12:50:49Z</time>
      </trkpt>
      <trkpt lat="46.03665" lon="6.57635">
        <ele>1245</ele>
        <time>2019-06-11T12:50:50Z</time>
      </trkpt>
      <trkpt lat="46.0366" lon="6.57626">
        <ele>1248</ele>
        <time>2019-06-11T12:50:52Z</time>
      </trkpt>
      <trkpt lat="46.03652" lon="6.5762">
        <ele>1250</ele>
        <time>2019-06-11T12:50:53Z</time>
      </trkpt>
      <trkpt lat="46.0364" lon="6.57621">
        <ele>1251</ele>
        <time>2019-06-11T12:50:56Z</time>
      </trkpt>
      <trkpt lat="46.0361" lon="6.57632">
        <ele>1252</ele>
        <time>2019-06-11T12:51:01Z</time>
      </trkpt>
      <trkpt lat="46.03594" lon="6.57635">
        <ele>1253</ele>
        <time>2019-06-11T12:51:04Z</time>
      </trkpt>
      <trkpt lat="46.03568" lon="6.57636">
        <ele>1255</ele>
        <time>2019-06-11T12:51:09Z</time>
      </trkpt>
      <trkpt lat="46.03559" lon="6.57635">
        <ele>1256</ele>
        <time>2019-06-11T12:51:10Z</time>
      </trkpt>
      <trkpt lat="46.03529" lon="6.57623">
        <ele>1262</ele>
        <time>2019-06-11T12:51:16Z</time>
      </trkpt>
      <trkpt lat="46.03475" lon="6.57624">
        <ele>1264</ele>
        <time>2019-06-11T12:51:25Z</time>
      </trkpt>
      <trkpt lat="46.03457" lon="6.57622">
        <ele>1265</ele>
        <time>2019-06-11T12:51:29Z</time>
      </trkpt>
      <trkpt lat="46.03406" lon="6.57614">
        <ele>1269</ele>
        <time>2019-06-11T12:51:38Z</time>
      </trkpt>
      <trkpt lat="46.03378" lon="6.57607">
        <ele>1273</ele>
        <time>2019-06-11T12:51:43Z</time>
      </trkpt>
      <trkpt lat="46.03341" lon="6.57605">
        <ele>1275</ele>
        <time>2019-06-11T12:51:49Z</time>
      </trkpt>
      <trkpt lat="46.03305" lon="6.57594">
        <ele>1281</ele>
        <time>2019-06-11T12:51:56Z</time>
      </trkpt>
      <trkpt lat="46.03298" lon="6.57593">
        <ele>1282</ele>
        <time>2019-06-11T12:51:57Z</time>
      </trkpt>
      <trkpt lat="46.03285" lon="6.57595">
        <ele>1283</ele>
        <time>2019-06-11T12:51:59Z</time>
      </trkpt>
      <trkpt lat="46.03249" lon="6.57612">
        <ele>1284</ele>
        <time>2019-06-11T12:52:06Z</time>
      </trkpt>
      <trkpt lat="46.03242" lon="6.57616">
        <ele>1283</ele>
        <time>2019-06-11T12:52:08Z</time>
      </trkpt>
      <trkpt lat="46.03206" lon="6.57647">
        <ele>1282</ele>
        <time>2019-06-11T12:52:15Z</time>
      </trkpt>
      <trkpt lat="46.03192" lon="6.57651">
        <ele>1283</ele>
        <time>2019-06-11T12:52:18Z</time>
      </trkpt>
      <trkpt lat="46.03175" lon="6.57649">
        <ele>1284</ele>
        <time>2019-06-11T12:52:21Z</time>
      </trkpt>
      <trkpt lat="46.03133" lon="6.57634">
        <ele>1288</ele>
        <time>2019-06-11T12:52:28Z</time>
      </trkpt>
      <trkpt lat="46.03118" lon="6.57626">
        <ele>1289</ele>
        <time>2019-06-11T12:52:31Z</time>
      </trkpt>
      <trkpt lat="46.03094" lon="6.57606">
        <ele>1292</ele>
        <time>2019-06-11T12:52:36Z</time>
      </trkpt>
      <trkpt lat="46.03077" lon="6.57587">
        <ele>1293</ele>
        <time>2019-06-11T12:52:40Z</time>
      </trkpt>
      <trkpt lat="46.03046" lon="6.5754">
        <ele>1297</ele>
        <time>2019-06-11T12:52:48Z</time>
      </trkpt>
      <trkpt lat="46.03005" lon="6.5746">
        <ele>1300</ele>
        <time>2019-06-11T12:53:00Z</time>
      </trkpt>
      <trkpt lat="46.02996" lon="6.5744">
        <ele>1300</ele>
        <time>2019-06-11T12:53:03Z</time>
      </trkpt>
      <trkpt lat="46.02977" lon="6.57359">
        <ele>1299</ele>
        <time>2019-06-11T12:53:14Z</time>
      </trkpt>
      <trkpt lat="46.02956" lon="6.57281">
        <ele>1294</ele>
        <time>2019-06-11T12:53:24Z</time>
      </trkpt>
      <trkpt lat="46.02946" lon="6.57281">
        <ele>1294</ele>
        <time>2019-06-11T12:53:26Z</time>
      </trkpt>
      <trkpt lat="46.0291" lon="6.57314">
        <ele>1296</ele>
        <time>2019-06-11T12:53:33Z</time>
      </trkpt>
      <trkpt lat="46.02853" lon="6.57318">
        <ele>1296</ele>
        <time>2019-06-11T12:53:44Z</time>
      </trkpt>
      <trkpt lat="46.02827" lon="6.57326">
        <ele>1298</ele>
        <time>2019-06-11T12:53:48Z</time>
      </trkpt>
      <trkpt lat="46.02788" lon="6.57327">
        <ele>1298</ele>
        <time>2019-06-11T12:53:55Z</time>
      </trkpt>
      <trkpt lat="46.027" lon="6.57368">
        <ele>1304</ele>
        <time>2019-06-11T12:54:12Z</time>
      </trkpt>
      <trkpt lat="46.02615" lon="6.57415">
        <ele>1311</ele>
        <time>2019-06-11T12:54:28Z</time>
      </trkpt>
      <trkpt lat="46.02519" lon="6.57448">
        <ele>1314</ele>
        <time>2019-06-11T12:54:45Z</time>
      </trkpt>
      <trkpt lat="46.02396" lon="6.57445">
        <ele>1320</ele>
        <time>2019-06-11T12:55:07Z</time>
      </trkpt>
      <trkpt lat="46.02281" lon="6.57389">
        <ele>1321</ele>
        <time>2019-06-11T12:55:29Z</time>
      </trkpt>
      <trkpt lat="46.02236" lon="6.57358">
        <ele>1324</ele>
        <time>2019-06-11T12:55:38Z</time>
      </trkpt>
      <trkpt lat="46.02208" lon="6.57311">
        <ele>1324</ele>
        <time>2019-06-11T12:55:45Z</time>
      </trkpt>
      <trkpt lat="46.02188" lon="6.57224">
        <ele>1324</ele>
        <time>2019-06-11T12:55:57Z</time>
      </trkpt>
      <trkpt lat="46.02169" lon="6.56985">
        <ele>1323</ele>
        <time>2019-06-11T12:56:26Z</time>
      </trkpt>
      <trkpt lat="46.02142" lon="6.56888">
        <ele>1327</ele>
        <time>2019-06-11T12:56:39Z</time>
      </trkpt>
      <trkpt lat="46.02101" lon="6.5683">
        <ele>1339</ele>
        <time>2019-06-11T12:56:50Z</time>
      </trkpt>
      <trkpt lat="46.02094" lon="6.56755">
        <ele>1330</ele>
        <time>2019-06-11T12:56:59Z</time>
      </trkpt>
      <trkpt lat="46.02046" lon="6.56655">
        <ele>1317</ele>
        <time>2019-06-11T12:57:14Z</time>
      </trkpt>
      <trkpt lat="46.01928" lon="6.5666">
        <ele>1332</ele>
        <time>2019-06-11T12:57:35Z</time>
      </trkpt>
      <trkpt lat="46.01764" lon="6.56601">
        <ele>1329</ele>
        <time>2019-06-11T12:58:05Z</time>
      </trkpt>
      <trkpt lat="46.01642" lon="6.56439">
        <ele>1332</ele>
        <time>2019-06-11T12:58:35Z</time>
      </trkpt>
      <trkpt lat="46.01644" lon="6.56137">
        <ele>1296</ele>
        <time>2019-06-11T12:59:12Z</time>
      </trkpt>
      <trkpt lat="46.01641" lon="6.56106">
        <ele>1290</ele>
        <time>2019-06-11T12:59:16Z</time>
      </trkpt>
      <trkpt lat="46.01616" lon="6.56089">
        <ele>1291</ele>
        <time>2019-06-11T12:59:21Z</time>
      </trkpt>
      <trkpt lat="46.0155" lon="6.56072">
        <ele>1292</ele>
        <time>2019-06-11T12:59:33Z</time>
      </trkpt>
      <trkpt lat="46.01507" lon="6.56042">
        <ele>1285</ele>
        <time>2019-06-11T12:59:41Z</time>
      </trkpt>
      <trkpt lat="46.01478" lon="6.5604">
        <ele>1289</ele>
        <time>2019-06-11T12:59:46Z</time>
      </trkpt>
      <trkpt lat="46.01467" lon="6.5603">
        <ele>1287</ele>
        <time>2019-06-11T12:59:49Z</time>
      </trkpt>
      <trkpt lat="46.01454" lon="6.55978">
        <ele>1275</ele>
        <time>2019-06-11T12:59:55Z</time>
      </trkpt>
      <trkpt lat="46.01448" lon="6.55967">
        <ele>1273</ele>
        <time>2019-06-11T12:59:57Z</time>
      </trkpt>
      <trkpt lat="46.01437" lon="6.55961">
        <ele>1273</ele>
        <time>2019-06-11T12:59:59Z</time>
      </trkpt>
      <trkpt lat="46.01393" lon="6.55963">
        <ele>1282</ele>
        <time>2019-06-11T13:00:07Z</time>
      </trkpt>
      <trkpt lat="46.01384" lon="6.55955">
        <ele>1282</ele>
        <time>2019-06-11T13:00:09Z</time>
      </trkpt>
      <trkpt lat="46.01377" lon="6.55942">
        <ele>1280</ele>
        <time>2019-06-11T13:00:11Z</time>
      </trkpt>
      <trkpt lat="46.01367" lon="6.5591">
        <ele>1276</ele>
        <time>2019-06-11T13:00:15Z</time>
      </trkpt>
      <trkpt lat="46.01362" lon="6.55876">
        <ele>1275</ele>
        <time>2019-06-11T13:00:20Z</time>
      </trkpt>
      <trkpt lat="46.01366" lon="6.5585">
        <ele>1272</ele>
        <time>2019-06-11T13:00:23Z</time>
      </trkpt>
      <trkpt lat="46.01387" lon="6.55823">
        <ele>1265</ele>
        <time>2019-06-11T13:00:28Z</time>
      </trkpt>
      <trkpt lat="46.01402" lon="6.55807">
        <ele>1262</ele>
        <time>2019-06-11T13:00:31Z</time>
      </trkpt>
      <trkpt lat="46.01417" lon="6.55774">
        <ele>1263</ele>
        <time>2019-06-11T13:00:36Z</time>
      </trkpt>
      <trkpt lat="46.01427" lon="6.55768">
        <ele>1259</ele>
        <time>2019-06-11T13:00:38Z</time>
      </trkpt>
      <trkpt lat="46.01436" lon="6.55769">
        <ele>1254</ele>
        <time>2019-06-11T13:00:40Z</time>
      </trkpt>
      <trkpt lat="46.01444" lon="6.5578">
        <ele>1249</ele>
        <time>2019-06-11T13:00:42Z</time>
      </trkpt>
      <trkpt lat="46.01441" lon="6.55796">
        <ele>1250</ele>
        <time>2019-06-11T13:00:44Z</time>
      </trkpt>
      <trkpt lat="46.01419" lon="6.55847">
        <ele>1254</ele>
        <time>2019-06-11T13:00:51Z</time>
      </trkpt>
      <trkpt lat="46.0142" lon="6.55866">
        <ele>1257</ele>
        <time>2019-06-11T13:00:53Z</time>
      </trkpt>
      <trkpt lat="46.01431" lon="6.55878">
        <ele>1256</ele>
        <time>2019-06-11T13:00:56Z</time>
      </trkpt>
      <trkpt lat="46.01476" lon="6.55898">
        <ele>1250</ele>
        <time>2019-06-11T13:01:04Z</time>
      </trkpt>
      <trkpt lat="46.0149" lon="6.55892">
        <ele>1247</ele>
        <time>2019-06-11T13:01:07Z</time>
      </trkpt>
      <trkpt lat="46.01493" lon="6.55879">
        <ele>1243</ele>
        <time>2019-06-11T13:01:09Z</time>
      </trkpt>
      <trkpt lat="46.01492" lon="6.55871">
        <ele>1242</ele>
        <time>2019-06-11T13:01:10Z</time>
      </trkpt>
      <trkpt lat="46.01489" lon="6.55863">
        <ele>1241</ele>
        <time>2019-06-11T13:01:11Z</time>
      </trkpt>
      <trkpt lat="46.01468" lon="6.55851">
        <ele>1243</ele>
        <time>2019-06-11T13:01:15Z</time>
      </trkpt>
      <trkpt lat="46.01461" lon="6.55839">
        <ele>1243</ele>
        <time>2019-06-11T13:01:17Z</time>
      </trkpt>
      <trkpt lat="46.01459" lon="6.55822">
        <ele>1242</ele>
        <time>2019-06-11T13:01:19Z</time>
      </trkpt>
      <trkpt lat="46.0147" lon="6.5577">
        <ele>1237</ele>
        <time>2019-06-11T13:01:26Z</time>
      </trkpt>
      <trkpt lat="46.01473" lon="6.55723">
        <ele>1233</ele>
        <time>2019-06-11T13:01:31Z</time>
      </trkpt>
      <trkpt lat="46.01468" lon="6.55661">
        <ele>1233</ele>
        <time>2019-06-11T13:01:39Z</time>
      </trkpt>
      <trkpt lat="46.01454" lon="6.55576">
        <ele>1236</ele>
        <time>2019-06-11T13:01:50Z</time>
      </trkpt>
      <trkpt lat="46.01451" lon="6.55525">
        <ele>1230</ele>
        <time>2019-06-11T13:01:56Z</time>
      </trkpt>
      <trkpt lat="46.01458" lon="6.5548">
        <ele>1219</ele>
        <time>2019-06-11T13:02:02Z</time>
      </trkpt>
      <trkpt lat="46.01474" lon="6.55425">
        <ele>1203</ele>
        <time>2019-06-11T13:02:09Z</time>
      </trkpt>
      <trkpt lat="46.01483" lon="6.55416">
        <ele>1198</ele>
        <time>2019-06-11T13:02:11Z</time>
      </trkpt>
      <trkpt lat="46.01499" lon="6.55423">
        <ele>1192</ele>
        <time>2019-06-11T13:02:14Z</time>
      </trkpt>
      <trkpt lat="46.01502" lon="6.55439">
        <ele>1193</ele>
        <time>2019-06-11T13:02:16Z</time>
      </trkpt>
      <trkpt lat="46.01487" lon="6.55483">
        <ele>1206</ele>
        <time>2019-06-11T13:02:22Z</time>
      </trkpt>
      <trkpt lat="46.01485" lon="6.555">
        <ele>1209</ele>
        <time>2019-06-11T13:02:24Z</time>
      </trkpt>
      <trkpt lat="46.01489" lon="6.55515">
        <ele>1208</ele>
        <time>2019-06-11T13:02:26Z</time>
      </trkpt>
      <trkpt lat="46.01497" lon="6.55517">
        <ele>1204</ele>
        <time>2019-06-11T13:02:28Z</time>
      </trkpt>
      <trkpt lat="46.01506" lon="6.55511">
        <ele>1199</ele>
        <time>2019-06-11T13:02:30Z</time>
      </trkpt>
      <trkpt lat="46.01514" lon="6.55494">
        <ele>1193</ele>
        <time>2019-06-11T13:02:32Z</time>
      </trkpt>
      <trkpt lat="46.01521" lon="6.55461">
        <ele>1184</ele>
        <time>2019-06-11T13:02:36Z</time>
      </trkpt>
      <trkpt lat="46.01522" lon="6.55427">
        <ele>1180</ele>
        <time>2019-06-11T13:02:41Z</time>
      </trkpt>
      <trkpt lat="46.01521" lon="6.55411">
        <ele>1178</ele>
        <time>2019-06-11T13:02:43Z</time>
      </trkpt>
      <trkpt lat="46.01514" lon="6.55397">
        <ele>1181</ele>
        <time>2019-06-11T13:02:45Z</time>
      </trkpt>
      <trkpt lat="46.01494" lon="6.5538">
        <ele>1189</ele>
        <time>2019-06-11T13:02:49Z</time>
      </trkpt>
      <trkpt lat="46.01474" lon="6.55344">
        <ele>1190</ele>
        <time>2019-06-11T13:02:55Z</time>
      </trkpt>
      <trkpt lat="46.01453" lon="6.55286">
        <ele>1178</ele>
        <time>2019-06-11T13:03:03Z</time>
      </trkpt>
      <trkpt lat="46.01439" lon="6.55269">
        <ele>1175</ele>
        <time>2019-06-11T13:03:06Z</time>
      </trkpt>
      <trkpt lat="46.0143" lon="6.55265">
        <ele>1176</ele>
        <time>2019-06-11T13:03:08Z</time>
      </trkpt>
      <trkpt lat="46.01404" lon="6.55261">
        <ele>1178</ele>
        <time>2019-06-11T13:03:12Z</time>
      </trkpt>
      <trkpt lat="46.01392" lon="6.55257">
        <ele>1177</ele>
        <time>2019-06-11T13:03:14Z</time>
      </trkpt>
      <trkpt lat="46.0138" lon="6.55249">
        <ele>1176</ele>
        <time>2019-06-11T13:03:17Z</time>
      </trkpt>
      <trkpt lat="46.01368" lon="6.55233">
        <ele>1173</ele>
        <time>2019-06-11T13:03:20Z</time>
      </trkpt>
      <trkpt lat="46.01329" lon="6.55154">
        <ele>1168</ele>
        <time>2019-06-11T13:03:32Z</time>
      </trkpt>
      <trkpt lat="46.01323" lon="6.55134">
        <ele>1168</ele>
        <time>2019-06-11T13:03:34Z</time>
      </trkpt>
      <trkpt lat="46.01324" lon="6.5512">
        <ele>1168</ele>
        <time>2019-06-11T13:03:36Z</time>
      </trkpt>
      <trkpt lat="46.01348" lon="6.55061">
        <ele>1160</ele>
        <time>2019-06-11T13:03:45Z</time>
      </trkpt>
      <trkpt lat="46.01366" lon="6.54968">
        <ele>1150</ele>
        <time>2019-06-11T13:03:56Z</time>
      </trkpt>
      <trkpt lat="46.01406" lon="6.54831">
        <ele>1133</ele>
        <time>2019-06-11T13:04:15Z</time>
      </trkpt>
      <trkpt lat="46.01404" lon="6.54798">
        <ele>1129</ele>
        <time>2019-06-11T13:04:19Z</time>
      </trkpt>
      <trkpt lat="46.01394" lon="6.54765">
        <ele>1127</ele>
        <time>2019-06-11T13:04:23Z</time>
      </trkpt>
      <trkpt lat="46.01385" lon="6.5475">
        <ele>1127</ele>
        <time>2019-06-11T13:04:26Z</time>
      </trkpt>
      <trkpt lat="46.01371" lon="6.54738">
        <ele>1128</ele>
        <time>2019-06-11T13:04:29Z</time>
      </trkpt>
      <trkpt lat="46.01357" lon="6.54735">
        <ele>1131</ele>
        <time>2019-06-11T13:04:31Z</time>
      </trkpt>
      <trkpt lat="46.01326" lon="6.54744">
        <ele>1140</ele>
        <time>2019-06-11T13:04:37Z</time>
      </trkpt>
      <trkpt lat="46.01316" lon="6.54733">
        <ele>1142</ele>
        <time>2019-06-11T13:04:39Z</time>
      </trkpt>
      <trkpt lat="46.01312" lon="6.54714">
        <ele>1141</ele>
        <time>2019-06-11T13:04:42Z</time>
      </trkpt>
      <trkpt lat="46.01316" lon="6.54692">
        <ele>1137</ele>
        <time>2019-06-11T13:04:44Z</time>
      </trkpt>
      <trkpt lat="46.01325" lon="6.54667">
        <ele>1129</ele>
        <time>2019-06-11T13:04:48Z</time>
      </trkpt>
      <trkpt lat="46.01337" lon="6.5463">
        <ele>1123</ele>
        <time>2019-06-11T13:04:53Z</time>
      </trkpt>
      <trkpt lat="46.01335" lon="6.54574">
        <ele>1123</ele>
        <time>2019-06-11T13:05:00Z</time>
      </trkpt>
      <trkpt lat="46.01337" lon="6.54529">
        <ele>1120</ele>
        <time>2019-06-11T13:05:05Z</time>
      </trkpt>
      <trkpt lat="46.01316" lon="6.54445">
        <ele>1117</ele>
        <time>2019-06-11T13:05:16Z</time>
      </trkpt>
      <trkpt lat="46.01281" lon="6.54354">
        <ele>1109</ele>
        <time>2019-06-11T13:05:29Z</time>
      </trkpt>
      <trkpt lat="46.01251" lon="6.54314">
        <ele>1107</ele>
        <time>2019-06-11T13:05:37Z</time>
      </trkpt>
      <trkpt lat="46.01238" lon="6.54274">
        <ele>1102</ele>
        <time>2019-06-11T13:05:42Z</time>
      </trkpt>
      <trkpt lat="46.01221" lon="6.54245">
        <ele>1098</ele>
        <time>2019-06-11T13:05:47Z</time>
      </trkpt>
      <trkpt lat="46.01201" lon="6.5423">
        <ele>1098</ele>
        <time>2019-06-11T13:05:51Z</time>
      </trkpt>
      <trkpt lat="46.01175" lon="6.54225">
        <ele>1102</ele>
        <time>2019-06-11T13:05:55Z</time>
      </trkpt>
      <trkpt lat="46.01164" lon="6.54218">
        <ele>1101</ele>
        <time>2019-06-11T13:05:58Z</time>
      </trkpt>
      <trkpt lat="46.01158" lon="6.54207">
        <ele>1096</ele>
        <time>2019-06-11T13:05:59Z</time>
      </trkpt>
      <trkpt lat="46.0116" lon="6.54192">
        <ele>1089</ele>
        <time>2019-06-11T13:06:01Z</time>
      </trkpt>
      <trkpt lat="46.01168" lon="6.54186">
        <ele>1086</ele>
        <time>2019-06-11T13:06:03Z</time>
      </trkpt>
      <trkpt lat="46.01178" lon="6.54184">
        <ele>1083</ele>
        <time>2019-06-11T13:06:05Z</time>
      </trkpt>
      <trkpt lat="46.01229" lon="6.54204">
        <ele>1082</ele>
        <time>2019-06-11T13:06:14Z</time>
      </trkpt>
      <trkpt lat="46.01267" lon="6.54216">
        <ele>1078</ele>
        <time>2019-06-11T13:06:21Z</time>
      </trkpt>
      <trkpt lat="46.01302" lon="6.54214">
        <ele>1072</ele>
        <time>2019-06-11T13:06:27Z</time>
      </trkpt>
      <trkpt lat="46.01313" lon="6.54214">
        <ele>1070</ele>
        <time>2019-06-11T13:06:29Z</time>
      </trkpt>
      <trkpt lat="46.01319" lon="6.54216">
        <ele>1069</ele>
        <time>2019-06-11T13:06:30Z</time>
      </trkpt>
      <trkpt lat="46.01327" lon="6.54224">
        <ele>1070</ele>
        <time>2019-06-11T13:06:32Z</time>
      </trkpt>
      <trkpt lat="46.01339" lon="6.54247">
        <ele>1073</ele>
        <time>2019-06-11T13:06:35Z</time>
      </trkpt>
      <trkpt lat="46.01346" lon="6.54255">
        <ele>1073</ele>
        <time>2019-06-11T13:06:37Z</time>
      </trkpt>
      <trkpt lat="46.01374" lon="6.54281">
        <ele>1071</ele>
        <time>2019-06-11T13:06:43Z</time>
      </trkpt>
      <trkpt lat="46.01434" lon="6.54349">
        <ele>1069</ele>
        <time>2019-06-11T13:06:57Z</time>
      </trkpt>
      <trkpt lat="46.01455" lon="6.54363">
        <ele>1065</ele>
        <time>2019-06-11T13:07:01Z</time>
      </trkpt>
      <trkpt lat="46.01494" lon="6.54366">
        <ele>1053</ele>
        <time>2019-06-11T13:07:08Z</time>
      </trkpt>
      <trkpt lat="46.01506" lon="6.54369">
        <ele>1049</ele>
        <time>2019-06-11T13:07:10Z</time>
      </trkpt>
      <trkpt lat="46.0152" lon="6.54378">
        <ele>1046</ele>
        <time>2019-06-11T13:07:13Z</time>
      </trkpt>
      <trkpt lat="46.0155" lon="6.54405">
        <ele>1039</ele>
        <time>2019-06-11T13:07:19Z</time>
      </trkpt>
      <trkpt lat="46.0156" lon="6.54419">
        <ele>1037</ele>
        <time>2019-06-11T13:07:21Z</time>
      </trkpt>
      <trkpt lat="46.01571" lon="6.54442">
        <ele>1035</ele>
        <time>2019-06-11T13:07:25Z</time>
      </trkpt>
      <trkpt lat="46.01606" lon="6.54556">
        <ele>1040</ele>
        <time>2019-06-11T13:07:40Z</time>
      </trkpt>
      <trkpt lat="46.01612" lon="6.54564">
        <ele>1040</ele>
        <time>2019-06-11T13:07:42Z</time>
      </trkpt>
      <trkpt lat="46.01619" lon="6.54567">
        <ele>1039</ele>
        <time>2019-06-11T13:07:43Z</time>
      </trkpt>
      <trkpt lat="46.01626" lon="6.54567">
        <ele>1038</ele>
        <time>2019-06-11T13:07:44Z</time>
      </trkpt>
      <trkpt lat="46.01632" lon="6.54563">
        <ele>1037</ele>
        <time>2019-06-11T13:07:45Z</time>
      </trkpt>
      <trkpt lat="46.01637" lon="6.54552">
        <ele>1034</ele>
        <time>2019-06-11T13:07:47Z</time>
      </trkpt>
      <trkpt lat="46.01636" lon="6.54535">
        <ele>1031</ele>
        <time>2019-06-11T13:07:49Z</time>
      </trkpt>
      <trkpt lat="46.01624" lon="6.545">
        <ele>1028</ele>
        <time>2019-06-11T13:07:54Z</time>
      </trkpt>
      <trkpt lat="46.01621" lon="6.54483">
        <ele>1026</ele>
        <time>2019-06-11T13:07:56Z</time>
      </trkpt>
      <trkpt lat="46.01592" lon="6.54312">
        <ele>1011</ele>
        <time>2019-06-11T13:08:18Z</time>
      </trkpt>
      <trkpt lat="46.01585" lon="6.54291">
        <ele>1009</ele>
        <time>2019-06-11T13:08:21Z</time>
      </trkpt>
      <trkpt lat="46.01578" lon="6.5428">
        <ele>1009</ele>
        <time>2019-06-11T13:08:23Z</time>
      </trkpt>
      <trkpt lat="46.01534" lon="6.54236">
        <ele>1013</ele>
        <time>2019-06-11T13:08:32Z</time>
      </trkpt>
      <trkpt lat="46.01525" lon="6.54222">
        <ele>1013</ele>
        <time>2019-06-11T13:08:34Z</time>
      </trkpt>
      <trkpt lat="46.01511" lon="6.54197">
        <ele>1011</ele>
        <time>2019-06-11T13:08:38Z</time>
      </trkpt>
      <trkpt lat="46.01489" lon="6.54146">
        <ele>1006</ele>
        <time>2019-06-11T13:08:46Z</time>
      </trkpt>
      <trkpt lat="46.01485" lon="6.54135">
        <ele>1005</ele>
        <time>2019-06-11T13:08:47Z</time>
      </trkpt>
      <trkpt lat="46.01483" lon="6.54118">
        <ele>1003</ele>
        <time>2019-06-11T13:08:49Z</time>
      </trkpt>
      <trkpt lat="46.01485" lon="6.54063">
        <ele>995</ele>
        <time>2019-06-11T13:08:56Z</time>
      </trkpt>
      <trkpt lat="46.01484" lon="6.54051">
        <ele>994</ele>
        <time>2019-06-11T13:08:58Z</time>
      </trkpt>
      <trkpt lat="46.0148" lon="6.54041">
        <ele>992</ele>
        <time>2019-06-11T13:08:59Z</time>
      </trkpt>
      <trkpt lat="46.01475" lon="6.54032">
        <ele>992</ele>
        <time>2019-06-11T13:09:01Z</time>
      </trkpt>
      <trkpt lat="46.01409" lon="6.53953">
        <ele>986</ele>
        <time>2019-06-11T13:09:16Z</time>
      </trkpt>
      <trkpt lat="46.01391" lon="6.53937">
        <ele>985</ele>
        <time>2019-06-11T13:09:20Z</time>
      </trkpt>
      <trkpt lat="46.01354" lon="6.53911">
        <ele>983</ele>
        <time>2019-06-11T13:09:27Z</time>
      </trkpt>
      <trkpt lat="46.01316" lon="6.53875">
        <ele>979</ele>
        <time>2019-06-11T13:09:35Z</time>
      </trkpt>
      <trkpt lat="46.01306" lon="6.53867">
        <ele>978</ele>
        <time>2019-06-11T13:09:37Z</time>
      </trkpt>
      <trkpt lat="46.01254" lon="6.53855">
        <ele>978</ele>
        <time>2019-06-11T13:09:46Z</time>
      </trkpt>
      <trkpt lat="46.01246" lon="6.53851">
        <ele>978</ele>
        <time>2019-06-11T13:09:48Z</time>
      </trkpt>
      <trkpt lat="46.01235" lon="6.53836">
        <ele>975</ele>
        <time>2019-06-11T13:09:51Z</time>
      </trkpt>
      <trkpt lat="46.01231" lon="6.53822">
        <ele>975</ele>
        <time>2019-06-11T13:09:53Z</time>
      </trkpt>
      <trkpt lat="46.01223" lon="6.53768">
        <ele>973</ele>
        <time>2019-06-11T13:09:59Z</time>
      </trkpt>
      <trkpt lat="46.01222" lon="6.53745">
        <ele>973</ele>
        <time>2019-06-11T13:10:02Z</time>
      </trkpt>
      <trkpt lat="46.01296" lon="6.53773">
        <ele>970</ele>
        <time>2019-06-11T13:10:16Z</time>
      </trkpt>
      <trkpt lat="46.01345" lon="6.53802">
        <ele>969</ele>
        <time>2019-06-11T13:10:25Z</time>
      </trkpt>
      <trkpt lat="46.01463" lon="6.53879">
        <ele>969</ele>
        <time>2019-06-11T13:10:48Z</time>
      </trkpt>
      <trkpt lat="46.01541" lon="6.53938">
        <ele>966</ele>
        <time>2019-06-11T13:11:04Z</time>
      </trkpt>
      <trkpt lat="46.01655" lon="6.54035">
        <ele>962</ele>
        <time>2019-06-11T13:11:28Z</time>
      </trkpt>
      <trkpt lat="46.01723" lon="6.54096">
        <ele>964</ele>
        <time>2019-06-11T13:11:42Z</time>
      </trkpt>
      <trkpt lat="46.01773" lon="6.54184">
        <ele>969</ele>
        <time>2019-06-11T13:11:56Z</time>
      </trkpt>
      <trkpt lat="46.01791" lon="6.54229">
        <ele>973</ele>
        <time>2019-06-11T13:12:02Z</time>
      </trkpt>
      <trkpt lat="46.01843" lon="6.54282">
        <ele>974</ele>
        <time>2019-06-11T13:12:14Z</time>
      </trkpt>
      <trkpt lat="46.0186" lon="6.54309">
        <ele>977</ele>
        <time>2019-06-11T13:12:18Z</time>
      </trkpt>
      <trkpt lat="46.01865" lon="6.5437">
        <ele>976</ele>
        <time>2019-06-11T13:12:26Z</time>
      </trkpt>
      <trkpt lat="46.01877" lon="6.54396">
        <ele>977</ele>
        <time>2019-06-11T13:12:30Z</time>
      </trkpt>
      <trkpt lat="46.01916" lon="6.5443">
        <ele>977</ele>
        <time>2019-06-11T13:12:38Z</time>
      </trkpt>
      <trkpt lat="46.02005" lon="6.5467">
        <ele>966</ele>
        <time>2019-06-11T13:13:11Z</time>
      </trkpt>
      <trkpt lat="46.02004" lon="6.54735">
        <ele>961</ele>
        <time>2019-06-11T13:13:19Z</time>
      </trkpt>
      <trkpt lat="46.02046" lon="6.54893">
        <ele>957</ele>
        <time>2019-06-11T13:13:40Z</time>
      </trkpt>
      <trkpt lat="46.02054" lon="6.54966">
        <ele>947</ele>
        <time>2019-06-11T13:13:49Z</time>
      </trkpt>
      <trkpt lat="46.02116" lon="6.55136">
        <ele>934</ele>
        <time>2019-06-11T13:14:13Z</time>
      </trkpt>
      <trkpt lat="46.02225" lon="6.55322">
        <ele>933</ele>
        <time>2019-06-11T13:14:43Z</time>
      </trkpt>
      <trkpt lat="46.02288" lon="6.55335">
        <ele>945</ele>
        <time>2019-06-11T13:14:54Z</time>
      </trkpt>
      <trkpt lat="46.02371" lon="6.55447">
        <ele>938</ele>
        <time>2019-06-11T13:15:15Z</time>
      </trkpt>
      <trkpt lat="46.02394" lon="6.55484">
        <ele>936</ele>
        <time>2019-06-11T13:15:21Z</time>
      </trkpt>
      <trkpt lat="46.02476" lon="6.55578">
        <ele>930</ele>
        <time>2019-06-11T13:15:39Z</time>
      </trkpt>
      <trkpt lat="46.02494" lon="6.55602">
        <ele>926</ele>
        <time>2019-06-11T13:15:44Z</time>
      </trkpt>
      <trkpt lat="46.02504" lon="6.55621">
        <ele>924</ele>
        <time>2019-06-11T13:15:47Z</time>
      </trkpt>
      <trkpt lat="46.02528" lon="6.55671">
        <ele>919</ele>
        <time>2019-06-11T13:15:54Z</time>
      </trkpt>
      <trkpt lat="46.02556" lon="6.55717">
        <ele>920</ele>
        <time>2019-06-11T13:16:02Z</time>
      </trkpt>
      <trkpt lat="46.02587" lon="6.55751">
        <ele>921</ele>
        <time>2019-06-11T13:16:09Z</time>
      </trkpt>
      <trkpt lat="46.02607" lon="6.55766">
        <ele>922</ele>
        <time>2019-06-11T13:16:13Z</time>
      </trkpt>
      <trkpt lat="46.02621" lon="6.55774">
        <ele>922</ele>
        <time>2019-06-11T13:16:15Z</time>
      </trkpt>
      <trkpt lat="46.02734" lon="6.55831">
        <ele>918</ele>
        <time>2019-06-11T13:16:37Z</time>
      </trkpt>
      <trkpt lat="46.02752" lon="6.55835">
        <ele>919</ele>
        <time>2019-06-11T13:16:40Z</time>
      </trkpt>
      <trkpt lat="46.0277" lon="6.55827">
        <ele>919</ele>
        <time>2019-06-11T13:16:43Z</time>
      </trkpt>
      <trkpt lat="46.02777" lon="6.55819">
        <ele>920</ele>
        <time>2019-06-11T13:16:45Z</time>
      </trkpt>
      <trkpt lat="46.02783" lon="6.55808">
        <ele>920</ele>
        <time>2019-06-11T13:16:47Z</time>
      </trkpt>
      <trkpt lat="46.02798" lon="6.55772">
        <ele>920</ele>
        <time>2019-06-11T13:16:52Z</time>
      </trkpt>
      <trkpt lat="46.02805" lon="6.55763">
        <ele>919</ele>
        <time>2019-06-11T13:16:54Z</time>
      </trkpt>
      <trkpt lat="46.02814" lon="6.55755">
        <ele>918</ele>
        <time>2019-06-11T13:16:55Z</time>
      </trkpt>
      <trkpt lat="46.02928" lon="6.55698">
        <ele>915</ele>
        <time>2019-06-11T13:17:17Z</time>
      </trkpt>
      <trkpt lat="46.02983" lon="6.557">
        <ele>902</ele>
        <time>2019-06-11T13:17:27Z</time>
      </trkpt>
      <trkpt lat="46.03213" lon="6.55618">
        <ele>877</ele>
        <time>2019-06-11T13:18:09Z</time>
      </trkpt>
      <trkpt lat="46.03243" lon="6.55596">
        <ele>875</ele>
        <time>2019-06-11T13:18:15Z</time>
      </trkpt>
      <trkpt lat="46.03285" lon="6.55538">
        <ele>881</ele>
        <time>2019-06-11T13:18:25Z</time>
      </trkpt>
      <trkpt lat="46.03342" lon="6.555">
        <ele>864</ele>
        <time>2019-06-11T13:18:36Z</time>
      </trkpt>
      <trkpt lat="46.03388" lon="6.55449">
        <ele>864</ele>
        <time>2019-06-11T13:18:47Z</time>
      </trkpt>
      <trkpt lat="46.03431" lon="6.55389">
        <ele>862</ele>
        <time>2019-06-11T13:18:57Z</time>
      </trkpt>
      <trkpt lat="46.03452" lon="6.5534">
        <ele>861</ele>
        <time>2019-06-11T13:19:04Z</time>
      </trkpt>
      <trkpt lat="46.03485" lon="6.55299">
        <ele>853</ele>
        <time>2019-06-11T13:19:12Z</time>
      </trkpt>
      <trkpt lat="46.03504" lon="6.55251">
        <ele>854</ele>
        <time>2019-06-11T13:19:19Z</time>
      </trkpt>
      <trkpt lat="46.0353" lon="6.55212">
        <ele>847</ele>
        <time>2019-06-11T13:19:26Z</time>
      </trkpt>
      <trkpt lat="46.03534" lon="6.55159">
        <ele>861</ele>
        <time>2019-06-11T13:19:32Z</time>
      </trkpt>
      <trkpt lat="46.03552" lon="6.55135">
        <ele>857</ele>
        <time>2019-06-11T13:19:37Z</time>
      </trkpt>
      <trkpt lat="46.0361" lon="6.55119">
        <ele>836</ele>
        <time>2019-06-11T13:19:47Z</time>
      </trkpt>
      <trkpt lat="46.03663" lon="6.55066">
        <ele>842</ele>
        <time>2019-06-11T13:19:59Z</time>
      </trkpt>
      <trkpt lat="46.03737" lon="6.55057">
        <ele>818</ele>
        <time>2019-06-11T13:20:12Z</time>
      </trkpt>
      <trkpt lat="46.03763" lon="6.55022">
        <ele>823</ele>
        <time>2019-06-11T13:20:18Z</time>
      </trkpt>
      <trkpt lat="46.03824" lon="6.54983">
        <ele>810</ele>
        <time>2019-06-11T13:20:30Z</time>
      </trkpt>
      <trkpt lat="46.03874" lon="6.54922">
        <ele>814</ele>
        <time>2019-06-11T13:20:42Z</time>
      </trkpt>
      <trkpt lat="46.0395" lon="6.54865">
        <ele>801</ele>
        <time>2019-06-11T13:20:57Z</time>
      </trkpt>
      <trkpt lat="46.03979" lon="6.5483">
        <ele>798</ele>
        <time>2019-06-11T13:21:04Z</time>
      </trkpt>
      <trkpt lat="46.03993" lon="6.54778">
        <ele>806</ele>
        <time>2019-06-11T13:21:11Z</time>
      </trkpt>
      <trkpt lat="46.04014" lon="6.54736">
        <ele>808</ele>
        <time>2019-06-11T13:21:17Z</time>
      </trkpt>
      <trkpt lat="46.04064" lon="6.54705">
        <ele>793</ele>
        <time>2019-06-11T13:21:27Z</time>
      </trkpt>
      <trkpt lat="46.04107" lon="6.54658">
        <ele>792</ele>
        <time>2019-06-11T13:21:36Z</time>
      </trkpt>
      <trkpt lat="46.04146" lon="6.54658">
        <ele>779</ele>
        <time>2019-06-11T13:21:43Z</time>
      </trkpt>
      <trkpt lat="46.04195" lon="6.54596">
        <ele>783</ele>
        <time>2019-06-11T13:21:55Z</time>
      </trkpt>
      <trkpt lat="46.04205" lon="6.54592">
        <ele>782</ele>
        <time>2019-06-11T13:21:57Z</time>
      </trkpt>
      <trkpt lat="46.04212" lon="6.54593">
        <ele>780</ele>
        <time>2019-06-11T13:21:58Z</time>
      </trkpt>
      <trkpt lat="46.04234" lon="6.54603">
        <ele>773</ele>
        <time>2019-06-11T13:22:02Z</time>
      </trkpt>
      <trkpt lat="46.04246" lon="6.54606">
        <ele>769</ele>
        <time>2019-06-11T13:22:04Z</time>
      </trkpt>
      <trkpt lat="46.04257" lon="6.54605">
        <ele>767</ele>
        <time>2019-06-11T13:22:06Z</time>
      </trkpt>
      <trkpt lat="46.04268" lon="6.54601">
        <ele>764</ele>
        <time>2019-06-11T13:22:08Z</time>
      </trkpt>
      <trkpt lat="46.04282" lon="6.54586">
        <ele>764</ele>
        <time>2019-06-11T13:22:11Z</time>
      </trkpt>
      <trkpt lat="46.04287" lon="6.54575">
        <ele>766</ele>
        <time>2019-06-11T13:22:13Z</time>
      </trkpt>
      <trkpt lat="46.04294" lon="6.5452">
        <ele>779</ele>
        <time>2019-06-11T13:22:20Z</time>
      </trkpt>
      <trkpt lat="46.043" lon="6.5451">
        <ele>779</ele>
        <time>2019-06-11T13:22:21Z</time>
      </trkpt>
      <trkpt lat="46.04312" lon="6.545">
        <ele>778</ele>
        <time>2019-06-11T13:22:24Z</time>
      </trkpt>
      <trkpt lat="46.04322" lon="6.54496">
        <ele>775</ele>
        <time>2019-06-11T13:22:26Z</time>
      </trkpt>
      <trkpt lat="46.04334" lon="6.54499">
        <ele>770</ele>
        <time>2019-06-11T13:22:28Z</time>
      </trkpt>
      <trkpt lat="46.04364" lon="6.5452">
        <ele>758</ele>
        <time>2019-06-11T13:22:34Z</time>
      </trkpt>
      <trkpt lat="46.04376" lon="6.54526">
        <ele>755</ele>
        <time>2019-06-11T13:22:36Z</time>
      </trkpt>
      <trkpt lat="46.04384" lon="6.54525">
        <ele>753</ele>
        <time>2019-06-11T13:22:38Z</time>
      </trkpt>
      <trkpt lat="46.04392" lon="6.54523">
        <ele>752</ele>
        <time>2019-06-11T13:22:39Z</time>
      </trkpt>
      <trkpt lat="46.04399" lon="6.54516">
        <ele>752</ele>
        <time>2019-06-11T13:22:41Z</time>
      </trkpt>
      <trkpt lat="46.04483" lon="6.54412">
        <ele>738</ele>
        <time>2019-06-11T13:23:00Z</time>
      </trkpt>
      <trkpt lat="46.04671" lon="6.54292">
        <ele>717</ele>
        <time>2019-06-11T13:23:37Z</time>
      </trkpt>
      <trkpt lat="46.04684" lon="6.54282">
        <ele>716</ele>
        <time>2019-06-11T13:23:39Z</time>
      </trkpt>
      <trkpt lat="46.04693" lon="6.5427">
        <ele>715</ele>
        <time>2019-06-11T13:23:42Z</time>
      </trkpt>
      <trkpt lat="46.04722" lon="6.54213">
        <ele>713</ele>
        <time>2019-06-11T13:23:50Z</time>
      </trkpt>
      <trkpt lat="46.04729" lon="6.5419">
        <ele>711</ele>
        <time>2019-06-11T13:23:53Z</time>
      </trkpt>
      <trkpt lat="46.04732" lon="6.54169">
        <ele>710</ele>
        <time>2019-06-11T13:23:56Z</time>
      </trkpt>
      <trkpt lat="46.0473" lon="6.54149">
        <ele>710</ele>
        <time>2019-06-11T13:23:59Z</time>
      </trkpt>
      <trkpt lat="46.04717" lon="6.54096">
        <ele>714</ele>
        <time>2019-06-11T13:24:06Z</time>
      </trkpt>
      <trkpt lat="46.04716" lon="6.54088">
        <ele>715</ele>
        <time>2019-06-11T13:24:07Z</time>
      </trkpt>
      <trkpt lat="46.04718" lon="6.54077">
        <ele>715</ele>
        <time>2019-06-11T13:24:08Z</time>
      </trkpt>
      <trkpt lat="46.04723" lon="6.54067">
        <ele>714</ele>
        <time>2019-06-11T13:24:09Z</time>
      </trkpt>
      <trkpt lat="46.04746" lon="6.54037">
        <ele>709</ele>
        <time>2019-06-11T13:24:15Z</time>
      </trkpt>
      <trkpt lat="46.04761" lon="6.54003">
        <ele>707</ele>
        <time>2019-06-11T13:24:20Z</time>
      </trkpt>
      <trkpt lat="46.04774" lon="6.53984">
        <ele>704</ele>
        <time>2019-06-11T13:24:23Z</time>
      </trkpt>
      <trkpt lat="46.04793" lon="6.53966">
        <ele>699</ele>
        <time>2019-06-11T13:24:27Z</time>
      </trkpt>
      <trkpt lat="46.04803" lon="6.53952">
        <ele>697</ele>
        <time>2019-06-11T13:24:30Z</time>
      </trkpt>
      <trkpt lat="46.04818" lon="6.53924">
        <ele>696</ele>
        <time>2019-06-11T13:24:34Z</time>
      </trkpt>
      <trkpt lat="46.04826" lon="6.53912">
        <ele>696</ele>
        <time>2019-06-11T13:24:36Z</time>
      </trkpt>
      <trkpt lat="46.04847" lon="6.53891">
        <ele>693</ele>
        <time>2019-06-11T13:24:41Z</time>
      </trkpt>
      <trkpt lat="46.04859" lon="6.53871">
        <ele>692</ele>
        <time>2019-06-11T13:24:44Z</time>
      </trkpt>
      <trkpt lat="46.04942" lon="6.53653">
        <ele>673</ele>
        <time>2019-06-11T13:25:15Z</time>
      </trkpt>
      <trkpt lat="46.04946" lon="6.53612">
        <ele>676</ele>
        <time>2019-06-11T13:25:20Z</time>
      </trkpt>
      <trkpt lat="46.04934" lon="6.53565">
        <ele>684</ele>
        <time>2019-06-11T13:25:26Z</time>
      </trkpt>
      <trkpt lat="46.04955" lon="6.53532">
        <ele>681</ele>
        <time>2019-06-11T13:25:32Z</time>
      </trkpt>
      <trkpt lat="46.04985" lon="6.53525">
        <ele>670</ele>
        <time>2019-06-11T13:25:37Z</time>
      </trkpt>
      <trkpt lat="46.05011" lon="6.53499">
        <ele>663</ele>
        <time>2019-06-11T13:25:43Z</time>
      </trkpt>
      <trkpt lat="46.05011" lon="6.53457">
        <ele>664</ele>
        <time>2019-06-11T13:25:48Z</time>
      </trkpt>
      <trkpt lat="46.04989" lon="6.53398">
        <ele>674</ele>
        <time>2019-06-11T13:25:56Z</time>
      </trkpt>
      <trkpt lat="46.0499" lon="6.53378">
        <ele>673</ele>
        <time>2019-06-11T13:25:58Z</time>
      </trkpt>
      <trkpt lat="46.04996" lon="6.53359">
        <ele>671</ele>
        <time>2019-06-11T13:26:01Z</time>
      </trkpt>
      <trkpt lat="46.05007" lon="6.53353">
        <ele>667</ele>
        <time>2019-06-11T13:26:03Z</time>
      </trkpt>
      <trkpt lat="46.05016" lon="6.53353">
        <ele>665</ele>
        <time>2019-06-11T13:26:05Z</time>
      </trkpt>
      <trkpt lat="46.05065" lon="6.53389">
        <ele>651</ele>
        <time>2019-06-11T13:26:15Z</time>
      </trkpt>
      <trkpt lat="46.05081" lon="6.53391">
        <ele>646</ele>
        <time>2019-06-11T13:26:17Z</time>
      </trkpt>
      <trkpt lat="46.05097" lon="6.53381">
        <ele>643</ele>
        <time>2019-06-11T13:26:21Z</time>
      </trkpt>
      <trkpt lat="46.05136" lon="6.5329">
        <ele>642</ele>
        <time>2019-06-11T13:26:34Z</time>
      </trkpt>
      <trkpt lat="46.05177" lon="6.53234">
        <ele>633</ele>
        <time>2019-06-11T13:26:44Z</time>
      </trkpt>
      <trkpt lat="46.05284" lon="6.53043">
        <ele>615</ele>
        <time>2019-06-11T13:27:14Z</time>
      </trkpt>
      <trkpt lat="46.05293" lon="6.53018">
        <ele>614</ele>
        <time>2019-06-11T13:27:18Z</time>
      </trkpt>
      <trkpt lat="46.05293" lon="6.52995">
        <ele>614</ele>
        <time>2019-06-11T13:27:20Z</time>
      </trkpt>
      <trkpt lat="46.05289" lon="6.52953">
        <ele>617</ele>
        <time>2019-06-11T13:27:26Z</time>
      </trkpt>
      <trkpt lat="46.05294" lon="6.52919">
        <ele>617</ele>
        <time>2019-06-11T13:27:30Z</time>
      </trkpt>
      <trkpt lat="46.05311" lon="6.52893">
        <ele>614</ele>
        <time>2019-06-11T13:27:34Z</time>
      </trkpt>
      <trkpt lat="46.05331" lon="6.52886">
        <ele>607</ele>
        <time>2019-06-11T13:27:38Z</time>
      </trkpt>
      <trkpt lat="46.05357" lon="6.52881">
        <ele>604</ele>
        <time>2019-06-11T13:27:43Z</time>
      </trkpt>
      <trkpt lat="46.0537" lon="6.52867">
        <ele>603</ele>
        <time>2019-06-11T13:27:46Z</time>
      </trkpt>
      <trkpt lat="46.05388" lon="6.52828">
        <ele>599</ele>
        <time>2019-06-11T13:27:51Z</time>
      </trkpt>
      <trkpt lat="46.05396" lon="6.5282">
        <ele>598</ele>
        <time>2019-06-11T13:27:53Z</time>
      </trkpt>
      <trkpt lat="46.05393" lon="6.5278">
        <ele>599</ele>
        <time>2019-06-11T13:27:58Z</time>
      </trkpt>
      <trkpt lat="46.05452" lon="6.52659">
        <ele>585</ele>
        <time>2019-06-11T13:28:16Z</time>
      </trkpt>
      <trkpt lat="46.05462" lon="6.52634">
        <ele>584</ele>
        <time>2019-06-11T13:28:20Z</time>
      </trkpt>
      <trkpt lat="46.05473" lon="6.52615">
        <ele>582</ele>
        <time>2019-06-11T13:28:23Z</time>
      </trkpt>
      <trkpt lat="46.05479" lon="6.52607">
        <ele>581</ele>
        <time>2019-06-11T13:28:24Z</time>
      </trkpt>
      <trkpt lat="46.05542" lon="6.526">
        <ele>571</ele>
        <time>2019-06-11T13:28:36Z</time>
      </trkpt>
      <trkpt lat="46.05557" lon="6.52595">
        <ele>569</ele>
        <time>2019-06-11T13:28:38Z</time>
      </trkpt>
      <trkpt lat="46.05602" lon="6.5257">
        <ele>563</ele>
        <time>2019-06-11T13:28:47Z</time>
      </trkpt>
      <trkpt lat="46.05636" lon="6.52568">
        <ele>557</ele>
        <time>2019-06-11T13:28:53Z</time>
      </trkpt>
      <trkpt lat="46.05665" lon="6.52569">
        <ele>553</ele>
        <time>2019-06-11T13:28:58Z</time>
      </trkpt>
      <trkpt lat="46.05691" lon="6.52584">
        <ele>548</ele>
        <time>2019-06-11T13:29:03Z</time>
      </trkpt>
      <trkpt lat="46.05711" lon="6.52585">
        <ele>545</ele>
        <time>2019-06-11T13:29:07Z</time>
      </trkpt>
      <trkpt lat="46.05715" lon="6.52587">
        <ele>545</ele>
        <time>2019-06-11T13:29:07Z</time>
      </trkpt>
      <trkpt lat="46.05723" lon="6.52604">
        <ele>544</ele>
        <time>2019-06-11T13:29:10Z</time>
      </trkpt>
      <trkpt lat="46.05731" lon="6.52614">
        <ele>543</ele>
        <time>2019-06-11T13:29:12Z</time>
      </trkpt>
      <trkpt lat="46.05786" lon="6.52645">
        <ele>536</ele>
        <time>2019-06-11T13:29:22Z</time>
      </trkpt>
      <trkpt lat="46.05808" lon="6.52643">
        <ele>534</ele>
        <time>2019-06-11T13:29:26Z</time>
      </trkpt>
      <trkpt lat="46.05818" lon="6.52641">
        <ele>533</ele>
        <time>2019-06-11T13:29:28Z</time>
      </trkpt>
      <trkpt lat="46.05846" lon="6.52622">
        <ele>529</ele>
        <time>2019-06-11T13:29:34Z</time>
      </trkpt>
      <trkpt lat="46.05915" lon="6.52612">
        <ele>521</ele>
        <time>2019-06-11T13:29:46Z</time>
      </trkpt>
      <trkpt lat="46.05916" lon="6.5262">
        <ele>521</ele>
        <time>2019-06-11T13:29:47Z</time>
      </trkpt>
      <trkpt lat="46.05923" lon="6.52624">
        <ele>520</ele>
        <time>2019-06-11T13:29:48Z</time>
      </trkpt>
      <trkpt lat="46.05941" lon="6.52624">
        <ele>518</ele>
        <time>2019-06-11T13:29:51Z</time>
      </trkpt>
      <trkpt lat="46.05945" lon="6.52618">
        <ele>518</ele>
        <time>2019-06-11T13:29:53Z</time>
      </trkpt>
      <trkpt lat="46.05946" lon="6.52611">
        <ele>518</ele>
        <time>2019-06-11T13:29:53Z</time>
      </trkpt>
      <trkpt lat="46.05963" lon="6.52612">
        <ele>516</ele>
        <time>2019-06-11T13:29:56Z</time>
      </trkpt>
      <trkpt lat="46.0603" lon="6.52626">
        <ele>509</ele>
        <time>2019-06-11T13:30:08Z</time>
      </trkpt>
      <trkpt lat="46.06098" lon="6.52683">
        <ele>504</ele>
        <time>2019-06-11T13:30:22Z</time>
      </trkpt>
      <trkpt lat="46.06079" lon="6.52818">
        <ele>505</ele>
        <time>2019-06-11T13:30:39Z</time>
      </trkpt>
      <trkpt lat="46.06076" lon="6.52819">
        <ele>506</ele>
        <time>2019-06-11T13:30:40Z</time>
      </trkpt>
      <trkpt lat="46.06071" lon="6.52826">
        <ele>506</ele>
        <time>2019-06-11T13:30:41Z</time>
      </trkpt>
      <trkpt lat="46.06072" lon="6.52835">
        <ele>506</ele>
        <time>2019-06-11T13:30:42Z</time>
      </trkpt>
      <trkpt lat="46.06077" lon="6.5284">
        <ele>505</ele>
        <time>2019-06-11T13:30:43Z</time>
      </trkpt>
      <trkpt lat="46.0608" lon="6.5284">
        <ele>505</ele>
        <time>2019-06-11T13:30:44Z</time>
      </trkpt>
      <trkpt lat="46.06084" lon="6.52836">
        <ele>505</ele>
        <time>2019-06-11T13:30:45Z</time>
      </trkpt>
      <trkpt lat="46.06085" lon="6.52832">
        <ele>505</ele>
        <time>2019-06-11T13:30:45Z</time>
      </trkpt>
      <trkpt lat="46.06104" lon="6.52841">
        <ele>504</ele>
        <time>2019-06-11T13:30:49Z</time>
      </trkpt>
      <trkpt lat="46.06118" lon="6.52845">
        <ele>503</ele>
        <time>2019-06-11T13:30:51Z</time>
      </trkpt>
      <trkpt lat="46.06127" lon="6.52845">
        <ele>502</ele>
        <time>2019-06-11T13:30:53Z</time>
      </trkpt>
      <trkpt lat="46.06158" lon="6.52835">
        <ele>500</ele>
        <time>2019-06-11T13:30:59Z</time>
      </trkpt>
      <trkpt lat="46.06181" lon="6.52818">
        <ele>499</ele>
        <time>2019-06-11T13:31:03Z</time>
      </trkpt>
      <trkpt lat="46.06215" lon="6.52788">
        <ele>496</ele>
        <time>2019-06-11T13:31:10Z</time>
      </trkpt>
      <trkpt lat="46.06245" lon="6.52775">
        <ele>493</ele>
        <time>2019-06-11T13:31:16Z</time>
      </trkpt>
      <trkpt lat="46.06374" lon="6.52744">
        <ele>489</ele>
        <time>2019-06-11T13:31:39Z</time>
      </trkpt>
      <trkpt lat="46.06392" lon="6.52738">
        <ele>487</ele>
        <time>2019-06-11T13:31:43Z</time>
      </trkpt>
      <trkpt lat="46.06546" lon="6.52701">
        <ele>481</ele>
        <time>2019-06-11T13:32:10Z</time>
      </trkpt>
      <trkpt lat="46.06592" lon="6.52698">
        <ele>479</ele>
        <time>2019-06-11T13:32:19Z</time>
      </trkpt>
      <trkpt lat="46.06645" lon="6.52702">
        <ele>479</ele>
        <time>2019-06-11T13:32:28Z</time>
      </trkpt>
      <trkpt lat="46.06751" lon="6.52742">
        <ele>477</ele>
        <time>2019-06-11T13:32:47Z</time>
      </trkpt>
      <trkpt lat="46.06749" lon="6.52749">
        <ele>477</ele>
        <time>2019-06-11T13:32:48Z</time>
      </trkpt>
      <trkpt lat="46.06831" lon="6.52783">
        <ele>475</ele>
        <time>2019-06-11T13:33:04Z</time>
      </trkpt>
      <trkpt lat="46.06864" lon="6.52799">
        <ele>475</ele>
        <time>2019-06-11T13:33:10Z</time>
      </trkpt>
      <trkpt lat="46.06875" lon="6.52809">
        <ele>475</ele>
        <time>2019-06-11T13:33:12Z</time>
      </trkpt>
      <trkpt lat="46.06878" lon="6.52814">
        <ele>475</ele>
        <time>2019-06-11T13:33:13Z</time>
      </trkpt>
      <trkpt lat="46.0688" lon="6.52824">
        <ele>475</ele>
        <time>2019-06-11T13:33:14Z</time>
      </trkpt>
      <trkpt lat="46.06878" lon="6.5285">
        <ele>475</ele>
        <time>2019-06-11T13:33:17Z</time>
      </trkpt>
      <trkpt lat="46.06886" lon="6.52856">
        <ele>475</ele>
        <time>2019-06-11T13:33:19Z</time>
      </trkpt>
      <trkpt lat="46.06892" lon="6.52842">
        <ele>475</ele>
        <time>2019-06-11T13:33:21Z</time>
      </trkpt>
      <trkpt lat="46.06899" lon="6.52849">
        <ele>474</ele>
        <time>2019-06-11T13:33:23Z</time>
      </trkpt>
      <trkpt lat="46.06908" lon="6.52851">
        <ele>474</ele>
        <time>2019-06-11T13:33:24Z</time>
      </trkpt>
      <trkpt lat="46.06916" lon="6.52848">
        <ele>474</ele>
        <time>2019-06-11T13:33:26Z</time>
      </trkpt>
      <trkpt lat="46.06924" lon="6.52841">
        <ele>474</ele>
        <time>2019-06-11T13:33:27Z</time>
      </trkpt>
      <trkpt lat="46.06928" lon="6.5283">
        <ele>474</ele>
        <time>2019-06-11T13:33:29Z</time>
      </trkpt>
      <trkpt lat="46.07099" lon="6.52932">
        <ele>469</ele>
        <time>2019-06-11T13:34:02Z</time>
      </trkpt>
      <trkpt lat="46.0713" lon="6.52948">
        <ele>469</ele>
        <time>2019-06-11T13:34:08Z</time>
      </trkpt>
      <trkpt lat="46.07145" lon="6.52954">
        <ele>469</ele>
        <time>2019-06-11T13:34:10Z</time>
      </trkpt>
      <trkpt lat="46.07166" lon="6.52954">
        <ele>468</ele>
        <time>2019-06-11T13:34:14Z</time>
      </trkpt>
      <trkpt lat="46.07185" lon="6.52945">
        <ele>468</ele>
        <time>2019-06-11T13:34:18Z</time>
      </trkpt>
      <trkpt lat="46.07204" lon="6.52931">
        <ele>468</ele>
        <time>2019-06-11T13:34:22Z</time>
      </trkpt>
      <trkpt lat="46.07207" lon="6.52935">
        <ele>468</ele>
        <time>2019-06-11T13:34:22Z</time>
      </trkpt>
      <trkpt lat="46.07216" lon="6.5294">
        <ele>468</ele>
        <time>2019-06-11T13:34:24Z</time>
      </trkpt>
      <trkpt lat="46.07225" lon="6.52938">
        <ele>468</ele>
        <time>2019-06-11T13:34:26Z</time>
      </trkpt>
      <trkpt lat="46.07229" lon="6.52934">
        <ele>468</ele>
        <time>2019-06-11T13:34:26Z</time>
      </trkpt>
      <trkpt lat="46.07234" lon="6.52923">
        <ele>467</ele>
        <time>2019-06-11T13:34:28Z</time>
      </trkpt>
      <trkpt lat="46.07234" lon="6.5291">
        <ele>467</ele>
        <time>2019-06-11T13:34:30Z</time>
      </trkpt>
      <trkpt lat="46.07233" lon="6.52904">
        <ele>467</ele>
        <time>2019-06-11T13:34:30Z</time>
      </trkpt>
      <trkpt lat="46.0724" lon="6.52897">
        <ele>467</ele>
        <time>2019-06-11T13:34:32Z</time>
      </trkpt>
      <trkpt lat="46.07264" lon="6.52863">
        <ele>467</ele>
        <time>2019-06-11T13:34:38Z</time>
      </trkpt>
      <trkpt lat="46.07464" lon="6.5263">
        <ele>464</ele>
        <time>2019-06-11T13:35:24Z</time>
      </trkpt>
      <trkpt lat="46.07538" lon="6.52549">
        <ele>465</ele>
        <time>2019-06-11T13:35:40Z</time>
      </trkpt>
      <trkpt lat="46.07557" lon="6.5253">
        <ele>466</ele>
        <time>2019-06-11T13:35:44Z</time>
      </trkpt>
      <trkpt lat="46.07562" lon="6.52545">
        <ele>466</ele>
        <time>2019-06-11T13:35:46Z</time>
      </trkpt>
      <trkpt lat="46.0757" lon="6.52554">
        <ele>466</ele>
        <time>2019-06-11T13:35:48Z</time>
      </trkpt>
      <trkpt lat="46.07581" lon="6.52557">
        <ele>466</ele>
        <time>2019-06-11T13:35:50Z</time>
      </trkpt>
      <trkpt lat="46.07591" lon="6.52553">
        <ele>466</ele>
        <time>2019-06-11T13:35:52Z</time>
      </trkpt>
      <trkpt lat="46.076" lon="6.52539">
        <ele>467</ele>
        <time>2019-06-11T13:35:54Z</time>
      </trkpt>
      <trkpt lat="46.07602" lon="6.5252">
        <ele>468</ele>
        <time>2019-06-11T13:35:57Z</time>
      </trkpt>
      <trkpt lat="46.07849" lon="6.52498">
        <ele>466</ele>
        <time>2019-06-11T13:36:41Z</time>
      </trkpt>
      <trkpt lat="46.08051" lon="6.5247">
        <ele>467</ele>
        <time>2019-06-11T13:37:17Z</time>
      </trkpt>
      <trkpt lat="46.08221" lon="6.52416">
        <ele>469</ele>
        <time>2019-06-11T13:37:48Z</time>
      </trkpt>
      <trkpt lat="46.08225" lon="6.52425">
        <ele>469</ele>
        <time>2019-06-11T13:37:49Z</time>
      </trkpt>
      <trkpt lat="46.08231" lon="6.52432">
        <ele>469</ele>
        <time>2019-06-11T13:37:51Z</time>
      </trkpt>
      <trkpt lat="46.08239" lon="6.52436">
        <ele>469</ele>
        <time>2019-06-11T13:37:52Z</time>
      </trkpt>
      <trkpt lat="46.08247" lon="6.52435">
        <ele>469</ele>
        <time>2019-06-11T13:37:54Z</time>
      </trkpt>
      <trkpt lat="46.08254" lon="6.5243">
        <ele>469</ele>
        <time>2019-06-11T13:37:55Z</time>
      </trkpt>
      <trkpt lat="46.0826" lon="6.52422">
        <ele>469</ele>
        <time>2019-06-11T13:37:56Z</time>
      </trkpt>
      <trkpt lat="46.08264" lon="6.52412">
        <ele>470</ele>
        <time>2019-06-11T13:37:58Z</time>
      </trkpt>
      <trkpt lat="46.08265" lon="6.52401">
        <ele>471</ele>
        <time>2019-06-11T13:37:59Z</time>
      </trkpt>
      <trkpt lat="46.08359" lon="6.52385">
        <ele>473</ele>
        <time>2019-06-11T13:38:16Z</time>
      </trkpt>
      <trkpt lat="46.08394" lon="6.52383">
        <ele>472</ele>
        <time>2019-06-11T13:38:22Z</time>
      </trkpt>
      <trkpt lat="46.08426" lon="6.52385">
        <ele>471</ele>
        <time>2019-06-11T13:38:28Z</time>
      </trkpt>
      <trkpt lat="46.08455" lon="6.52391">
        <ele>471</ele>
        <time>2019-06-11T13:38:33Z</time>
      </trkpt>
      <trkpt lat="46.08495" lon="6.52403">
        <ele>471</ele>
        <time>2019-06-11T13:38:40Z</time>
      </trkpt>
      <trkpt lat="46.08596" lon="6.52447">
        <ele>472</ele>
        <time>2019-06-11T13:38:59Z</time>
      </trkpt>
      <trkpt lat="46.08615" lon="6.52452">
        <ele>473</ele>
        <time>2019-06-11T13:39:03Z</time>
      </trkpt>
      <trkpt lat="46.08614" lon="6.52457">
        <ele>473</ele>
        <time>2019-06-11T13:39:03Z</time>
      </trkpt>
      <trkpt lat="46.08617" lon="6.5247">
        <ele>473</ele>
        <time>2019-06-11T13:39:05Z</time>
      </trkpt>
      <trkpt lat="46.08622" lon="6.52476">
        <ele>474</ele>
        <time>2019-06-11T13:39:06Z</time>
      </trkpt>
      <trkpt lat="46.08627" lon="6.5248">
        <ele>474</ele>
        <time>2019-06-11T13:39:07Z</time>
      </trkpt>
      <trkpt lat="46.08633" lon="6.5248">
        <ele>474</ele>
        <time>2019-06-11T13:39:08Z</time>
      </trkpt>
      <trkpt lat="46.08642" lon="6.52474">
        <ele>474</ele>
        <time>2019-06-11T13:39:10Z</time>
      </trkpt>
      <trkpt lat="46.08647" lon="6.52462">
        <ele>474</ele>
        <time>2019-06-11T13:39:12Z</time>
      </trkpt>
      <trkpt lat="46.08677" lon="6.52474">
        <ele>476</ele>
        <time>2019-06-11T13:39:17Z</time>
      </trkpt>
      <trkpt lat="46.08678" lon="6.52484">
        <ele>477</ele>
        <time>2019-06-11T13:39:18Z</time>
      </trkpt>
      <trkpt lat="46.08681" lon="6.52486">
        <ele>477</ele>
        <time>2019-06-11T13:39:19Z</time>
      </trkpt>
      <trkpt lat="46.08685" lon="6.52486">
        <ele>477</ele>
        <time>2019-06-11T13:39:20Z</time>
      </trkpt>
      <trkpt lat="46.08671" lon="6.52527">
        <ele>477</ele>
        <time>2019-06-11T13:39:25Z</time>
      </trkpt>
      <trkpt lat="46.08652" lon="6.52625">
        <ele>479</ele>
        <time>2019-06-11T13:39:38Z</time>
      </trkpt>
      <trkpt lat="46.08649" lon="6.52691">
        <ele>481</ele>
        <time>2019-06-11T13:39:46Z</time>
      </trkpt>
      <trkpt lat="46.08673" lon="6.52708">
        <ele>483</ele>
        <time>2019-06-11T13:39:51Z</time>
      </trkpt>
      <trkpt lat="46.0869" lon="6.52717">
        <ele>486</ele>
        <time>2019-06-11T13:39:54Z</time>
      </trkpt>
      <trkpt lat="46.08704" lon="6.52708">
        <ele>487</ele>
        <time>2019-06-11T13:39:57Z</time>
      </trkpt>
      <trkpt lat="46.08724" lon="6.52668">
        <ele>488</ele>
        <time>2019-06-11T13:40:03Z</time>
      </trkpt>
      <trkpt lat="46.0873" lon="6.52628">
        <ele>487</ele>
        <time>2019-06-11T13:40:08Z</time>
      </trkpt>
      <trkpt lat="46.08742" lon="6.52604">
        <ele>487</ele>
        <time>2019-06-11T13:40:12Z</time>
      </trkpt>
      <trkpt lat="46.08755" lon="6.52594">
        <ele>488</ele>
        <time>2019-06-11T13:40:14Z</time>
      </trkpt>
      <trkpt lat="46.08785" lon="6.52607">
        <ele>494</ele>
        <time>2019-06-11T13:40:20Z</time>
      </trkpt>
      <trkpt lat="46.08802" lon="6.52603">
        <ele>496</ele>
        <time>2019-06-11T13:40:23Z</time>
      </trkpt>
      <trkpt lat="46.08832" lon="6.52563">
        <ele>499</ele>
        <time>2019-06-11T13:40:30Z</time>
      </trkpt>
      <trkpt lat="46.08841" lon="6.52559">
        <ele>500</ele>
        <time>2019-06-11T13:40:32Z</time>
      </trkpt>
      <trkpt lat="46.08851" lon="6.52563">
        <ele>503</ele>
        <time>2019-06-11T13:40:34Z</time>
      </trkpt>
      <trkpt lat="46.08856" lon="6.52575">
        <ele>504</ele>
        <time>2019-06-11T13:40:35Z</time>
      </trkpt>
      <trkpt lat="46.08858" lon="6.52645">
        <ele>507</ele>
        <time>2019-06-11T13:40:44Z</time>
      </trkpt>
      <trkpt lat="46.08856" lon="6.52672">
        <ele>508</ele>
        <time>2019-06-11T13:40:47Z</time>
      </trkpt>
      <trkpt lat="46.08845" lon="6.52725">
        <ele>509</ele>
        <time>2019-06-11T13:40:54Z</time>
      </trkpt>
      <trkpt lat="46.08844" lon="6.5274">
        <ele>509</ele>
        <time>2019-06-11T13:40:56Z</time>
      </trkpt>
      <trkpt lat="46.08851" lon="6.52747">
        <ele>511</ele>
        <time>2019-06-11T13:40:58Z</time>
      </trkpt>
      <trkpt lat="46.0886" lon="6.52747">
        <ele>512</ele>
        <time>2019-06-11T13:40:59Z</time>
      </trkpt>
      <trkpt lat="46.08883" lon="6.5273">
        <ele>515</ele>
        <time>2019-06-11T13:41:04Z</time>
      </trkpt>
      <trkpt lat="46.08901" lon="6.52711">
        <ele>517</ele>
        <time>2019-06-11T13:41:08Z</time>
      </trkpt>
      <trkpt lat="46.08945" lon="6.52632">
        <ele>524</ele>
        <time>2019-06-11T13:41:20Z</time>
      </trkpt>
      <trkpt lat="46.08952" lon="6.52607">
        <ele>525</ele>
        <time>2019-06-11T13:41:24Z</time>
      </trkpt>
      <trkpt lat="46.08958" lon="6.52575">
        <ele>525</ele>
        <time>2019-06-11T13:41:28Z</time>
      </trkpt>
      <trkpt lat="46.08968" lon="6.52558">
        <ele>526</ele>
        <time>2019-06-11T13:41:30Z</time>
      </trkpt>
      <trkpt lat="46.0897" lon="6.52727">
        <ele>533</ele>
        <time>2019-06-11T13:41:51Z</time>
      </trkpt>
      <trkpt lat="46.0896" lon="6.5287">
        <ele>536</ele>
        <time>2019-06-11T13:42:09Z</time>
      </trkpt>
      <trkpt lat="46.08962" lon="6.53017">
        <ele>541</ele>
        <time>2019-06-11T13:42:27Z</time>
      </trkpt>
      <trkpt lat="46.08901" lon="6.53333">
        <ele>548</ele>
        <time>2019-06-11T13:43:08Z</time>
      </trkpt>
      <trkpt lat="46.08892" lon="6.53408">
        <ele>549</ele>
        <time>2019-06-11T13:43:17Z</time>
      </trkpt>
      <trkpt lat="46.08885" lon="6.5378">
        <ele>563</ele>
        <time>2019-06-11T13:44:03Z</time>
      </trkpt>
      <trkpt lat="46.08878" lon="6.53825">
        <ele>565</ele>
        <time>2019-06-11T13:44:09Z</time>
      </trkpt>
      <trkpt lat="46.08867" lon="6.53866">
        <ele>565</ele>
        <time>2019-06-11T13:44:14Z</time>
      </trkpt>
      <trkpt lat="46.08849" lon="6.53913">
        <ele>566</ele>
        <time>2019-06-11T13:44:21Z</time>
      </trkpt>
      <trkpt lat="46.08843" lon="6.53937">
        <ele>565</ele>
        <time>2019-06-11T13:44:24Z</time>
      </trkpt>
      <trkpt lat="46.08839" lon="6.53964">
        <ele>565</ele>
        <time>2019-06-11T13:44:27Z</time>
      </trkpt>
      <trkpt lat="46.0884" lon="6.53995">
        <ele>566</ele>
        <time>2019-06-11T13:44:31Z</time>
      </trkpt>
      <trkpt lat="46.08849" lon="6.54043">
        <ele>568</ele>
        <time>2019-06-11T13:44:37Z</time>
      </trkpt>
      <trkpt lat="46.08873" lon="6.54098">
        <ele>573</ele>
        <time>2019-06-11T13:44:45Z</time>
      </trkpt>
      <trkpt lat="46.08893" lon="6.54151">
        <ele>577</ele>
        <time>2019-06-11T13:44:53Z</time>
      </trkpt>
      <trkpt lat="46.08901" lon="6.54197">
        <ele>579</ele>
        <time>2019-06-11T13:44:59Z</time>
      </trkpt>
      <trkpt lat="46.08903" lon="6.54255">
        <ele>583</ele>
        <time>2019-06-11T13:45:06Z</time>
      </trkpt>
      <trkpt lat="46.08899" lon="6.54299">
        <ele>584</ele>
        <time>2019-06-11T13:45:11Z</time>
      </trkpt>
      <trkpt lat="46.08893" lon="6.54338">
        <ele>585</ele>
        <time>2019-06-11T13:45:16Z</time>
      </trkpt>
      <trkpt lat="46.08879" lon="6.54379">
        <ele>588</ele>
        <time>2019-06-11T13:45:22Z</time>
      </trkpt>
      <trkpt lat="46.0886" lon="6.54426">
        <ele>589</ele>
        <time>2019-06-11T13:45:28Z</time>
      </trkpt>
      <trkpt lat="46.08842" lon="6.5448">
        <ele>589</ele>
        <time>2019-06-11T13:45:36Z</time>
      </trkpt>
      <trkpt lat="46.08833" lon="6.54513">
        <ele>589</ele>
        <time>2019-06-11T13:45:40Z</time>
      </trkpt>
      <trkpt lat="46.08827" lon="6.54557">
        <ele>590</ele>
        <time>2019-06-11T13:45:46Z</time>
      </trkpt>
      <trkpt lat="46.08828" lon="6.54621">
        <ele>592</ele>
        <time>2019-06-11T13:45:54Z</time>
      </trkpt>
      <trkpt lat="46.08836" lon="6.54723">
        <ele>598</ele>
        <time>2019-06-11T13:46:06Z</time>
      </trkpt>
      <trkpt lat="46.08831" lon="6.54769">
        <ele>598</ele>
        <time>2019-06-11T13:46:12Z</time>
      </trkpt>
      <trkpt lat="46.08821" lon="6.54826">
        <ele>597</ele>
        <time>2019-06-11T13:46:19Z</time>
      </trkpt>
      <trkpt lat="46.08819" lon="6.54884">
        <ele>598</ele>
        <time>2019-06-11T13:46:27Z</time>
      </trkpt>
      <trkpt lat="46.08842" lon="6.55118">
        <ele>613</ele>
        <time>2019-06-11T13:46:56Z</time>
      </trkpt>
      <trkpt lat="46.08845" lon="6.55165">
        <ele>616</ele>
        <time>2019-06-11T13:47:02Z</time>
      </trkpt>
      <trkpt lat="46.08842" lon="6.55194">
        <ele>620</ele>
        <time>2019-06-11T13:47:05Z</time>
      </trkpt>
      <trkpt lat="46.08823" lon="6.55247">
        <ele>621</ele>
        <time>2019-06-11T13:47:12Z</time>
      </trkpt>
      <trkpt lat="46.08809" lon="6.55297">
        <ele>622</ele>
        <time>2019-06-11T13:47:19Z</time>
      </trkpt>
      <trkpt lat="46.08778" lon="6.55493">
        <ele>628</ele>
        <time>2019-06-11T13:47:44Z</time>
      </trkpt>
      <trkpt lat="46.08769" lon="6.55538">
        <ele>632</ele>
        <time>2019-06-11T13:47:50Z</time>
      </trkpt>
      <trkpt lat="46.08745" lon="6.5559">
        <ele>630</ele>
        <time>2019-06-11T13:47:57Z</time>
      </trkpt>
      <trkpt lat="46.08733" lon="6.55629">
        <ele>628</ele>
        <time>2019-06-11T13:48:03Z</time>
      </trkpt>
      <trkpt lat="46.08705" lon="6.55733">
        <ele>627</ele>
        <time>2019-06-11T13:48:16Z</time>
      </trkpt>
      <trkpt lat="46.08699" lon="6.55811">
        <ele>637</ele>
        <time>2019-06-11T13:48:26Z</time>
      </trkpt>
      <trkpt lat="46.0869" lon="6.55846">
        <ele>639</ele>
        <time>2019-06-11T13:48:31Z</time>
      </trkpt>
      <trkpt lat="46.08674" lon="6.55884">
        <ele>636</ele>
        <time>2019-06-11T13:48:36Z</time>
      </trkpt>
      <trkpt lat="46.08667" lon="6.55919">
        <ele>637</ele>
        <time>2019-06-11T13:48:41Z</time>
      </trkpt>
      <trkpt lat="46.08668" lon="6.5595">
        <ele>639</ele>
        <time>2019-06-11T13:48:45Z</time>
      </trkpt>
      <trkpt lat="46.0868" lon="6.55996">
        <ele>648</ele>
        <time>2019-06-11T13:48:51Z</time>
      </trkpt>
      <trkpt lat="46.08678" lon="6.56032">
        <ele>653</ele>
        <time>2019-06-11T13:48:55Z</time>
      </trkpt>
      <trkpt lat="46.08666" lon="6.56068">
        <ele>652</ele>
        <time>2019-06-11T13:49:00Z</time>
      </trkpt>
      <trkpt lat="46.08612" lon="6.56198">
        <ele>658</ele>
        <time>2019-06-11T13:49:19Z</time>
      </trkpt>
      <trkpt lat="46.08594" lon="6.56231">
        <ele>653</ele>
        <time>2019-06-11T13:49:24Z</time>
      </trkpt>
      <trkpt lat="46.08586" lon="6.56254">
        <ele>652</ele>
        <time>2019-06-11T13:49:27Z</time>
      </trkpt>
      <trkpt lat="46.08585" lon="6.56276">
        <ele>655</ele>
        <time>2019-06-11T13:49:30Z</time>
      </trkpt>
      <trkpt lat="46.08594" lon="6.56325">
        <ele>666</ele>
        <time>2019-06-11T13:49:36Z</time>
      </trkpt>
      <trkpt lat="46.08595" lon="6.56345">
        <ele>668</ele>
        <time>2019-06-11T13:49:39Z</time>
      </trkpt>
      <trkpt lat="46.08585" lon="6.56391">
        <ele>665</ele>
        <time>2019-06-11T13:49:44Z</time>
      </trkpt>
      <trkpt lat="46.08585" lon="6.56432">
        <ele>665</ele>
        <time>2019-06-11T13:49:50Z</time>
      </trkpt>
      <trkpt lat="46.08591" lon="6.56488">
        <ele>667</ele>
        <time>2019-06-11T13:49:57Z</time>
      </trkpt>
      <trkpt lat="46.08587" lon="6.5655">
        <ele>662</ele>
        <time>2019-06-11T13:50:04Z</time>
      </trkpt>
      <trkpt lat="46.08589" lon="6.56577">
        <ele>661</ele>
        <time>2019-06-11T13:50:08Z</time>
      </trkpt>
      <trkpt lat="46.08594" lon="6.56608">
        <ele>665</ele>
        <time>2019-06-11T13:50:11Z</time>
      </trkpt>
      <trkpt lat="46.08607" lon="6.56671">
        <ele>675</ele>
        <time>2019-06-11T13:50:20Z</time>
      </trkpt>
      <trkpt lat="46.08611" lon="6.56729">
        <ele>682</ele>
        <time>2019-06-11T13:50:27Z</time>
      </trkpt>
      <trkpt lat="46.08622" lon="6.56785">
        <ele>695</ele>
        <time>2019-06-11T13:50:34Z</time>
      </trkpt>
      <trkpt lat="46.08615" lon="6.56812">
        <ele>695</ele>
        <time>2019-06-11T13:50:38Z</time>
      </trkpt>
      <trkpt lat="46.08587" lon="6.56862">
        <ele>685</ele>
        <time>2019-06-11T13:50:45Z</time>
      </trkpt>
      <trkpt lat="46.08589" lon="6.56876">
        <ele>688</ele>
        <time>2019-06-11T13:50:47Z</time>
      </trkpt>
      <trkpt lat="46.0858" lon="6.5692">
        <ele>688</ele>
        <time>2019-06-11T13:50:53Z</time>
      </trkpt>
      <trkpt lat="46.0858" lon="6.56979">
        <ele>700</ele>
        <time>2019-06-11T13:51:00Z</time>
      </trkpt>
      <trkpt lat="46.08574" lon="6.56998">
        <ele>700</ele>
        <time>2019-06-11T13:51:03Z</time>
      </trkpt>
      <trkpt lat="46.08543" lon="6.57059">
        <ele>698</ele>
        <time>2019-06-11T13:51:12Z</time>
      </trkpt>
      <trkpt lat="46.08488" lon="6.5712">
        <ele>685</ele>
        <time>2019-06-11T13:51:24Z</time>
      </trkpt>
      <trkpt lat="46.08479" lon="6.57134">
        <ele>684</ele>
        <time>2019-06-11T13:51:27Z</time>
      </trkpt>
      <trkpt lat="46.08471" lon="6.57151">
        <ele>685</ele>
        <time>2019-06-11T13:51:29Z</time>
      </trkpt>
      <trkpt lat="46.08464" lon="6.57172">
        <ele>686</ele>
        <time>2019-06-11T13:51:32Z</time>
      </trkpt>
      <trkpt lat="46.08454" lon="6.57235">
        <ele>692</ele>
        <time>2019-06-11T13:51:40Z</time>
      </trkpt>
      <trkpt lat="46.08447" lon="6.5731">
        <ele>703</ele>
        <time>2019-06-11T13:51:50Z</time>
      </trkpt>
      <trkpt lat="46.0844" lon="6.57329">
        <ele>703</ele>
        <time>2019-06-11T13:51:52Z</time>
      </trkpt>
      <trkpt lat="46.08417" lon="6.57362">
        <ele>695</ele>
        <time>2019-06-11T13:51:58Z</time>
      </trkpt>
      <trkpt lat="46.08408" lon="6.5738">
        <ele>692</ele>
        <time>2019-06-11T13:52:01Z</time>
      </trkpt>
      <trkpt lat="46.08384" lon="6.57462">
        <ele>684</ele>
        <time>2019-06-11T13:52:12Z</time>
      </trkpt>
      <trkpt lat="46.08384" lon="6.5748">
        <ele>685</ele>
        <time>2019-06-11T13:52:14Z</time>
      </trkpt>
      <trkpt lat="46.08385" lon="6.57493">
        <ele>686</ele>
        <time>2019-06-11T13:52:15Z</time>
      </trkpt>
      <trkpt lat="46.08397" lon="6.57512">
        <ele>690</ele>
        <time>2019-06-11T13:52:19Z</time>
      </trkpt>
      <trkpt lat="46.08412" lon="6.5752">
        <ele>695</ele>
        <time>2019-06-11T13:52:22Z</time>
      </trkpt>
      <trkpt lat="46.08469" lon="6.57537">
        <ele>706</ele>
        <time>2019-06-11T13:52:32Z</time>
      </trkpt>
      <trkpt lat="46.08486" lon="6.57546">
        <ele>708</ele>
        <time>2019-06-11T13:52:35Z</time>
      </trkpt>
      <trkpt lat="46.08502" lon="6.57565">
        <ele>710</ele>
        <time>2019-06-11T13:52:39Z</time>
      </trkpt>
      <trkpt lat="46.08516" lon="6.57594">
        <ele>713</ele>
        <time>2019-06-11T13:52:43Z</time>
      </trkpt>
      <trkpt lat="46.08523" lon="6.57625">
        <ele>714</ele>
        <time>2019-06-11T13:52:47Z</time>
      </trkpt>
      <trkpt lat="46.08524" lon="6.57655">
        <ele>713</ele>
        <time>2019-06-11T13:52:51Z</time>
      </trkpt>
      <trkpt lat="46.08521" lon="6.57693">
        <ele>710</ele>
        <time>2019-06-11T13:52:56Z</time>
      </trkpt>
      <trkpt lat="46.08522" lon="6.57725">
        <ele>710</ele>
        <time>2019-06-11T13:53:00Z</time>
      </trkpt>
      <trkpt lat="46.0853" lon="6.57759">
        <ele>711</ele>
        <time>2019-06-11T13:53:04Z</time>
      </trkpt>
      <trkpt lat="46.08545" lon="6.5779">
        <ele>714</ele>
        <time>2019-06-11T13:53:09Z</time>
      </trkpt>
      <trkpt lat="46.08606" lon="6.57904">
        <ele>726</ele>
        <time>2019-06-11T13:53:26Z</time>
      </trkpt>
      <trkpt lat="46.08611" lon="6.57935">
        <ele>727</ele>
        <time>2019-06-11T13:53:30Z</time>
      </trkpt>
      <trkpt lat="46.08614" lon="6.58017">
        <ele>728</ele>
        <time>2019-06-11T13:53:40Z</time>
      </trkpt>
      <trkpt lat="46.08624" lon="6.58113">
        <ele>731</ele>
        <time>2019-06-11T13:53:52Z</time>
      </trkpt>
      <trkpt lat="46.0862" lon="6.58108">
        <ele>731</ele>
        <time>2019-06-11T13:53:53Z</time>
      </trkpt>
      <trkpt lat="46.08617" lon="6.58098">
        <ele>731</ele>
        <time>2019-06-11T13:53:55Z</time>
      </trkpt>
      <trkpt lat="46.08612" lon="6.58055">
        <ele>729</ele>
        <time>2019-06-11T13:54:00Z</time>
      </trkpt>
      <trkpt lat="46.08602" lon="6.58021">
        <ele>726</ele>
        <time>2019-06-11T13:54:05Z</time>
      </trkpt>
      <trkpt lat="46.08591" lon="6.57999">
        <ele>723</ele>
        <time>2019-06-11T13:54:08Z</time>
      </trkpt>
      <trkpt lat="46.08585" lon="6.5799">
        <ele>722</ele>
        <time>2019-06-11T13:54:10Z</time>
      </trkpt>
      <trkpt lat="46.08591" lon="6.57999">
        <ele>723</ele>
        <time>2019-06-11T13:54:11Z</time>
      </trkpt>
      <trkpt lat="46.08602" lon="6.58021">
        <ele>726</ele>
        <time>2019-06-11T13:54:14Z</time>
      </trkpt>
      <trkpt lat="46.08612" lon="6.58055">
        <ele>729</ele>
        <time>2019-06-11T13:54:19Z</time>
      </trkpt>
      <trkpt lat="46.08617" lon="6.58098">
        <ele>731</ele>
        <time>2019-06-11T13:54:24Z</time>
      </trkpt>
      <trkpt lat="46.0862" lon="6.58108">
        <ele>731</ele>
        <time>2019-06-11T13:54:26Z</time>
      </trkpt>
      <trkpt lat="46.08624" lon="6.58113">
        <ele>731</ele>
        <time>2019-06-11T13:54:27Z</time>
      </trkpt>
      <trkpt lat="46.08642" lon="6.582">
        <ele>735</ele>
        <time>2019-06-11T13:54:38Z</time>
      </trkpt>
      <trkpt lat="46.08655" lon="6.58222">
        <ele>737</ele>
        <time>2019-06-11T13:54:41Z</time>
      </trkpt>
      <trkpt lat="46.08672" lon="6.58238">
        <ele>738</ele>
        <time>2019-06-11T13:54:45Z</time>
      </trkpt>
      <trkpt lat="46.08727" lon="6.58271">
        <ele>741</ele>
        <time>2019-06-11T13:54:56Z</time>
      </trkpt>
      <trkpt lat="46.08823" lon="6.58334">
        <ele>742</ele>
        <time>2019-06-11T13:55:14Z</time>
      </trkpt>
      <trkpt lat="46.0884" lon="6.58351">
        <ele>743</ele>
        <time>2019-06-11T13:55:18Z</time>
      </trkpt>
      <trkpt lat="46.08841" lon="6.58359">
        <ele>743</ele>
        <time>2019-06-11T13:55:19Z</time>
      </trkpt>
      <trkpt lat="46.08847" lon="6.58366">
        <ele>744</ele>
        <time>2019-06-11T13:55:20Z</time>
      </trkpt>
      <trkpt lat="46.08855" lon="6.58367">
        <ele>743</ele>
        <time>2019-06-11T13:55:22Z</time>
      </trkpt>
      <trkpt lat="46.08861" lon="6.58361">
        <ele>742</ele>
        <time>2019-06-11T13:55:23Z</time>
      </trkpt>
      <trkpt lat="46.08876" lon="6.58364">
        <ele>742</ele>
        <time>2019-06-11T13:55:26Z</time>
      </trkpt>
      <trkpt lat="46.08883" lon="6.58372">
        <ele>742</ele>
        <time>2019-06-11T13:55:27Z</time>
      </trkpt>
      <trkpt lat="46.08964" lon="6.58428">
        <ele>736</ele>
        <time>2019-06-11T13:55:43Z</time>
      </trkpt>
      <trkpt lat="46.09094" lon="6.58511">
        <ele>736</ele>
        <time>2019-06-11T13:56:09Z</time>
      </trkpt>
      <trkpt lat="46.09126" lon="6.58515">
        <ele>738</ele>
        <time>2019-06-11T13:56:14Z</time>
      </trkpt>
      <trkpt lat="46.09174" lon="6.58515">
        <ele>739</ele>
        <time>2019-06-11T13:56:23Z</time>
      </trkpt>
      <trkpt lat="46.09197" lon="6.58523">
        <ele>737</ele>
        <time>2019-06-11T13:56:27Z</time>
      </trkpt>
      <trkpt lat="46.09218" lon="6.58537">
        <ele>735</ele>
        <time>2019-06-11T13:56:31Z</time>
      </trkpt>
      <trkpt lat="46.0923" lon="6.58551">
        <ele>734</ele>
        <time>2019-06-11T13:56:34Z</time>
      </trkpt>
      <trkpt lat="46.09244" lon="6.58582">
        <ele>734</ele>
        <time>2019-06-11T13:56:39Z</time>
      </trkpt>
      <trkpt lat="46.0925" lon="6.58605">
        <ele>734</ele>
        <time>2019-06-11T13:56:42Z</time>
      </trkpt>
      <trkpt lat="46.09255" lon="6.58668">
        <ele>734</ele>
        <time>2019-06-11T13:56:50Z</time>
      </trkpt>
      <trkpt lat="46.09238" lon="6.58782">
        <ele>733</ele>
        <time>2019-06-11T13:57:04Z</time>
      </trkpt>
      <trkpt lat="46.09239" lon="6.58835">
        <ele>729</ele>
        <time>2019-06-11T13:57:10Z</time>
      </trkpt>
      <trkpt lat="46.09245" lon="6.5889">
        <ele>726</ele>
        <time>2019-06-11T13:57:17Z</time>
      </trkpt>
      <trkpt lat="46.09261" lon="6.58937">
        <ele>720</ele>
        <time>2019-06-11T13:57:24Z</time>
      </trkpt>
      <trkpt lat="46.09285" lon="6.58986">
        <ele>714</ele>
        <time>2019-06-11T13:57:31Z</time>
      </trkpt>
      <trkpt lat="46.09317" lon="6.5902">
        <ele>709</ele>
        <time>2019-06-11T13:57:38Z</time>
      </trkpt>
      <trkpt lat="46.0939" lon="6.59087">
        <ele>699</ele>
        <time>2019-06-11T13:57:54Z</time>
      </trkpt>
      <trkpt lat="46.09425" lon="6.59149">
        <ele>698</ele>
        <time>2019-06-11T13:58:04Z</time>
      </trkpt>
      <trkpt lat="46.09459" lon="6.59225">
        <ele>694</ele>
        <time>2019-06-11T13:58:15Z</time>
      </trkpt>
      <trkpt lat="46.09484" lon="6.59291">
        <ele>691</ele>
        <time>2019-06-11T13:58:24Z</time>
      </trkpt>
      <trkpt lat="46.09509" lon="6.59378">
        <ele>691</ele>
        <time>2019-06-11T13:58:36Z</time>
      </trkpt>
      <trkpt lat="46.09553" lon="6.59591">
        <ele>686</ele>
        <time>2019-06-11T13:59:03Z</time>
      </trkpt>
      <trkpt lat="46.09582" lon="6.59695">
        <ele>675</ele>
        <time>2019-06-11T13:59:17Z</time>
      </trkpt>
      <trkpt lat="46.09587" lon="6.5973">
        <ele>673</ele>
        <time>2019-06-11T13:59:21Z</time>
      </trkpt>
      <trkpt lat="46.09587" lon="6.59782">
        <ele>675</ele>
        <time>2019-06-11T13:59:28Z</time>
      </trkpt>
      <trkpt lat="46.09585" lon="6.59863">
        <ele>681</ele>
        <time>2019-06-11T13:59:38Z</time>
      </trkpt>
      <trkpt lat="46.09588" lon="6.59882">
        <ele>682</ele>
        <time>2019-06-11T13:59:40Z</time>
      </trkpt>
      <trkpt lat="46.09595" lon="6.59893">
        <ele>680</ele>
        <time>2019-06-11T13:59:42Z</time>
      </trkpt>
      <trkpt lat="46.09601" lon="6.59898">
        <ele>678</ele>
        <time>2019-06-11T13:59:43Z</time>
      </trkpt>
      <trkpt lat="46.09611" lon="6.59898">
        <ele>675</ele>
        <time>2019-06-11T13:59:45Z</time>
      </trkpt>
      <trkpt lat="46.09616" lon="6.59895">
        <ele>673</ele>
        <time>2019-06-11T13:59:46Z</time>
      </trkpt>
      <trkpt lat="46.09623" lon="6.59886">
        <ele>670</ele>
        <time>2019-06-11T13:59:48Z</time>
      </trkpt>
      <trkpt lat="46.09627" lon="6.59872">
        <ele>668</ele>
        <time>2019-06-11T13:59:49Z</time>
      </trkpt>
      <trkpt lat="46.09642" lon="6.59787">
        <ele>660</ele>
        <time>2019-06-11T14:00:00Z</time>
      </trkpt>
      <trkpt lat="46.09646" lon="6.5975">
        <ele>658</ele>
        <time>2019-06-11T14:00:05Z</time>
      </trkpt>
      <trkpt lat="46.09644" lon="6.59721">
        <ele>656</ele>
        <time>2019-06-11T14:00:08Z</time>
      </trkpt>
      <trkpt lat="46.09627" lon="6.59648">
        <ele>657</ele>
        <time>2019-06-11T14:00:18Z</time>
      </trkpt>
      <trkpt lat="46.09625" lon="6.5962">
        <ele>657</ele>
        <time>2019-06-11T14:00:21Z</time>
      </trkpt>
      <trkpt lat="46.09627" lon="6.59583">
        <ele>655</ele>
        <time>2019-06-11T14:00:26Z</time>
      </trkpt>
      <trkpt lat="46.09638" lon="6.5949">
        <ele>651</ele>
        <time>2019-06-11T14:00:38Z</time>
      </trkpt>
      <trkpt lat="46.09642" lon="6.59431">
        <ele>648</ele>
        <time>2019-06-11T14:00:45Z</time>
      </trkpt>
      <trkpt lat="46.09643" lon="6.59257">
        <ele>642</ele>
        <time>2019-06-11T14:01:06Z</time>
      </trkpt>
      <trkpt lat="46.09645" lon="6.59234">
        <ele>641</ele>
        <time>2019-06-11T14:01:09Z</time>
      </trkpt>
      <trkpt lat="46.09666" lon="6.5914">
        <ele>636</ele>
        <time>2019-06-11T14:01:21Z</time>
      </trkpt>
      <trkpt lat="46.09668" lon="6.59108">
        <ele>636</ele>
        <time>2019-06-11T14:01:25Z</time>
      </trkpt>
      <trkpt lat="46.09662" lon="6.59035">
        <ele>635</ele>
        <time>2019-06-11T14:01:35Z</time>
      </trkpt>
      <trkpt lat="46.09664" lon="6.59021">
        <ele>634</ele>
        <time>2019-06-11T14:01:36Z</time>
      </trkpt>
      <trkpt lat="46.0967" lon="6.59003">
        <ele>633</ele>
        <time>2019-06-11T14:01:39Z</time>
      </trkpt>
      <trkpt lat="46.09675" lon="6.58997">
        <ele>632</ele>
        <time>2019-06-11T14:01:40Z</time>
      </trkpt>
      <trkpt lat="46.09686" lon="6.58987">
        <ele>630</ele>
        <time>2019-06-11T14:01:42Z</time>
      </trkpt>
      <trkpt lat="46.09706" lon="6.58985">
        <ele>627</ele>
        <time>2019-06-11T14:01:46Z</time>
      </trkpt>
      <trkpt lat="46.09877" lon="6.59004">
        <ele>623</ele>
        <time>2019-06-11T14:02:16Z</time>
      </trkpt>
      <trkpt lat="46.10377" lon="6.59062">
        <ele>634</ele>
        <time>2019-06-11T14:03:46Z</time>
      </trkpt>
      <trkpt lat="46.10509" lon="6.59078">
        <ele>638</ele>
        <time>2019-06-11T14:04:09Z</time>
      </trkpt>
      <trkpt lat="46.10531" lon="6.59083">
        <ele>639</ele>
        <time>2019-06-11T14:04:13Z</time>
      </trkpt>
      <trkpt lat="46.10547" lon="6.59082">
        <ele>639</ele>
        <time>2019-06-11T14:04:16Z</time>
      </trkpt>
      <trkpt lat="46.10743" lon="6.59105">
        <ele>644</ele>
        <time>2019-06-11T14:04:51Z</time>
      </trkpt>
      <trkpt lat="46.10768" lon="6.59112">
        <ele>646</ele>
        <time>2019-06-11T14:04:55Z</time>
      </trkpt>
      <trkpt lat="46.10782" lon="6.59122">
        <ele>647</ele>
        <time>2019-06-11T14:04:58Z</time>
      </trkpt>
      <trkpt lat="46.10782" lon="6.59127">
        <ele>647</ele>
        <time>2019-06-11T14:04:59Z</time>
      </trkpt>
      <trkpt lat="46.10784" lon="6.59132">
        <ele>648</ele>
        <time>2019-06-11T14:05:00Z</time>
      </trkpt>
      <trkpt lat="46.10787" lon="6.59134">
        <ele>648</ele>
        <time>2019-06-11T14:05:00Z</time>
      </trkpt>
      <trkpt lat="46.10756" lon="6.59228">
        <ele>647</ele>
        <time>2019-06-11T14:05:13Z</time>
      </trkpt>
      <trkpt lat="46.10742" lon="6.59279">
        <ele>646</ele>
        <time>2019-06-11T14:05:20Z</time>
      </trkpt>
      <trkpt lat="46.10741" lon="6.5929">
        <ele>646</ele>
        <time>2019-06-11T14:05:21Z</time>
      </trkpt>
      <trkpt lat="46.10738" lon="6.59298">
        <ele>645</ele>
        <time>2019-06-11T14:05:22Z</time>
      </trkpt>
      <trkpt lat="46.10727" lon="6.59341">
        <ele>644</ele>
        <time>2019-06-11T14:05:28Z</time>
      </trkpt>
      <trkpt lat="46.10722" lon="6.59374">
        <ele>642</ele>
        <time>2019-06-11T14:05:32Z</time>
      </trkpt>
      <trkpt lat="46.10697" lon="6.59787">
        <ele>633</ele>
        <time>2019-06-11T14:06:23Z</time>
      </trkpt>
      <trkpt lat="46.10688" lon="6.59883">
        <ele>632</ele>
        <time>2019-06-11T14:06:35Z</time>
      </trkpt>
      <trkpt lat="46.10669" lon="6.59997">
        <ele>631</ele>
        <time>2019-06-11T14:06:50Z</time>
      </trkpt>
      <trkpt lat="46.10665" lon="6.60035">
        <ele>631</ele>
        <time>2019-06-11T14:06:54Z</time>
      </trkpt>
      <trkpt lat="46.10654" lon="6.604">
        <ele>631</ele>
        <time>2019-06-11T14:07:39Z</time>
      </trkpt>
      <trkpt lat="46.1065" lon="6.6043">
        <ele>632</ele>
        <time>2019-06-11T14:07:43Z</time>
      </trkpt>
      <trkpt lat="46.10625" lon="6.60544">
        <ele>630</ele>
        <time>2019-06-11T14:07:58Z</time>
      </trkpt>
      <trkpt lat="46.10612" lon="6.60674">
        <ele>630</ele>
        <time>2019-06-11T14:08:14Z</time>
      </trkpt>
      <trkpt lat="46.10607" lon="6.60757">
        <ele>629</ele>
        <time>2019-06-11T14:08:24Z</time>
      </trkpt>
      <trkpt lat="46.10606" lon="6.60787">
        <ele>629</ele>
        <time>2019-06-11T14:08:28Z</time>
      </trkpt>
      <trkpt lat="46.10597" lon="6.61377">
        <ele>634</ele>
        <time>2019-06-11T14:09:41Z</time>
      </trkpt>
      <trkpt lat="46.10594" lon="6.61419">
        <ele>635</ele>
        <time>2019-06-11T14:09:46Z</time>
      </trkpt>
      <trkpt lat="46.10577" lon="6.61524">
        <ele>636</ele>
        <time>2019-06-11T14:09:59Z</time>
      </trkpt>
      <trkpt lat="46.10563" lon="6.61585">
        <ele>637</ele>
        <time>2019-06-11T14:10:07Z</time>
      </trkpt>
      <trkpt lat="46.10558" lon="6.61628">
        <ele>637</ele>
        <time>2019-06-11T14:10:13Z</time>
      </trkpt>
      <trkpt lat="46.10559" lon="6.62002">
        <ele>636</ele>
        <time>2019-06-11T14:10:59Z</time>
      </trkpt>
      <trkpt lat="46.10557" lon="6.6205">
        <ele>638</ele>
        <time>2019-06-11T14:11:05Z</time>
      </trkpt>
      <trkpt lat="46.10554" lon="6.62077">
        <ele>639</ele>
        <time>2019-06-11T14:11:08Z</time>
      </trkpt>
      <trkpt lat="46.10536" lon="6.62192">
        <ele>640</ele>
        <time>2019-06-11T14:11:23Z</time>
      </trkpt>
      <trkpt lat="46.10516" lon="6.62287">
        <ele>642</ele>
        <time>2019-06-11T14:11:35Z</time>
      </trkpt>
      <trkpt lat="46.10424" lon="6.62588">
        <ele>642</ele>
        <time>2019-06-11T14:12:16Z</time>
      </trkpt>
      <trkpt lat="46.10359" lon="6.6277">
        <ele>637</ele>
        <time>2019-06-11T14:12:41Z</time>
      </trkpt>
      <trkpt lat="46.10305" lon="6.62889">
        <ele>639</ele>
        <time>2019-06-11T14:12:58Z</time>
      </trkpt>
      <trkpt lat="46.10259" lon="6.63005">
        <ele>638</ele>
        <time>2019-06-11T14:13:15Z</time>
      </trkpt>
      <trkpt lat="46.10168" lon="6.63268">
        <ele>644</ele>
        <time>2019-06-11T14:13:51Z</time>
      </trkpt>
      <trkpt lat="46.10158" lon="6.63305">
        <ele>646</ele>
        <time>2019-06-11T14:13:56Z</time>
      </trkpt>
      <trkpt lat="46.10151" lon="6.63343">
        <ele>647</ele>
        <time>2019-06-11T14:14:01Z</time>
      </trkpt>
      <trkpt lat="46.10139" lon="6.63565">
        <ele>643</ele>
        <time>2019-06-11T14:14:28Z</time>
      </trkpt>
      <trkpt lat="46.1013" lon="6.63649">
        <ele>643</ele>
        <time>2019-06-11T14:14:39Z</time>
      </trkpt>
      <trkpt lat="46.10123" lon="6.63702">
        <ele>644</ele>
        <time>2019-06-11T14:14:45Z</time>
      </trkpt>
      <trkpt lat="46.10108" lon="6.63781">
        <ele>644</ele>
        <time>2019-06-11T14:14:56Z</time>
      </trkpt>
      <trkpt lat="46.10034" lon="6.64151">
        <ele>644</ele>
        <time>2019-06-11T14:15:43Z</time>
      </trkpt>
      <trkpt lat="46.09892" lon="6.6502">
        <ele>650</ele>
        <time>2019-06-11T14:17:33Z</time>
      </trkpt>
      <trkpt lat="46.09871" lon="6.65141">
        <ele>653</ele>
        <time>2019-06-11T14:17:49Z</time>
      </trkpt>
      <trkpt lat="46.09859" lon="6.65198">
        <ele>653</ele>
        <time>2019-06-11T14:17:56Z</time>
      </trkpt>
      <trkpt lat="46.09665" lon="6.65893">
        <ele>654</ele>
        <time>2019-06-11T14:19:28Z</time>
      </trkpt>
      <trkpt lat="46.096" lon="6.66098">
        <ele>656</ele>
        <time>2019-06-11T14:19:56Z</time>
      </trkpt>
      <trkpt lat="46.09511" lon="6.66415">
        <ele>665</ele>
        <time>2019-06-11T14:20:38Z</time>
      </trkpt>
      <trkpt lat="46.095" lon="6.66449">
        <ele>663</ele>
        <time>2019-06-11T14:20:43Z</time>
      </trkpt>
      <trkpt lat="46.09485" lon="6.6649">
        <ele>661</ele>
        <time>2019-06-11T14:20:49Z</time>
      </trkpt>
      <trkpt lat="46.09467" lon="6.66527">
        <ele>661</ele>
        <time>2019-06-11T14:20:54Z</time>
      </trkpt>
      <trkpt lat="46.09438" lon="6.66577">
        <ele>660</ele>
        <time>2019-06-11T14:21:02Z</time>
      </trkpt>
      <trkpt lat="46.09345" lon="6.66728">
        <ele>661</ele>
        <time>2019-06-11T14:21:27Z</time>
      </trkpt>
      <trkpt lat="46.09324" lon="6.66778">
        <ele>659</ele>
        <time>2019-06-11T14:21:35Z</time>
      </trkpt>
      <trkpt lat="46.09169" lon="6.67174">
        <ele>664</ele>
        <time>2019-06-11T14:22:31Z</time>
      </trkpt>
      <trkpt lat="46.09128" lon="6.67286">
        <ele>666</ele>
        <time>2019-06-11T14:22:46Z</time>
      </trkpt>
      <trkpt lat="46.09025" lon="6.67605">
        <ele>665</ele>
        <time>2019-06-11T14:23:30Z</time>
      </trkpt>
      <trkpt lat="46.08951" lon="6.67845">
        <ele>668</ele>
        <time>2019-06-11T14:24:02Z</time>
      </trkpt>
      <trkpt lat="46.08929" lon="6.67924">
        <ele>671</ele>
        <time>2019-06-11T14:24:13Z</time>
      </trkpt>
      <trkpt lat="46.08922" lon="6.67929">
        <ele>671</ele>
        <time>2019-06-11T14:24:14Z</time>
      </trkpt>
      <trkpt lat="46.08887" lon="6.67912">
        <ele>671</ele>
        <time>2019-06-11T14:24:21Z</time>
      </trkpt>
      <trkpt lat="46.0874" lon="6.67886">
        <ele>670</ele>
        <time>2019-06-11T14:24:47Z</time>
      </trkpt>
      <trkpt lat="46.08687" lon="6.67878">
        <ele>670</ele>
        <time>2019-06-11T14:24:56Z</time>
      </trkpt>
      <trkpt lat="46.0874" lon="6.67886">
        <ele>670</ele>
        <time>2019-06-11T14:25:06Z</time>
      </trkpt>
      <trkpt lat="46.08887" lon="6.67912">
        <ele>671</ele>
        <time>2019-06-11T14:25:32Z</time>
      </trkpt>
      <trkpt lat="46.08922" lon="6.67929">
        <ele>671</ele>
        <time>2019-06-11T14:25:39Z</time>
      </trkpt>
      <trkpt lat="46.08921" lon="6.67933">
        <ele>671</ele>
        <time>2019-06-11T14:25:39Z</time>
      </trkpt>
      <trkpt lat="46.0892" lon="6.67942">
        <ele>672</ele>
        <time>2019-06-11T14:25:40Z</time>
      </trkpt>
      <trkpt lat="46.08924" lon="6.67949">
        <ele>672</ele>
        <time>2019-06-11T14:25:42Z</time>
      </trkpt>
      <trkpt lat="46.08927" lon="6.6795">
        <ele>672</ele>
        <time>2019-06-11T14:25:42Z</time>
      </trkpt>
      <trkpt lat="46.08882" lon="6.68453">
        <ele>685</ele>
        <time>2019-06-11T14:26:45Z</time>
      </trkpt>
      <trkpt lat="46.0885" lon="6.68788">
        <ele>681</ele>
        <time>2019-06-11T14:27:26Z</time>
      </trkpt>
      <trkpt lat="46.08843" lon="6.68843">
        <ele>681</ele>
        <time>2019-06-11T14:27:33Z</time>
      </trkpt>
      <trkpt lat="46.08837" lon="6.68877">
        <ele>681</ele>
        <time>2019-06-11T14:27:38Z</time>
      </trkpt>
      <trkpt lat="46.08794" lon="6.69032">
        <ele>681</ele>
        <time>2019-06-11T14:27:58Z</time>
      </trkpt>
      <trkpt lat="46.08776" lon="6.69102">
        <ele>681</ele>
        <time>2019-06-11T14:28:07Z</time>
      </trkpt>
      <trkpt lat="46.08725" lon="6.69396">
        <ele>685</ele>
        <time>2019-06-11T14:28:45Z</time>
      </trkpt>
      <trkpt lat="46.08585" lon="6.70218">
        <ele>685</ele>
        <time>2019-06-11T14:30:29Z</time>
      </trkpt>
      <trkpt lat="46.08519" lon="6.70578">
        <ele>684</ele>
        <time>2019-06-11T14:31:15Z</time>
      </trkpt>
      <trkpt lat="46.085" lon="6.70673">
        <ele>684</ele>
        <time>2019-06-11T14:31:27Z</time>
      </trkpt>
      <trkpt lat="46.08468" lon="6.70847">
        <ele>688</ele>
        <time>2019-06-11T14:31:50Z</time>
      </trkpt>
      <trkpt lat="46.0846" lon="6.709">
        <ele>688</ele>
        <time>2019-06-11T14:31:56Z</time>
      </trkpt>
      <trkpt lat="46.08452" lon="6.70971">
        <ele>688</ele>
        <time>2019-06-11T14:32:05Z</time>
      </trkpt>
      <trkpt lat="46.08448" lon="6.7101">
        <ele>689</ele>
        <time>2019-06-11T14:32:10Z</time>
      </trkpt>
      <trkpt lat="46.08443" lon="6.7111">
        <ele>691</ele>
        <time>2019-06-11T14:32:23Z</time>
      </trkpt>
      <trkpt lat="46.08441" lon="6.71196">
        <ele>695</ele>
        <time>2019-06-11T14:32:33Z</time>
      </trkpt>
      <trkpt lat="46.08442" lon="6.71266">
        <ele>697</ele>
        <time>2019-06-11T14:32:42Z</time>
      </trkpt>
      <trkpt lat="46.08445" lon="6.71331">
        <ele>699</ele>
        <time>2019-06-11T14:32:50Z</time>
      </trkpt>
      <trkpt lat="46.08452" lon="6.71425">
        <ele>700</ele>
        <time>2019-06-11T14:33:01Z</time>
      </trkpt>
      <trkpt lat="46.0846" lon="6.71504">
        <ele>697</ele>
        <time>2019-06-11T14:33:11Z</time>
      </trkpt>
      <trkpt lat="46.08465" lon="6.71528">
        <ele>698</ele>
        <time>2019-06-11T14:33:14Z</time>
      </trkpt>
      <trkpt lat="46.08474" lon="6.71553">
        <ele>698</ele>
        <time>2019-06-11T14:33:18Z</time>
      </trkpt>
      <trkpt lat="46.08522" lon="6.71645">
        <ele>701</ele>
        <time>2019-06-11T14:33:32Z</time>
      </trkpt>
      <trkpt lat="46.08533" lon="6.7167">
        <ele>701</ele>
        <time>2019-06-11T14:33:36Z</time>
      </trkpt>
      <trkpt lat="46.08538" lon="6.71688">
        <ele>701</ele>
        <time>2019-06-11T14:33:38Z</time>
      </trkpt>
      <trkpt lat="46.08541" lon="6.71724">
        <ele>700</ele>
        <time>2019-06-11T14:33:43Z</time>
      </trkpt>
      <trkpt lat="46.08539" lon="6.71745">
        <ele>700</ele>
        <time>2019-06-11T14:33:45Z</time>
      </trkpt>
      <trkpt lat="46.08475" lon="6.72012">
        <ele>695</ele>
        <time>2019-06-11T14:34:20Z</time>
      </trkpt>
      <trkpt lat="46.08435" lon="6.72188">
        <ele>701</ele>
        <time>2019-06-11T14:34:43Z</time>
      </trkpt>
      <trkpt lat="46.08429" lon="6.72241">
        <ele>702</ele>
        <time>2019-06-11T14:34:50Z</time>
      </trkpt>
      <trkpt lat="46.08428" lon="6.72244">
        <ele>702</ele>
        <time>2019-06-11T14:34:50Z</time>
      </trkpt>
      <trkpt lat="46.08417" lon="6.7225">
        <ele>701</ele>
        <time>2019-06-11T14:34:52Z</time>
      </trkpt>
      <trkpt lat="46.08415" lon="6.72249">
        <ele>701</ele>
        <time>2019-06-11T14:34:52Z</time>
      </trkpt>
      <trkpt lat="46.08339" lon="6.72191">
        <ele>698</ele>
        <time>2019-06-11T14:35:08Z</time>
      </trkpt>
      <trkpt lat="46.08228" lon="6.72384">
        <ele>700</ele>
        <time>2019-06-11T14:35:39Z</time>
      </trkpt>
      <trkpt lat="46.08227" lon="6.72393">
        <ele>700</ele>
        <time>2019-06-11T14:35:40Z</time>
      </trkpt>
      <trkpt lat="46.08228" lon="6.72401">
        <ele>700</ele>
        <time>2019-06-11T14:35:41Z</time>
      </trkpt>
      <trkpt lat="46.08226" lon="6.72404">
        <ele>701</ele>
        <time>2019-06-11T14:35:41Z</time>
      </trkpt>
      <trkpt lat="46.08065" lon="6.72698">
        <ele>705</ele>
        <time>2019-06-11T14:36:28Z</time>
      </trkpt>
      <trkpt lat="46.08055" lon="6.72696">
        <ele>705</ele>
        <time>2019-06-11T14:36:29Z</time>
      </trkpt>
      <trkpt lat="46.08051" lon="6.72698">
        <ele>706</ele>
        <time>2019-06-11T14:36:30Z</time>
      </trkpt>
      <trkpt lat="46.08047" lon="6.72705">
        <ele>706</ele>
        <time>2019-06-11T14:36:31Z</time>
      </trkpt>
      <trkpt lat="46.08046" lon="6.72714">
        <ele>706</ele>
        <time>2019-06-11T14:36:32Z</time>
      </trkpt>
      <trkpt lat="46.0804" lon="6.72739">
        <ele>707</ele>
        <time>2019-06-11T14:36:36Z</time>
      </trkpt>
      <trkpt lat="46.08035" lon="6.72754">
        <ele>708</ele>
        <time>2019-06-11T14:36:38Z</time>
      </trkpt>
      <trkpt lat="46.0802" lon="6.72787">
        <ele>708</ele>
        <time>2019-06-11T14:36:43Z</time>
      </trkpt>
      <trkpt lat="46.0792" lon="6.72963">
        <ele>714</ele>
        <time>2019-06-11T14:37:11Z</time>
      </trkpt>
      <trkpt lat="46.07806" lon="6.73173">
        <ele>709</ele>
        <time>2019-06-11T14:37:44Z</time>
      </trkpt>
      <trkpt lat="46.078" lon="6.73182">
        <ele>709</ele>
        <time>2019-06-11T14:37:45Z</time>
      </trkpt>
      <trkpt lat="46.07793" lon="6.73186">
        <ele>709</ele>
        <time>2019-06-11T14:37:46Z</time>
      </trkpt>
      <trkpt lat="46.07787" lon="6.73187">
        <ele>709</ele>
        <time>2019-06-11T14:37:48Z</time>
      </trkpt>
      <trkpt lat="46.07787" lon="6.73207">
        <ele>709</ele>
        <time>2019-06-11T14:37:50Z</time>
      </trkpt>
      <trkpt lat="46.07789" lon="6.73228">
        <ele>709</ele>
        <time>2019-06-11T14:37:53Z</time>
      </trkpt>
      <trkpt lat="46.07794" lon="6.73244">
        <ele>710</ele>
        <time>2019-06-11T14:37:55Z</time>
      </trkpt>
      <trkpt lat="46.07802" lon="6.73257">
        <ele>710</ele>
        <time>2019-06-11T14:37:57Z</time>
      </trkpt>
      <trkpt lat="46.07815" lon="6.73266">
        <ele>710</ele>
        <time>2019-06-11T14:37:59Z</time>
      </trkpt>
      <trkpt lat="46.07807" lon="6.73318">
        <ele>710</ele>
        <time>2019-06-11T14:38:06Z</time>
      </trkpt>
      <trkpt lat="46.07803" lon="6.73337">
        <ele>709</ele>
        <time>2019-06-11T14:38:09Z</time>
      </trkpt>
      <trkpt lat="46.07784" lon="6.73404">
        <ele>707</ele>
        <time>2019-06-11T14:38:17Z</time>
      </trkpt>
      <trkpt lat="46.0778" lon="6.73429">
        <ele>706</ele>
        <time>2019-06-11T14:38:21Z</time>
      </trkpt>
      <trkpt lat="46.07778" lon="6.73432">
        <ele>706</ele>
        <time>2019-06-11T14:38:21Z</time>
      </trkpt>
      <trkpt lat="46.07782" lon="6.73437">
        <ele>706</ele>
        <time>2019-06-11T14:38:22Z</time>
      </trkpt>
      <trkpt lat="46.07778" lon="6.73432">
        <ele>706</ele>
        <time>2019-06-11T14:38:23Z</time>
      </trkpt>
      <trkpt lat="46.07739" lon="6.73469">
        <ele>705</ele>
        <time>2019-06-11T14:38:31Z</time>
      </trkpt>
      <trkpt lat="46.07702" lon="6.73497">
        <ele>705</ele>
        <time>2019-06-11T14:38:39Z</time>
      </trkpt>
      <trkpt lat="46.07541" lon="6.73591">
        <ele>708</ele>
        <time>2019-06-11T14:39:10Z</time>
      </trkpt>
      <trkpt lat="46.07491" lon="6.73624">
        <ele>708</ele>
        <time>2019-06-11T14:39:19Z</time>
      </trkpt>
      <trkpt lat="46.06841" lon="6.74102">
        <ele>714</ele>
        <time>2019-06-11T14:41:29Z</time>
      </trkpt>
      <trkpt lat="46.06731" lon="6.74186">
        <ele>716</ele>
        <time>2019-06-11T14:41:51Z</time>
      </trkpt>
      <trkpt lat="46.06485" lon="6.74364">
        <ele>720</ele>
        <time>2019-06-11T14:42:40Z</time>
      </trkpt>
      <trkpt lat="46.06443" lon="6.74391">
        <ele>721</ele>
        <time>2019-06-11T14:42:49Z</time>
      </trkpt>
      <trkpt lat="46.06393" lon="6.74415">
        <ele>723</ele>
        <time>2019-06-11T14:42:58Z</time>
      </trkpt>
      <trkpt lat="46.06358" lon="6.74427">
        <ele>724</ele>
        <time>2019-06-11T14:43:04Z</time>
      </trkpt>
      <trkpt lat="46.06327" lon="6.74434">
        <ele>725</ele>
        <time>2019-06-11T14:43:10Z</time>
      </trkpt>
      <trkpt lat="46.06248" lon="6.74442">
        <ele>725</ele>
        <time>2019-06-11T14:43:24Z</time>
      </trkpt>
      <trkpt lat="46.06125" lon="6.74448">
        <ele>725</ele>
        <time>2019-06-11T14:43:46Z</time>
      </trkpt>
      <trkpt lat="46.06042" lon="6.74454">
        <ele>727</ele>
        <time>2019-06-11T14:44:01Z</time>
      </trkpt>
      <trkpt lat="46.06023" lon="6.74459">
        <ele>727</ele>
        <time>2019-06-11T14:44:04Z</time>
      </trkpt>
      <trkpt lat="46.05997" lon="6.74471">
        <ele>728</ele>
        <time>2019-06-11T14:44:09Z</time>
      </trkpt>
      <trkpt lat="46.05987" lon="6.74481">
        <ele>728</ele>
        <time>2019-06-11T14:44:11Z</time>
      </trkpt>
      <trkpt lat="46.05969" lon="6.74504">
        <ele>728</ele>
        <time>2019-06-11T14:44:15Z</time>
      </trkpt>
      <trkpt lat="46.05928" lon="6.7458">
        <ele>729</ele>
        <time>2019-06-11T14:44:27Z</time>
      </trkpt>
      <trkpt lat="46.05847" lon="6.74722">
        <ele>746</ele>
        <time>2019-06-11T14:44:50Z</time>
      </trkpt>
      <trkpt lat="46.05811" lon="6.74792">
        <ele>753</ele>
        <time>2019-06-11T14:45:01Z</time>
      </trkpt>
      <trkpt lat="46.05802" lon="6.74806">
        <ele>753</ele>
        <time>2019-06-11T14:45:03Z</time>
      </trkpt>
      <trkpt lat="46.05757" lon="6.74866">
        <ele>746</ele>
        <time>2019-06-11T14:45:14Z</time>
      </trkpt>
      <trkpt lat="46.05744" lon="6.74888">
        <ele>747</ele>
        <time>2019-06-11T14:45:18Z</time>
      </trkpt>
      <trkpt lat="46.05741" lon="6.749">
        <ele>748</ele>
        <time>2019-06-11T14:45:19Z</time>
      </trkpt>
      <trkpt lat="46.0574" lon="6.74914">
        <ele>749</ele>
        <time>2019-06-11T14:45:21Z</time>
      </trkpt>
      <trkpt lat="46.05744" lon="6.74981">
        <ele>748</ele>
        <time>2019-06-11T14:45:29Z</time>
      </trkpt>
      <trkpt lat="46.05749" lon="6.75003">
        <ele>749</ele>
        <time>2019-06-11T14:45:32Z</time>
      </trkpt>
      <trkpt lat="46.05764" lon="6.75038">
        <ele>750</ele>
        <time>2019-06-11T14:45:37Z</time>
      </trkpt>
      <trkpt lat="46.05783" lon="6.75071">
        <ele>752</ele>
        <time>2019-06-11T14:45:42Z</time>
      </trkpt>
      <trkpt lat="46.05798" lon="6.75087">
        <ele>753</ele>
        <time>2019-06-11T14:45:46Z</time>
      </trkpt>
      <trkpt lat="46.05834" lon="6.75116">
        <ele>757</ele>
        <time>2019-06-11T14:45:53Z</time>
      </trkpt>
      <trkpt lat="46.05845" lon="6.75131">
        <ele>760</ele>
        <time>2019-06-11T14:45:56Z</time>
      </trkpt>
      <trkpt lat="46.05851" lon="6.75144">
        <ele>761</ele>
        <time>2019-06-11T14:45:58Z</time>
      </trkpt>
      <trkpt lat="46.05861" lon="6.7518">
        <ele>762</ele>
        <time>2019-06-11T14:46:03Z</time>
      </trkpt>
      <trkpt lat="46.05884" lon="6.75313">
        <ele>763</ele>
        <time>2019-06-11T14:46:19Z</time>
      </trkpt>
      <trkpt lat="46.05887" lon="6.75336">
        <ele>763</ele>
        <time>2019-06-11T14:46:22Z</time>
      </trkpt>
      <trkpt lat="46.05886" lon="6.75372">
        <ele>768</ele>
        <time>2019-06-11T14:46:27Z</time>
      </trkpt>
      <trkpt lat="46.05878" lon="6.75426">
        <ele>772</ele>
        <time>2019-06-11T14:46:34Z</time>
      </trkpt>
      <trkpt lat="46.05832" lon="6.75546">
        <ele>782</ele>
        <time>2019-06-11T14:46:51Z</time>
      </trkpt>
      <trkpt lat="46.05818" lon="6.75567">
        <ele>784</ele>
        <time>2019-06-11T14:46:54Z</time>
      </trkpt>
      <trkpt lat="46.05813" lon="6.75573">
        <ele>784</ele>
        <time>2019-06-11T14:46:55Z</time>
      </trkpt>
      <trkpt lat="46.05738" lon="6.75632">
        <ele>783</ele>
        <time>2019-06-11T14:47:11Z</time>
      </trkpt>
      <trkpt lat="46.05671" lon="6.75692">
        <ele>783</ele>
        <time>2019-06-11T14:47:25Z</time>
      </trkpt>
      <trkpt lat="46.05651" lon="6.75713">
        <ele>786</ele>
        <time>2019-06-11T14:47:29Z</time>
      </trkpt>
      <trkpt lat="46.05637" lon="6.75736">
        <ele>791</ele>
        <time>2019-06-11T14:47:33Z</time>
      </trkpt>
      <trkpt lat="46.056" lon="6.75809">
        <ele>792</ele>
        <time>2019-06-11T14:47:44Z</time>
      </trkpt>
      <trkpt lat="46.05557" lon="6.75904">
        <ele>787</ele>
        <time>2019-06-11T14:47:58Z</time>
      </trkpt>
      <trkpt lat="46.05551" lon="6.75928">
        <ele>785</ele>
        <time>2019-06-11T14:48:01Z</time>
      </trkpt>
      <trkpt lat="46.05551" lon="6.75953">
        <ele>782</ele>
        <time>2019-06-11T14:48:04Z</time>
      </trkpt>
      <trkpt lat="46.05559" lon="6.75979">
        <ele>778</ele>
        <time>2019-06-11T14:48:08Z</time>
      </trkpt>
      <trkpt lat="46.05565" lon="6.7599">
        <ele>776</ele>
        <time>2019-06-11T14:48:09Z</time>
      </trkpt>
      <trkpt lat="46.05608" lon="6.76048">
        <ele>778</ele>
        <time>2019-06-11T14:48:20Z</time>
      </trkpt>
      <trkpt lat="46.05619" lon="6.76068">
        <ele>782</ele>
        <time>2019-06-11T14:48:23Z</time>
      </trkpt>
      <trkpt lat="46.05623" lon="6.76082">
        <ele>783</ele>
        <time>2019-06-11T14:48:25Z</time>
      </trkpt>
      <trkpt lat="46.05626" lon="6.76102">
        <ele>783</ele>
        <time>2019-06-11T14:48:27Z</time>
      </trkpt>
      <trkpt lat="46.05626" lon="6.76125">
        <ele>782</ele>
        <time>2019-06-11T14:48:30Z</time>
      </trkpt>
      <trkpt lat="46.05623" lon="6.76146">
        <ele>779</ele>
        <time>2019-06-11T14:48:33Z</time>
      </trkpt>
      <trkpt lat="46.05612" lon="6.76203">
        <ele>777</ele>
        <time>2019-06-11T14:48:40Z</time>
      </trkpt>
      <trkpt lat="46.05605" lon="6.76222">
        <ele>776</ele>
        <time>2019-06-11T14:48:43Z</time>
      </trkpt>
      <trkpt lat="46.05602" lon="6.76228">
        <ele>776</ele>
        <time>2019-06-11T14:48:44Z</time>
      </trkpt>
      <trkpt lat="46.05565" lon="6.76276">
        <ele>770</ele>
        <time>2019-06-11T14:48:53Z</time>
      </trkpt>
      <trkpt lat="46.05549" lon="6.76308">
        <ele>769</ele>
        <time>2019-06-11T14:48:57Z</time>
      </trkpt>
      <trkpt lat="46.05542" lon="6.76334">
        <ele>770</ele>
        <time>2019-06-11T14:49:01Z</time>
      </trkpt>
      <trkpt lat="46.05536" lon="6.76368">
        <ele>770</ele>
        <time>2019-06-11T14:49:05Z</time>
      </trkpt>
      <trkpt lat="46.05535" lon="6.76387">
        <ele>771</ele>
        <time>2019-06-11T14:49:08Z</time>
      </trkpt>
      <trkpt lat="46.05537" lon="6.76419">
        <ele>774</ele>
        <time>2019-06-11T14:49:12Z</time>
      </trkpt>
      <trkpt lat="46.05544" lon="6.76475">
        <ele>776</ele>
        <time>2019-06-11T14:49:19Z</time>
      </trkpt>
      <trkpt lat="46.05542" lon="6.76519">
        <ele>778</ele>
        <time>2019-06-11T14:49:24Z</time>
      </trkpt>
      <trkpt lat="46.05513" lon="6.76651">
        <ele>777</ele>
        <time>2019-06-11T14:49:41Z</time>
      </trkpt>
      <trkpt lat="46.05506" lon="6.76704">
        <ele>773</ele>
        <time>2019-06-11T14:49:48Z</time>
      </trkpt>
      <trkpt lat="46.05506" lon="6.7681">
        <ele>770</ele>
        <time>2019-06-11T14:50:01Z</time>
      </trkpt>
      <trkpt lat="46.05507" lon="6.76846">
        <ele>769</ele>
        <time>2019-06-11T14:50:05Z</time>
      </trkpt>
      <trkpt lat="46.05518" lon="6.76946">
        <ele>779</ele>
        <time>2019-06-11T14:50:18Z</time>
      </trkpt>
      <trkpt lat="46.0552" lon="6.7698">
        <ele>783</ele>
        <time>2019-06-11T14:50:22Z</time>
      </trkpt>
      <trkpt lat="46.05519" lon="6.76998">
        <ele>783</ele>
        <time>2019-06-11T14:50:24Z</time>
      </trkpt>
      <trkpt lat="46.05509" lon="6.77096">
        <ele>775</ele>
        <time>2019-06-11T14:50:37Z</time>
      </trkpt>
      <trkpt lat="46.05489" lon="6.77217">
        <ele>766</ele>
        <time>2019-06-11T14:50:52Z</time>
      </trkpt>
      <trkpt lat="46.05485" lon="6.7726">
        <ele>765</ele>
        <time>2019-06-11T14:50:57Z</time>
      </trkpt>
      <trkpt lat="46.05486" lon="6.77294">
        <ele>765</ele>
        <time>2019-06-11T14:51:01Z</time>
      </trkpt>
      <trkpt lat="46.05494" lon="6.77367">
        <ele>764</ele>
        <time>2019-06-11T14:51:11Z</time>
      </trkpt>
      <trkpt lat="46.05528" lon="6.77564">
        <ele>769</ele>
        <time>2019-06-11T14:51:36Z</time>
      </trkpt>
      <trkpt lat="46.05508" lon="6.77454">
        <ele>766</ele>
        <time>2019-06-11T14:51:50Z</time>
      </trkpt>
      <trkpt lat="46.05478" lon="6.77461">
        <ele>763</ele>
        <time>2019-06-11T14:51:55Z</time>
      </trkpt>
      <trkpt lat="46.0543" lon="6.77311">
        <ele>760</ele>
        <time>2019-06-11T14:52:15Z</time>
      </trkpt>
      <trkpt lat="46.05425" lon="6.77288">
        <ele>760</ele>
        <time>2019-06-11T14:52:18Z</time>
      </trkpt>
      <trkpt lat="46.05383" lon="6.77168">
        <ele>756</ele>
        <time>2019-06-11T14:52:35Z</time>
      </trkpt>
      <trkpt lat="46.05295" lon="6.76928">
        <ele>755</ele>
        <time>2019-06-11T14:53:09Z</time>
      </trkpt>
      <trkpt lat="46.05282" lon="6.76918">
        <ele>757</ele>
        <time>2019-06-11T14:53:11Z</time>
      </trkpt>
      <trkpt lat="46.0526" lon="6.76911">
        <ele>760</ele>
        <time>2019-06-11T14:53:15Z</time>
      </trkpt>
      <trkpt lat="46.05251" lon="6.76905">
        <ele>761</ele>
        <time>2019-06-11T14:53:17Z</time>
      </trkpt>
      <trkpt lat="46.05242" lon="6.76896">
        <ele>762</ele>
        <time>2019-06-11T14:53:19Z</time>
      </trkpt>
      <trkpt lat="46.05235" lon="6.76884">
        <ele>762</ele>
        <time>2019-06-11T14:53:21Z</time>
      </trkpt>
      <trkpt lat="46.05233" lon="6.76878">
        <ele>761</ele>
        <time>2019-06-11T14:53:22Z</time>
      </trkpt>
      <trkpt lat="46.05229" lon="6.76846">
        <ele>759</ele>
        <time>2019-06-11T14:53:26Z</time>
      </trkpt>
      <trkpt lat="46.05221" lon="6.76829">
        <ele>758</ele>
        <time>2019-06-11T14:53:28Z</time>
      </trkpt>
      <trkpt lat="46.05175" lon="6.76767">
        <ele>757</ele>
        <time>2019-06-11T14:53:39Z</time>
      </trkpt>
      <trkpt lat="46.05148" lon="6.76737">
        <ele>758</ele>
        <time>2019-06-11T14:53:45Z</time>
      </trkpt>
      <trkpt lat="46.05111" lon="6.76699">
        <ele>762</ele>
        <time>2019-06-11T14:53:54Z</time>
      </trkpt>
      <trkpt lat="46.05066" lon="6.76656">
        <ele>763</ele>
        <time>2019-06-11T14:54:03Z</time>
      </trkpt>
      <trkpt lat="46.05042" lon="6.76647">
        <ele>764</ele>
        <time>2019-06-11T14:54:08Z</time>
      </trkpt>
      <trkpt lat="46.05028" lon="6.76645">
        <ele>765</ele>
        <time>2019-06-11T14:54:10Z</time>
      </trkpt>
      <trkpt lat="46.04987" lon="6.76645">
        <ele>767</ele>
        <time>2019-06-11T14:54:17Z</time>
      </trkpt>
      <trkpt lat="46.04951" lon="6.76651">
        <ele>769</ele>
        <time>2019-06-11T14:54:24Z</time>
      </trkpt>
      <trkpt lat="46.04943" lon="6.76651">
        <ele>770</ele>
        <time>2019-06-11T14:54:25Z</time>
      </trkpt>
      <trkpt lat="46.04933" lon="6.76648">
        <ele>770</ele>
        <time>2019-06-11T14:54:27Z</time>
      </trkpt>
      <trkpt lat="46.04917" lon="6.76636">
        <ele>770</ele>
        <time>2019-06-11T14:54:30Z</time>
      </trkpt>
      <trkpt lat="46.04911" lon="6.76628">
        <ele>770</ele>
        <time>2019-06-11T14:54:32Z</time>
      </trkpt>
      <trkpt lat="46.04883" lon="6.76587">
        <ele>770</ele>
        <time>2019-06-11T14:54:39Z</time>
      </trkpt>
      <trkpt lat="46.04867" lon="6.76572">
        <ele>770</ele>
        <time>2019-06-11T14:54:42Z</time>
      </trkpt>
      <trkpt lat="46.04854" lon="6.76564">
        <ele>770</ele>
        <time>2019-06-11T14:54:45Z</time>
      </trkpt>
      <trkpt lat="46.0484" lon="6.7656">
        <ele>770</ele>
        <time>2019-06-11T14:54:47Z</time>
      </trkpt>
      <trkpt lat="46.04802" lon="6.76564">
        <ele>775</ele>
        <time>2019-06-11T14:54:54Z</time>
      </trkpt>
      <trkpt lat="46.04781" lon="6.76559">
        <ele>777</ele>
        <time>2019-06-11T14:54:58Z</time>
      </trkpt>
      <trkpt lat="46.04771" lon="6.7656">
        <ele>778</ele>
        <time>2019-06-11T14:55:00Z</time>
      </trkpt>
      <trkpt lat="46.04743" lon="6.76602">
        <ele>786</ele>
        <time>2019-06-11T14:55:07Z</time>
      </trkpt>
      <trkpt lat="46.04738" lon="6.76614">
        <ele>787</ele>
        <time>2019-06-11T14:55:09Z</time>
      </trkpt>
      <trkpt lat="46.04735" lon="6.76624">
        <ele>788</ele>
        <time>2019-06-11T14:55:10Z</time>
      </trkpt>
      <trkpt lat="46.0471" lon="6.76626">
        <ele>789</ele>
        <time>2019-06-11T14:55:14Z</time>
      </trkpt>
      <trkpt lat="46.04705" lon="6.76628">
        <ele>789</ele>
        <time>2019-06-11T14:55:15Z</time>
      </trkpt>
      <trkpt lat="46.04701" lon="6.76634">
        <ele>790</ele>
        <time>2019-06-11T14:55:16Z</time>
      </trkpt>
      <trkpt lat="46.04694" lon="6.76662">
        <ele>794</ele>
        <time>2019-06-11T14:55:20Z</time>
      </trkpt>
      <trkpt lat="46.04684" lon="6.76686">
        <ele>797</ele>
        <time>2019-06-11T14:55:23Z</time>
      </trkpt>
      <trkpt lat="46.0468" lon="6.76711">
        <ele>800</ele>
        <time>2019-06-11T14:55:27Z</time>
      </trkpt>
      <trkpt lat="46.04676" lon="6.76769">
        <ele>807</ele>
        <time>2019-06-11T14:55:34Z</time>
      </trkpt>
      <trkpt lat="46.04677" lon="6.76825">
        <ele>814</ele>
        <time>2019-06-11T14:55:41Z</time>
      </trkpt>
      <trkpt lat="46.04672" lon="6.76949">
        <ele>827</ele>
        <time>2019-06-11T14:55:56Z</time>
      </trkpt>
      <trkpt lat="46.04634" lon="6.76954">
        <ele>830</ele>
        <time>2019-06-11T14:56:03Z</time>
      </trkpt>
      <trkpt lat="46.04594" lon="6.76964">
        <ele>833</ele>
        <time>2019-06-11T14:56:10Z</time>
      </trkpt>
      <trkpt lat="46.04556" lon="6.76977">
        <ele>837</ele>
        <time>2019-06-11T14:56:17Z</time>
      </trkpt>
      <trkpt lat="46.04451" lon="6.77019">
        <ele>845</ele>
        <time>2019-06-11T14:56:36Z</time>
      </trkpt>
      <trkpt lat="46.04392" lon="6.77037">
        <ele>849</ele>
        <time>2019-06-11T14:56:47Z</time>
      </trkpt>
      <trkpt lat="46.04329" lon="6.77048">
        <ele>852</ele>
        <time>2019-06-11T14:56:58Z</time>
      </trkpt>
      <trkpt lat="46.04291" lon="6.77048">
        <ele>853</ele>
        <time>2019-06-11T14:57:05Z</time>
      </trkpt>
      <trkpt lat="46.04222" lon="6.77059">
        <ele>855</ele>
        <time>2019-06-11T14:57:18Z</time>
      </trkpt>
      <trkpt lat="46.04187" lon="6.7707">
        <ele>856</ele>
        <time>2019-06-11T14:57:24Z</time>
      </trkpt>
      <trkpt lat="46.04159" lon="6.77085">
        <ele>857</ele>
        <time>2019-06-11T14:57:29Z</time>
      </trkpt>
      <trkpt lat="46.04095" lon="6.77129">
        <ele>860</ele>
        <time>2019-06-11T14:57:42Z</time>
      </trkpt>
      <trkpt lat="46.0405" lon="6.77177">
        <ele>861</ele>
        <time>2019-06-11T14:57:52Z</time>
      </trkpt>
      <trkpt lat="46.04008" lon="6.77234">
        <ele>862</ele>
        <time>2019-06-11T14:58:02Z</time>
      </trkpt>
      <trkpt lat="46.03987" lon="6.77251">
        <ele>861</ele>
        <time>2019-06-11T14:58:06Z</time>
      </trkpt>
      <trkpt lat="46.03913" lon="6.77298">
        <ele>858</ele>
        <time>2019-06-11T14:58:21Z</time>
      </trkpt>
      <trkpt lat="46.03885" lon="6.77311">
        <ele>860</ele>
        <time>2019-06-11T14:58:26Z</time>
      </trkpt>
      <trkpt lat="46.03873" lon="6.77315">
        <ele>861</ele>
        <time>2019-06-11T14:58:28Z</time>
      </trkpt>
      <trkpt lat="46.03849" lon="6.77315">
        <ele>861</ele>
        <time>2019-06-11T14:58:32Z</time>
      </trkpt>
      <trkpt lat="46.03808" lon="6.77306">
        <ele>858</ele>
        <time>2019-06-11T14:58:40Z</time>
      </trkpt>
      <trkpt lat="46.03792" lon="6.77307">
        <ele>857</ele>
        <time>2019-06-11T14:58:43Z</time>
      </trkpt>
      <trkpt lat="46.03779" lon="6.77311">
        <ele>857</ele>
        <time>2019-06-11T14:58:45Z</time>
      </trkpt>
      <trkpt lat="46.03743" lon="6.77338">
        <ele>860</ele>
        <time>2019-06-11T14:58:52Z</time>
      </trkpt>
      <trkpt lat="46.03728" lon="6.77345">
        <ele>862</ele>
        <time>2019-06-11T14:58:55Z</time>
      </trkpt>
      <trkpt lat="46.03665" lon="6.77367">
        <ele>868</ele>
        <time>2019-06-11T14:59:07Z</time>
      </trkpt>
      <trkpt lat="46.03653" lon="6.77369">
        <ele>871</ele>
        <time>2019-06-11T14:59:09Z</time>
      </trkpt>
      <trkpt lat="46.03641" lon="6.77367">
        <ele>872</ele>
        <time>2019-06-11T14:59:11Z</time>
      </trkpt>
      <trkpt lat="46.03517" lon="6.77303">
        <ele>870</ele>
        <time>2019-06-11T14:59:34Z</time>
      </trkpt>
      <trkpt lat="46.03495" lon="6.77294">
        <ele>870</ele>
        <time>2019-06-11T14:59:38Z</time>
      </trkpt>
      <trkpt lat="46.0348" lon="6.77282">
        <ele>867</ele>
        <time>2019-06-11T14:59:41Z</time>
      </trkpt>
      <trkpt lat="46.03476" lon="6.77276">
        <ele>866</ele>
        <time>2019-06-11T14:59:43Z</time>
      </trkpt>
      <trkpt lat="46.0345" lon="6.77211">
        <ele>854</ele>
        <time>2019-06-11T14:59:52Z</time>
      </trkpt>
      <trkpt lat="46.03442" lon="6.77201">
        <ele>853</ele>
        <time>2019-06-11T14:59:54Z</time>
      </trkpt>
      <trkpt lat="46.03426" lon="6.77193">
        <ele>852</ele>
        <time>2019-06-11T14:59:57Z</time>
      </trkpt>
      <trkpt lat="46.03419" lon="6.77191">
        <ele>852</ele>
        <time>2019-06-11T14:59:58Z</time>
      </trkpt>
      <trkpt lat="46.03377" lon="6.77193">
        <ele>856</ele>
        <time>2019-06-11T15:00:05Z</time>
      </trkpt>
      <trkpt lat="46.03362" lon="6.77199">
        <ele>859</ele>
        <time>2019-06-11T15:00:08Z</time>
      </trkpt>
      <trkpt lat="46.03307" lon="6.77229">
        <ele>869</ele>
        <time>2019-06-11T15:00:19Z</time>
      </trkpt>
      <trkpt lat="46.03298" lon="6.77229">
        <ele>871</ele>
        <time>2019-06-11T15:00:20Z</time>
      </trkpt>
      <trkpt lat="46.03292" lon="6.77222">
        <ele>871</ele>
        <time>2019-06-11T15:00:22Z</time>
      </trkpt>
      <trkpt lat="46.03281" lon="6.7719">
        <ele>870</ele>
        <time>2019-06-11T15:00:26Z</time>
      </trkpt>
      <trkpt lat="46.03281" lon="6.77185">
        <ele>869</ele>
        <time>2019-06-11T15:00:27Z</time>
      </trkpt>
      <trkpt lat="46.03323" lon="6.77115">
        <ele>866</ele>
        <time>2019-06-11T15:00:38Z</time>
      </trkpt>
      <trkpt lat="46.03326" lon="6.77101">
        <ele>868</ele>
        <time>2019-06-11T15:00:40Z</time>
      </trkpt>
      <trkpt lat="46.03329" lon="6.76984">
        <ele>890</ele>
        <time>2019-06-11T15:00:54Z</time>
      </trkpt>
      <trkpt lat="46.0333" lon="6.76977">
        <ele>891</ele>
        <time>2019-06-11T15:00:55Z</time>
      </trkpt>
      <trkpt lat="46.03335" lon="6.76967">
        <ele>892</ele>
        <time>2019-06-11T15:00:57Z</time>
      </trkpt>
      <trkpt lat="46.03359" lon="6.76946">
        <ele>890</ele>
        <time>2019-06-11T15:01:02Z</time>
      </trkpt>
      <trkpt lat="46.03425" lon="6.76832">
        <ele>888</ele>
        <time>2019-06-11T15:01:20Z</time>
      </trkpt>
      <trkpt lat="46.03429" lon="6.7682">
        <ele>889</ele>
        <time>2019-06-11T15:01:22Z</time>
      </trkpt>
      <trkpt lat="46.03428" lon="6.76815">
        <ele>890</ele>
        <time>2019-06-11T15:01:22Z</time>
      </trkpt>
      <trkpt lat="46.03424" lon="6.76806">
        <ele>893</ele>
        <time>2019-06-11T15:01:24Z</time>
      </trkpt>
      <trkpt lat="46.03417" lon="6.76802">
        <ele>895</ele>
        <time>2019-06-11T15:01:25Z</time>
      </trkpt>
      <trkpt lat="46.03411" lon="6.76806">
        <ele>897</ele>
        <time>2019-06-11T15:01:26Z</time>
      </trkpt>
      <trkpt lat="46.03332" lon="6.76915">
        <ele>904</ele>
        <time>2019-06-11T15:01:46Z</time>
      </trkpt>
      <trkpt lat="46.03303" lon="6.7694">
        <ele>912</ele>
        <time>2019-06-11T15:01:52Z</time>
      </trkpt>
      <trkpt lat="46.03293" lon="6.76941">
        <ele>916</ele>
        <time>2019-06-11T15:01:53Z</time>
      </trkpt>
      <trkpt lat="46.03278" lon="6.76935">
        <ele>925</ele>
        <time>2019-06-11T15:01:56Z</time>
      </trkpt>
      <trkpt lat="46.03271" lon="6.76937">
        <ele>927</ele>
        <time>2019-06-11T15:01:58Z</time>
      </trkpt>
      <trkpt lat="46.03264" lon="6.76944">
        <ele>928</ele>
        <time>2019-06-11T15:01:59Z</time>
      </trkpt>
      <trkpt lat="46.0324" lon="6.76988">
        <ele>921</ele>
        <time>2019-06-11T15:02:06Z</time>
      </trkpt>
      <trkpt lat="46.03227" lon="6.77001">
        <ele>921</ele>
        <time>2019-06-11T15:02:09Z</time>
      </trkpt>
      <trkpt lat="46.03208" lon="6.77011">
        <ele>923</ele>
        <time>2019-06-11T15:02:12Z</time>
      </trkpt>
      <trkpt lat="46.03197" lon="6.77015">
        <ele>925</ele>
        <time>2019-06-11T15:02:14Z</time>
      </trkpt>
      <trkpt lat="46.03135" lon="6.77017">
        <ele>936</ele>
        <time>2019-06-11T15:02:25Z</time>
      </trkpt>
      <trkpt lat="46.03125" lon="6.77015">
        <ele>937</ele>
        <time>2019-06-11T15:02:27Z</time>
      </trkpt>
      <trkpt lat="46.03097" lon="6.77003">
        <ele>944</ele>
        <time>2019-06-11T15:02:32Z</time>
      </trkpt>
      <trkpt lat="46.03076" lon="6.76999">
        <ele>947</ele>
        <time>2019-06-11T15:02:36Z</time>
      </trkpt>
      <trkpt lat="46.03072" lon="6.77">
        <ele>947</ele>
        <time>2019-06-11T15:02:37Z</time>
      </trkpt>
      <trkpt lat="46.03039" lon="6.77023">
        <ele>945</ele>
        <time>2019-06-11T15:02:43Z</time>
      </trkpt>
      <trkpt lat="46.0299" lon="6.77032">
        <ele>951</ele>
        <time>2019-06-11T15:02:52Z</time>
      </trkpt>
      <trkpt lat="46.02972" lon="6.77038">
        <ele>955</ele>
        <time>2019-06-11T15:02:56Z</time>
      </trkpt>
      <trkpt lat="46.02926" lon="6.77074">
        <ele>957</ele>
        <time>2019-06-11T15:03:05Z</time>
      </trkpt>
      <trkpt lat="46.02896" lon="6.77093">
        <ele>961</ele>
        <time>2019-06-11T15:03:11Z</time>
      </trkpt>
      <trkpt lat="46.02869" lon="6.77104">
        <ele>968</ele>
        <time>2019-06-11T15:03:16Z</time>
      </trkpt>
      <trkpt lat="46.02866" lon="6.77108">
        <ele>968</ele>
        <time>2019-06-11T15:03:16Z</time>
      </trkpt>
      <trkpt lat="46.02863" lon="6.77114">
        <ele>968</ele>
        <time>2019-06-11T15:03:17Z</time>
      </trkpt>
      <trkpt lat="46.02866" lon="6.77153">
        <ele>961</ele>
        <time>2019-06-11T15:03:22Z</time>
      </trkpt>
      <trkpt lat="46.02861" lon="6.77175">
        <ele>961</ele>
        <time>2019-06-11T15:03:25Z</time>
      </trkpt>
      <trkpt lat="46.02851" lon="6.77189">
        <ele>965</ele>
        <time>2019-06-11T15:03:27Z</time>
      </trkpt>
      <trkpt lat="46.02838" lon="6.77206">
        <ele>969</ele>
        <time>2019-06-11T15:03:31Z</time>
      </trkpt>
      <trkpt lat="46.02809" lon="6.77235">
        <ele>980</ele>
        <time>2019-06-11T15:03:37Z</time>
      </trkpt>
      <trkpt lat="46.02799" lon="6.77247">
        <ele>982</ele>
        <time>2019-06-11T15:03:39Z</time>
      </trkpt>
      <trkpt lat="46.02794" lon="6.77259">
        <ele>983</ele>
        <time>2019-06-11T15:03:41Z</time>
      </trkpt>
      <trkpt lat="46.02792" lon="6.77269">
        <ele>984</ele>
        <time>2019-06-11T15:03:42Z</time>
      </trkpt>
      <trkpt lat="46.02792" lon="6.77285">
        <ele>984</ele>
        <time>2019-06-11T15:03:44Z</time>
      </trkpt>
      <trkpt lat="46.02796" lon="6.77304">
        <ele>983</ele>
        <time>2019-06-11T15:03:47Z</time>
      </trkpt>
      <trkpt lat="46.02801" lon="6.7731">
        <ele>982</ele>
        <time>2019-06-11T15:03:48Z</time>
      </trkpt>
      <trkpt lat="46.02822" lon="6.77324">
        <ele>978</ele>
        <time>2019-06-11T15:03:52Z</time>
      </trkpt>
      <trkpt lat="46.02824" lon="6.77331">
        <ele>978</ele>
        <time>2019-06-11T15:03:53Z</time>
      </trkpt>
      <trkpt lat="46.02824" lon="6.77339">
        <ele>977</ele>
        <time>2019-06-11T15:03:54Z</time>
      </trkpt>
      <trkpt lat="46.02821" lon="6.77351">
        <ele>977</ele>
        <time>2019-06-11T15:03:55Z</time>
      </trkpt>
      <trkpt lat="46.02815" lon="6.77365">
        <ele>977</ele>
        <time>2019-06-11T15:03:57Z</time>
      </trkpt>
      <trkpt lat="46.02787" lon="6.7741">
        <ele>980</ele>
        <time>2019-06-11T15:04:05Z</time>
      </trkpt>
      <trkpt lat="46.02782" lon="6.77414">
        <ele>982</ele>
        <time>2019-06-11T15:04:06Z</time>
      </trkpt>
      <trkpt lat="46.02778" lon="6.77415">
        <ele>983</ele>
        <time>2019-06-11T15:04:07Z</time>
      </trkpt>
      <trkpt lat="46.02773" lon="6.77413">
        <ele>984</ele>
        <time>2019-06-11T15:04:08Z</time>
      </trkpt>
      <trkpt lat="46.0277" lon="6.77408">
        <ele>985</ele>
        <time>2019-06-11T15:04:08Z</time>
      </trkpt>
      <trkpt lat="46.02771" lon="6.77391">
        <ele>986</ele>
        <time>2019-06-11T15:04:10Z</time>
      </trkpt>
      <trkpt lat="46.0278" lon="6.77371">
        <ele>985</ele>
        <time>2019-06-11T15:04:13Z</time>
      </trkpt>
      <trkpt lat="46.02782" lon="6.77357">
        <ele>985</ele>
        <time>2019-06-11T15:04:15Z</time>
      </trkpt>
      <trkpt lat="46.02781" lon="6.77349">
        <ele>986</ele>
        <time>2019-06-11T15:04:16Z</time>
      </trkpt>
      <trkpt lat="46.02775" lon="6.77339">
        <ele>988</ele>
        <time>2019-06-11T15:04:18Z</time>
      </trkpt>
      <trkpt lat="46.02771" lon="6.77337">
        <ele>989</ele>
        <time>2019-06-11T15:04:19Z</time>
      </trkpt>
      <trkpt lat="46.02766" lon="6.77338">
        <ele>990</ele>
        <time>2019-06-11T15:04:19Z</time>
      </trkpt>
      <trkpt lat="46.02762" lon="6.77344">
        <ele>990</ele>
        <time>2019-06-11T15:04:21Z</time>
      </trkpt>
      <trkpt lat="46.02754" lon="6.77384">
        <ele>991</ele>
        <time>2019-06-11T15:04:26Z</time>
      </trkpt>
      <trkpt lat="46.02747" lon="6.77396">
        <ele>992</ele>
        <time>2019-06-11T15:04:28Z</time>
      </trkpt>
      <trkpt lat="46.02744" lon="6.77398">
        <ele>993</ele>
        <time>2019-06-11T15:04:28Z</time>
      </trkpt>
      <trkpt lat="46.02736" lon="6.77399">
        <ele>996</ele>
        <time>2019-06-11T15:04:30Z</time>
      </trkpt>
      <trkpt lat="46.02727" lon="6.77396">
        <ele>999</ele>
        <time>2019-06-11T15:04:31Z</time>
      </trkpt>
      <trkpt lat="46.0272" lon="6.77389">
        <ele>1002</ele>
        <time>2019-06-11T15:04:33Z</time>
      </trkpt>
      <trkpt lat="46.02713" lon="6.77379">
        <ele>1005</ele>
        <time>2019-06-11T15:04:35Z</time>
      </trkpt>
      <trkpt lat="46.02703" lon="6.77348">
        <ele>1013</ele>
        <time>2019-06-11T15:04:39Z</time>
      </trkpt>
      <trkpt lat="46.02694" lon="6.7734">
        <ele>1018</ele>
        <time>2019-06-11T15:04:41Z</time>
      </trkpt>
      <trkpt lat="46.02691" lon="6.7734">
        <ele>1019</ele>
        <time>2019-06-11T15:04:41Z</time>
      </trkpt>
      <trkpt lat="46.02685" lon="6.77343">
        <ele>1021</ele>
        <time>2019-06-11T15:04:42Z</time>
      </trkpt>
      <trkpt lat="46.02681" lon="6.77352">
        <ele>1021</ele>
        <time>2019-06-11T15:04:44Z</time>
      </trkpt>
      <trkpt lat="46.02676" lon="6.77385">
        <ele>1018</ele>
        <time>2019-06-11T15:04:48Z</time>
      </trkpt>
      <trkpt lat="46.02676" lon="6.77427">
        <ele>1012</ele>
        <time>2019-06-11T15:04:53Z</time>
      </trkpt>
      <trkpt lat="46.02667" lon="6.77478">
        <ele>1015</ele>
        <time>2019-06-11T15:04:59Z</time>
      </trkpt>
      <trkpt lat="46.02653" lon="6.77524">
        <ele>1017</ele>
        <time>2019-06-11T15:05:06Z</time>
      </trkpt>
      <trkpt lat="46.02648" lon="6.77534">
        <ele>1017</ele>
        <time>2019-06-11T15:05:07Z</time>
      </trkpt>
      <trkpt lat="46.02611" lon="6.77587">
        <ele>1024</ele>
        <time>2019-06-11T15:05:16Z</time>
      </trkpt>
      <trkpt lat="46.02599" lon="6.77595">
        <ele>1027</ele>
        <time>2019-06-11T15:05:19Z</time>
      </trkpt>
      <trkpt lat="46.02569" lon="6.7759">
        <ele>1034</ele>
        <time>2019-06-11T15:05:24Z</time>
      </trkpt>
      <trkpt lat="46.02563" lon="6.77585">
        <ele>1034</ele>
        <time>2019-06-11T15:05:25Z</time>
      </trkpt>
      <trkpt lat="46.0256" lon="6.77575">
        <ele>1035</ele>
        <time>2019-06-11T15:05:27Z</time>
      </trkpt>
      <trkpt lat="46.02561" lon="6.77566">
        <ele>1035</ele>
        <time>2019-06-11T15:05:28Z</time>
      </trkpt>
      <trkpt lat="46.02566" lon="6.7756">
        <ele>1034</ele>
        <time>2019-06-11T15:05:29Z</time>
      </trkpt>
      <trkpt lat="46.02574" lon="6.77557">
        <ele>1033</ele>
        <time>2019-06-11T15:05:31Z</time>
      </trkpt>
      <trkpt lat="46.02586" lon="6.77558">
        <ele>1030</ele>
        <time>2019-06-11T15:05:33Z</time>
      </trkpt>
      <trkpt lat="46.02592" lon="6.77554">
        <ele>1029</ele>
        <time>2019-06-11T15:05:34Z</time>
      </trkpt>
      <trkpt lat="46.02597" lon="6.77541">
        <ele>1028</ele>
        <time>2019-06-11T15:05:36Z</time>
      </trkpt>
      <trkpt lat="46.02607" lon="6.77483">
        <ele>1029</ele>
        <time>2019-06-11T15:05:43Z</time>
      </trkpt>
      <trkpt lat="46.02605" lon="6.7747">
        <ele>1030</ele>
        <time>2019-06-11T15:05:45Z</time>
      </trkpt>
      <trkpt lat="46.02601" lon="6.77463">
        <ele>1031</ele>
        <time>2019-06-11T15:05:46Z</time>
      </trkpt>
      <trkpt lat="46.02595" lon="6.77459">
        <ele>1033</ele>
        <time>2019-06-11T15:05:47Z</time>
      </trkpt>
      <trkpt lat="46.02587" lon="6.77461">
        <ele>1035</ele>
        <time>2019-06-11T15:05:48Z</time>
      </trkpt>
      <trkpt lat="46.02583" lon="6.77464">
        <ele>1036</ele>
        <time>2019-06-11T15:05:49Z</time>
      </trkpt>
      <trkpt lat="46.02562" lon="6.77499">
        <ele>1035</ele>
        <time>2019-06-11T15:05:55Z</time>
      </trkpt>
      <trkpt lat="46.02553" lon="6.77507">
        <ele>1036</ele>
        <time>2019-06-11T15:05:57Z</time>
      </trkpt>
      <trkpt lat="46.02482" lon="6.77548">
        <ele>1045</ele>
        <time>2019-06-11T15:06:10Z</time>
      </trkpt>
      <trkpt lat="46.02463" lon="6.77554">
        <ele>1047</ele>
        <time>2019-06-11T15:06:14Z</time>
      </trkpt>
      <trkpt lat="46.02391" lon="6.77563">
        <ele>1053</ele>
        <time>2019-06-11T15:06:27Z</time>
      </trkpt>
      <trkpt lat="46.02382" lon="6.77569">
        <ele>1054</ele>
        <time>2019-06-11T15:06:29Z</time>
      </trkpt>
      <trkpt lat="46.02368" lon="6.77595">
        <ele>1056</ele>
        <time>2019-06-11T15:06:33Z</time>
      </trkpt>
      <trkpt lat="46.02361" lon="6.77603">
        <ele>1056</ele>
        <time>2019-06-11T15:06:34Z</time>
      </trkpt>
      <trkpt lat="46.02352" lon="6.77605">
        <ele>1057</ele>
        <time>2019-06-11T15:06:36Z</time>
      </trkpt>
      <trkpt lat="46.02347" lon="6.77603">
        <ele>1058</ele>
        <time>2019-06-11T15:06:37Z</time>
      </trkpt>
      <trkpt lat="46.02341" lon="6.77593">
        <ele>1059</ele>
        <time>2019-06-11T15:06:38Z</time>
      </trkpt>
      <trkpt lat="46.02339" lon="6.7758">
        <ele>1060</ele>
        <time>2019-06-11T15:06:40Z</time>
      </trkpt>
      <trkpt lat="46.02356" lon="6.77505">
        <ele>1061</ele>
        <time>2019-06-11T15:06:50Z</time>
      </trkpt>
      <trkpt lat="46.02361" lon="6.77456">
        <ele>1069</ele>
        <time>2019-06-11T15:06:56Z</time>
      </trkpt>
      <trkpt lat="46.02367" lon="6.77429">
        <ele>1073</ele>
        <time>2019-06-11T15:06:59Z</time>
      </trkpt>
      <trkpt lat="46.0237" lon="6.77422">
        <ele>1074</ele>
        <time>2019-06-11T15:07:00Z</time>
      </trkpt>
      <trkpt lat="46.02374" lon="6.77418">
        <ele>1074</ele>
        <time>2019-06-11T15:07:01Z</time>
      </trkpt>
      <trkpt lat="46.02408" lon="6.77408">
        <ele>1073</ele>
        <time>2019-06-11T15:07:07Z</time>
      </trkpt>
      <trkpt lat="46.02413" lon="6.77404">
        <ele>1074</ele>
        <time>2019-06-11T15:07:08Z</time>
      </trkpt>
      <trkpt lat="46.02434" lon="6.77381">
        <ele>1078</ele>
        <time>2019-06-11T15:07:13Z</time>
      </trkpt>
      <trkpt lat="46.02437" lon="6.77371">
        <ele>1081</ele>
        <time>2019-06-11T15:07:15Z</time>
      </trkpt>
      <trkpt lat="46.02434" lon="6.77362">
        <ele>1085</ele>
        <time>2019-06-11T15:07:16Z</time>
      </trkpt>
      <trkpt lat="46.02428" lon="6.77361">
        <ele>1087</ele>
        <time>2019-06-11T15:07:17Z</time>
      </trkpt>
      <trkpt lat="46.02402" lon="6.77385">
        <ele>1082</ele>
        <time>2019-06-11T15:07:22Z</time>
      </trkpt>
      <trkpt lat="46.02389" lon="6.7739">
        <ele>1082</ele>
        <time>2019-06-11T15:07:25Z</time>
      </trkpt>
      <trkpt lat="46.0238" lon="6.77388">
        <ele>1083</ele>
        <time>2019-06-11T15:07:26Z</time>
      </trkpt>
      <trkpt lat="46.02339" lon="6.77362">
        <ele>1094</ele>
        <time>2019-06-11T15:07:34Z</time>
      </trkpt>
      <trkpt lat="46.02329" lon="6.77359">
        <ele>1096</ele>
        <time>2019-06-11T15:07:36Z</time>
      </trkpt>
      <trkpt lat="46.02323" lon="6.7736">
        <ele>1098</ele>
        <time>2019-06-11T15:07:37Z</time>
      </trkpt>
      <trkpt lat="46.02313" lon="6.77367">
        <ele>1098</ele>
        <time>2019-06-11T15:07:39Z</time>
      </trkpt>
      <trkpt lat="46.02303" lon="6.77377">
        <ele>1098</ele>
        <time>2019-06-11T15:07:41Z</time>
      </trkpt>
      <trkpt lat="46.02295" lon="6.77391">
        <ele>1097</ele>
        <time>2019-06-11T15:07:44Z</time>
      </trkpt>
      <trkpt lat="46.02278" lon="6.77417">
        <ele>1095</ele>
        <time>2019-06-11T15:07:48Z</time>
      </trkpt>
      <trkpt lat="46.02272" lon="6.77431">
        <ele>1095</ele>
        <time>2019-06-11T15:07:50Z</time>
      </trkpt>
      <trkpt lat="46.02264" lon="6.77455">
        <ele>1095</ele>
        <time>2019-06-11T15:07:53Z</time>
      </trkpt>
      <trkpt lat="46.02252" lon="6.77524">
        <ele>1093</ele>
        <time>2019-06-11T15:08:02Z</time>
      </trkpt>
      <trkpt lat="46.02249" lon="6.77535">
        <ele>1093</ele>
        <time>2019-06-11T15:08:04Z</time>
      </trkpt>
      <trkpt lat="46.02245" lon="6.77539">
        <ele>1095</ele>
        <time>2019-06-11T15:08:04Z</time>
      </trkpt>
      <trkpt lat="46.02241" lon="6.7754">
        <ele>1097</ele>
        <time>2019-06-11T15:08:05Z</time>
      </trkpt>
      <trkpt lat="46.02238" lon="6.7754">
        <ele>1099</ele>
        <time>2019-06-11T15:08:06Z</time>
      </trkpt>
      <trkpt lat="46.02234" lon="6.77536">
        <ele>1101</ele>
        <time>2019-06-11T15:08:07Z</time>
      </trkpt>
      <trkpt lat="46.0223" lon="6.77525">
        <ele>1104</ele>
        <time>2019-06-11T15:08:08Z</time>
      </trkpt>
      <trkpt lat="46.02229" lon="6.77504">
        <ele>1106</ele>
        <time>2019-06-11T15:08:11Z</time>
      </trkpt>
      <trkpt lat="46.02233" lon="6.77438">
        <ele>1110</ele>
        <time>2019-06-11T15:08:19Z</time>
      </trkpt>
      <trkpt lat="46.0224" lon="6.77411">
        <ele>1109</ele>
        <time>2019-06-11T15:08:22Z</time>
      </trkpt>
      <trkpt lat="46.02257" lon="6.77373">
        <ele>1109</ele>
        <time>2019-06-11T15:08:28Z</time>
      </trkpt>
      <trkpt lat="46.02265" lon="6.77346">
        <ele>1113</ele>
        <time>2019-06-11T15:08:32Z</time>
      </trkpt>
      <trkpt lat="46.02269" lon="6.77328">
        <ele>1116</ele>
        <time>2019-06-11T15:08:34Z</time>
      </trkpt>
      <trkpt lat="46.02276" lon="6.7723">
        <ele>1124</ele>
        <time>2019-06-11T15:08:46Z</time>
      </trkpt>
      <trkpt lat="46.02281" lon="6.77213">
        <ele>1124</ele>
        <time>2019-06-11T15:08:48Z</time>
      </trkpt>
      <trkpt lat="46.02305" lon="6.77186">
        <ele>1124</ele>
        <time>2019-06-11T15:08:54Z</time>
      </trkpt>
      <trkpt lat="46.02317" lon="6.77169">
        <ele>1124</ele>
        <time>2019-06-11T15:08:57Z</time>
      </trkpt>
      <trkpt lat="46.02367" lon="6.77119">
        <ele>1125</ele>
        <time>2019-06-11T15:09:08Z</time>
      </trkpt>
      <trkpt lat="46.02376" lon="6.77106">
        <ele>1125</ele>
        <time>2019-06-11T15:09:10Z</time>
      </trkpt>
      <trkpt lat="46.02381" lon="6.77092">
        <ele>1125</ele>
        <time>2019-06-11T15:09:12Z</time>
      </trkpt>
      <trkpt lat="46.0238" lon="6.77074">
        <ele>1125</ele>
        <time>2019-06-11T15:09:14Z</time>
      </trkpt>
      <trkpt lat="46.02375" lon="6.77055">
        <ele>1125</ele>
        <time>2019-06-11T15:09:17Z</time>
      </trkpt>
      <trkpt lat="46.02361" lon="6.77017">
        <ele>1125</ele>
        <time>2019-06-11T15:09:22Z</time>
      </trkpt>
      <trkpt lat="46.02355" lon="6.77009">
        <ele>1125</ele>
        <time>2019-06-11T15:09:23Z</time>
      </trkpt>
      <trkpt lat="46.02342" lon="6.77004">
        <ele>1126</ele>
        <time>2019-06-11T15:09:26Z</time>
      </trkpt>
      <trkpt lat="46.02323" lon="6.77014">
        <ele>1126</ele>
        <time>2019-06-11T15:09:29Z</time>
      </trkpt>
      <trkpt lat="46.02307" lon="6.77014">
        <ele>1128</ele>
        <time>2019-06-11T15:09:32Z</time>
      </trkpt>
      <trkpt lat="46.02257" lon="6.77001">
        <ele>1134</ele>
        <time>2019-06-11T15:09:41Z</time>
      </trkpt>
      <trkpt lat="46.02247" lon="6.76996">
        <ele>1136</ele>
        <time>2019-06-11T15:09:43Z</time>
      </trkpt>
      <trkpt lat="46.02239" lon="6.76996">
        <ele>1138</ele>
        <time>2019-06-11T15:09:45Z</time>
      </trkpt>
      <trkpt lat="46.02226" lon="6.77002">
        <ele>1140</ele>
        <time>2019-06-11T15:09:47Z</time>
      </trkpt>
      <trkpt lat="46.02206" lon="6.77022">
        <ele>1145</ele>
        <time>2019-06-11T15:09:51Z</time>
      </trkpt>
      <trkpt lat="46.02193" lon="6.77044">
        <ele>1147</ele>
        <time>2019-06-11T15:09:55Z</time>
      </trkpt>
      <trkpt lat="46.02177" lon="6.77081">
        <ele>1150</ele>
        <time>2019-06-11T15:10:00Z</time>
      </trkpt>
      <trkpt lat="46.02173" lon="6.77087">
        <ele>1152</ele>
        <time>2019-06-11T15:10:01Z</time>
      </trkpt>
      <trkpt lat="46.02166" lon="6.77092">
        <ele>1154</ele>
        <time>2019-06-11T15:10:03Z</time>
      </trkpt>
      <trkpt lat="46.02158" lon="6.77088">
        <ele>1158</ele>
        <time>2019-06-11T15:10:04Z</time>
      </trkpt>
      <trkpt lat="46.02155" lon="6.77084">
        <ele>1159</ele>
        <time>2019-06-11T15:10:05Z</time>
      </trkpt>
      <trkpt lat="46.02153" lon="6.77075">
        <ele>1160</ele>
        <time>2019-06-11T15:10:06Z</time>
      </trkpt>
      <trkpt lat="46.02153" lon="6.77063">
        <ele>1160</ele>
        <time>2019-06-11T15:10:08Z</time>
      </trkpt>
      <trkpt lat="46.02165" lon="6.77018">
        <ele>1154</ele>
        <time>2019-06-11T15:10:14Z</time>
      </trkpt>
      <trkpt lat="46.02171" lon="6.76937">
        <ele>1159</ele>
        <time>2019-06-11T15:10:24Z</time>
      </trkpt>
      <trkpt lat="46.02177" lon="6.76915">
        <ele>1159</ele>
        <time>2019-06-11T15:10:27Z</time>
      </trkpt>
      <trkpt lat="46.02192" lon="6.76892">
        <ele>1157</ele>
        <time>2019-06-11T15:10:30Z</time>
      </trkpt>
      <trkpt lat="46.02193" lon="6.76879">
        <ele>1158</ele>
        <time>2019-06-11T15:10:32Z</time>
      </trkpt>
      <trkpt lat="46.0219" lon="6.76873">
        <ele>1159</ele>
        <time>2019-06-11T15:10:33Z</time>
      </trkpt>
      <trkpt lat="46.02183" lon="6.76867">
        <ele>1161</ele>
        <time>2019-06-11T15:10:34Z</time>
      </trkpt>
      <trkpt lat="46.02175" lon="6.76866">
        <ele>1163</ele>
        <time>2019-06-11T15:10:36Z</time>
      </trkpt>
      <trkpt lat="46.0217" lon="6.76869">
        <ele>1164</ele>
        <time>2019-06-11T15:10:37Z</time>
      </trkpt>
      <trkpt lat="46.02159" lon="6.76884">
        <ele>1167</ele>
        <time>2019-06-11T15:10:40Z</time>
      </trkpt>
      <trkpt lat="46.02152" lon="6.769">
        <ele>1168</ele>
        <time>2019-06-11T15:10:42Z</time>
      </trkpt>
      <trkpt lat="46.02147" lon="6.76917">
        <ele>1169</ele>
        <time>2019-06-11T15:10:44Z</time>
      </trkpt>
      <trkpt lat="46.02139" lon="6.76953">
        <ele>1169</ele>
        <time>2019-06-11T15:10:49Z</time>
      </trkpt>
      <trkpt lat="46.02133" lon="6.76963">
        <ele>1170</ele>
        <time>2019-06-11T15:10:50Z</time>
      </trkpt>
      <trkpt lat="46.0213" lon="6.76966">
        <ele>1171</ele>
        <time>2019-06-11T15:10:51Z</time>
      </trkpt>
      <trkpt lat="46.02118" lon="6.76968">
        <ele>1176</ele>
        <time>2019-06-11T15:10:53Z</time>
      </trkpt>
      <trkpt lat="46.02112" lon="6.7696">
        <ele>1179</ele>
        <time>2019-06-11T15:10:55Z</time>
      </trkpt>
      <trkpt lat="46.02111" lon="6.76945">
        <ele>1180</ele>
        <time>2019-06-11T15:10:57Z</time>
      </trkpt>
      <trkpt lat="46.02114" lon="6.7692">
        <ele>1181</ele>
        <time>2019-06-11T15:11:00Z</time>
      </trkpt>
      <trkpt lat="46.02123" lon="6.76887">
        <ele>1179</ele>
        <time>2019-06-11T15:11:04Z</time>
      </trkpt>
      <trkpt lat="46.0213" lon="6.76846">
        <ele>1178</ele>
        <time>2019-06-11T15:11:09Z</time>
      </trkpt>
      <trkpt lat="46.02132" lon="6.76825">
        <ele>1178</ele>
        <time>2019-06-11T15:11:12Z</time>
      </trkpt>
      <trkpt lat="46.0213" lon="6.76805">
        <ele>1180</ele>
        <time>2019-06-11T15:11:14Z</time>
      </trkpt>
      <trkpt lat="46.02125" lon="6.768">
        <ele>1181</ele>
        <time>2019-06-11T15:11:15Z</time>
      </trkpt>
      <trkpt lat="46.02119" lon="6.768">
        <ele>1183</ele>
        <time>2019-06-11T15:11:17Z</time>
      </trkpt>
      <trkpt lat="46.02102" lon="6.76815">
        <ele>1188</ele>
        <time>2019-06-11T15:11:20Z</time>
      </trkpt>
      <trkpt lat="46.02098" lon="6.76839">
        <ele>1189</ele>
        <time>2019-06-11T15:11:23Z</time>
      </trkpt>
      <trkpt lat="46.0209" lon="6.76867">
        <ele>1191</ele>
        <time>2019-06-11T15:11:27Z</time>
      </trkpt>
      <trkpt lat="46.02085" lon="6.7684">
        <ele>1193</ele>
        <time>2019-06-11T15:11:30Z</time>
      </trkpt>
      <trkpt lat="46.02079" lon="6.76828">
        <ele>1195</ele>
        <time>2019-06-11T15:11:32Z</time>
      </trkpt>
      <trkpt lat="46.02085" lon="6.7684">
        <ele>1193</ele>
        <time>2019-06-11T15:11:34Z</time>
      </trkpt>
      <trkpt lat="46.0209" lon="6.76867">
        <ele>1191</ele>
        <time>2019-06-11T15:11:37Z</time>
      </trkpt>
      <trkpt lat="46.02098" lon="6.76839">
        <ele>1189</ele>
        <time>2019-06-11T15:11:41Z</time>
      </trkpt>
      <trkpt lat="46.02102" lon="6.76815">
        <ele>1188</ele>
        <time>2019-06-11T15:11:44Z</time>
      </trkpt>
      <trkpt lat="46.02119" lon="6.768">
        <ele>1183</ele>
        <time>2019-06-11T15:11:48Z</time>
      </trkpt>
      <trkpt lat="46.02125" lon="6.768">
        <ele>1181</ele>
        <time>2019-06-11T15:11:49Z</time>
      </trkpt>
      <trkpt lat="46.0213" lon="6.76805">
        <ele>1180</ele>
        <time>2019-06-11T15:11:50Z</time>
      </trkpt>
      <trkpt lat="46.02131" lon="6.76809">
        <ele>1179</ele>
        <time>2019-06-11T15:11:50Z</time>
      </trkpt>
      <trkpt lat="46.02132" lon="6.76825">
        <ele>1178</ele>
        <time>2019-06-11T15:11:52Z</time>
      </trkpt>
      <trkpt lat="46.0213" lon="6.76846">
        <ele>1178</ele>
        <time>2019-06-11T15:11:55Z</time>
      </trkpt>
      <trkpt lat="46.02123" lon="6.76887">
        <ele>1179</ele>
        <time>2019-06-11T15:12:00Z</time>
      </trkpt>
      <trkpt lat="46.02114" lon="6.7692">
        <ele>1181</ele>
        <time>2019-06-11T15:12:05Z</time>
      </trkpt>
      <trkpt lat="46.02111" lon="6.76945">
        <ele>1180</ele>
        <time>2019-06-11T15:12:08Z</time>
      </trkpt>
      <trkpt lat="46.02112" lon="6.7696">
        <ele>1179</ele>
        <time>2019-06-11T15:12:10Z</time>
      </trkpt>
      <trkpt lat="46.02118" lon="6.76968">
        <ele>1176</ele>
        <time>2019-06-11T15:12:11Z</time>
      </trkpt>
      <trkpt lat="46.0213" lon="6.76966">
        <ele>1171</ele>
        <time>2019-06-11T15:12:13Z</time>
      </trkpt>
      <trkpt lat="46.02133" lon="6.76963">
        <ele>1170</ele>
        <time>2019-06-11T15:12:14Z</time>
      </trkpt>
      <trkpt lat="46.02139" lon="6.76953">
        <ele>1169</ele>
        <time>2019-06-11T15:12:16Z</time>
      </trkpt>
      <trkpt lat="46.02147" lon="6.76917">
        <ele>1169</ele>
        <time>2019-06-11T15:12:20Z</time>
      </trkpt>
      <trkpt lat="46.02152" lon="6.769">
        <ele>1168</ele>
        <time>2019-06-11T15:12:23Z</time>
      </trkpt>
      <trkpt lat="46.02159" lon="6.76884">
        <ele>1167</ele>
        <time>2019-06-11T15:12:25Z</time>
      </trkpt>
      <trkpt lat="46.0217" lon="6.76869">
        <ele>1164</ele>
        <time>2019-06-11T15:12:28Z</time>
      </trkpt>
      <trkpt lat="46.02175" lon="6.76866">
        <ele>1163</ele>
        <time>2019-06-11T15:12:29Z</time>
      </trkpt>
      <trkpt lat="46.02183" lon="6.76867">
        <ele>1161</ele>
        <time>2019-06-11T15:12:30Z</time>
      </trkpt>
      <trkpt lat="46.0219" lon="6.76873">
        <ele>1159</ele>
        <time>2019-06-11T15:12:31Z</time>
      </trkpt>
      <trkpt lat="46.02193" lon="6.76879">
        <ele>1158</ele>
        <time>2019-06-11T15:12:32Z</time>
      </trkpt>
      <trkpt lat="46.02192" lon="6.76892">
        <ele>1157</ele>
        <time>2019-06-11T15:12:34Z</time>
      </trkpt>
      <trkpt lat="46.02177" lon="6.76915">
        <ele>1159</ele>
        <time>2019-06-11T15:12:38Z</time>
      </trkpt>
      <trkpt lat="46.02171" lon="6.76937">
        <ele>1159</ele>
        <time>2019-06-11T15:12:41Z</time>
      </trkpt>
      <trkpt lat="46.02165" lon="6.77018">
        <ele>1154</ele>
        <time>2019-06-11T15:12:51Z</time>
      </trkpt>
      <trkpt lat="46.02153" lon="6.77063">
        <ele>1160</ele>
        <time>2019-06-11T15:12:57Z</time>
      </trkpt>
      <trkpt lat="46.02153" lon="6.77075">
        <ele>1160</ele>
        <time>2019-06-11T15:12:58Z</time>
      </trkpt>
      <trkpt lat="46.02155" lon="6.77084">
        <ele>1159</ele>
        <time>2019-06-11T15:12:59Z</time>
      </trkpt>
      <trkpt lat="46.02158" lon="6.77088">
        <ele>1158</ele>
        <time>2019-06-11T15:13:00Z</time>
      </trkpt>
      <trkpt lat="46.02166" lon="6.77092">
        <ele>1154</ele>
        <time>2019-06-11T15:13:02Z</time>
      </trkpt>
      <trkpt lat="46.02173" lon="6.77087">
        <ele>1152</ele>
        <time>2019-06-11T15:13:03Z</time>
      </trkpt>
      <trkpt lat="46.02177" lon="6.77081">
        <ele>1150</ele>
        <time>2019-06-11T15:13:04Z</time>
      </trkpt>
      <trkpt lat="46.02193" lon="6.77044">
        <ele>1147</ele>
        <time>2019-06-11T15:13:09Z</time>
      </trkpt>
      <trkpt lat="46.02206" lon="6.77022">
        <ele>1145</ele>
        <time>2019-06-11T15:13:13Z</time>
      </trkpt>
      <trkpt lat="46.02226" lon="6.77002">
        <ele>1140</ele>
        <time>2019-06-11T15:13:17Z</time>
      </trkpt>
      <trkpt lat="46.02239" lon="6.76996">
        <ele>1138</ele>
        <time>2019-06-11T15:13:20Z</time>
      </trkpt>
      <trkpt lat="46.02247" lon="6.76996">
        <ele>1136</ele>
        <time>2019-06-11T15:13:21Z</time>
      </trkpt>
      <trkpt lat="46.02257" lon="6.77001">
        <ele>1134</ele>
        <time>2019-06-11T15:13:23Z</time>
      </trkpt>
      <trkpt lat="46.02307" lon="6.77014">
        <ele>1128</ele>
        <time>2019-06-11T15:13:32Z</time>
      </trkpt>
      <trkpt lat="46.02323" lon="6.77014">
        <ele>1126</ele>
        <time>2019-06-11T15:13:35Z</time>
      </trkpt>
      <trkpt lat="46.02342" lon="6.77004">
        <ele>1126</ele>
        <time>2019-06-11T15:13:39Z</time>
      </trkpt>
      <trkpt lat="46.02355" lon="6.77009">
        <ele>1125</ele>
        <time>2019-06-11T15:13:41Z</time>
      </trkpt>
      <trkpt lat="46.02361" lon="6.77017">
        <ele>1125</ele>
        <time>2019-06-11T15:13:42Z</time>
      </trkpt>
      <trkpt lat="46.02375" lon="6.77055">
        <ele>1125</ele>
        <time>2019-06-11T15:13:48Z</time>
      </trkpt>
      <trkpt lat="46.0238" lon="6.77074">
        <ele>1125</ele>
        <time>2019-06-11T15:13:50Z</time>
      </trkpt>
      <trkpt lat="46.02381" lon="6.77092">
        <ele>1125</ele>
        <time>2019-06-11T15:13:52Z</time>
      </trkpt>
      <trkpt lat="46.02376" lon="6.77106">
        <ele>1125</ele>
        <time>2019-06-11T15:13:54Z</time>
      </trkpt>
      <trkpt lat="46.02367" lon="6.77119">
        <ele>1125</ele>
        <time>2019-06-11T15:13:57Z</time>
      </trkpt>
      <trkpt lat="46.02317" lon="6.77169">
        <ele>1124</ele>
        <time>2019-06-11T15:14:08Z</time>
      </trkpt>
      <trkpt lat="46.02305" lon="6.77186">
        <ele>1124</ele>
        <time>2019-06-11T15:14:11Z</time>
      </trkpt>
      <trkpt lat="46.02281" lon="6.77213">
        <ele>1124</ele>
        <time>2019-06-11T15:14:16Z</time>
      </trkpt>
      <trkpt lat="46.02276" lon="6.7723">
        <ele>1124</ele>
        <time>2019-06-11T15:14:18Z</time>
      </trkpt>
      <trkpt lat="46.02269" lon="6.77328">
        <ele>1116</ele>
        <time>2019-06-11T15:14:30Z</time>
      </trkpt>
      <trkpt lat="46.02265" lon="6.77346">
        <ele>1113</ele>
        <time>2019-06-11T15:14:33Z</time>
      </trkpt>
      <trkpt lat="46.02257" lon="6.77373">
        <ele>1109</ele>
        <time>2019-06-11T15:14:36Z</time>
      </trkpt>
      <trkpt lat="46.0224" lon="6.77411">
        <ele>1109</ele>
        <time>2019-06-11T15:14:42Z</time>
      </trkpt>
      <trkpt lat="46.02233" lon="6.77438">
        <ele>1110</ele>
        <time>2019-06-11T15:14:45Z</time>
      </trkpt>
      <trkpt lat="46.02229" lon="6.77504">
        <ele>1106</ele>
        <time>2019-06-11T15:14:54Z</time>
      </trkpt>
      <trkpt lat="46.0223" lon="6.77525">
        <ele>1104</ele>
        <time>2019-06-11T15:14:56Z</time>
      </trkpt>
      <trkpt lat="46.02234" lon="6.77536">
        <ele>1101</ele>
        <time>2019-06-11T15:14:58Z</time>
      </trkpt>
      <trkpt lat="46.02238" lon="6.7754">
        <ele>1099</ele>
        <time>2019-06-11T15:14:59Z</time>
      </trkpt>
      <trkpt lat="46.02241" lon="6.7754">
        <ele>1097</ele>
        <time>2019-06-11T15:14:59Z</time>
      </trkpt>
      <trkpt lat="46.02245" lon="6.77539">
        <ele>1095</ele>
        <time>2019-06-11T15:15:00Z</time>
      </trkpt>
      <trkpt lat="46.02249" lon="6.77535">
        <ele>1093</ele>
        <time>2019-06-11T15:15:01Z</time>
      </trkpt>
      <trkpt lat="46.02252" lon="6.77524">
        <ele>1093</ele>
        <time>2019-06-11T15:15:02Z</time>
      </trkpt>
      <trkpt lat="46.02264" lon="6.77455">
        <ele>1095</ele>
        <time>2019-06-11T15:15:11Z</time>
      </trkpt>
      <trkpt lat="46.02272" lon="6.77431">
        <ele>1095</ele>
        <time>2019-06-11T15:15:14Z</time>
      </trkpt>
      <trkpt lat="46.02278" lon="6.77417">
        <ele>1095</ele>
        <time>2019-06-11T15:15:16Z</time>
      </trkpt>
      <trkpt lat="46.02295" lon="6.77391">
        <ele>1097</ele>
        <time>2019-06-11T15:15:21Z</time>
      </trkpt>
      <trkpt lat="46.02303" lon="6.77377">
        <ele>1098</ele>
        <time>2019-06-11T15:15:23Z</time>
      </trkpt>
      <trkpt lat="46.02313" lon="6.77367">
        <ele>1098</ele>
        <time>2019-06-11T15:15:25Z</time>
      </trkpt>
      <trkpt lat="46.02323" lon="6.7736">
        <ele>1098</ele>
        <time>2019-06-11T15:15:27Z</time>
      </trkpt>
      <trkpt lat="46.02329" lon="6.77359">
        <ele>1096</ele>
        <time>2019-06-11T15:15:28Z</time>
      </trkpt>
      <trkpt lat="46.02339" lon="6.77362">
        <ele>1094</ele>
        <time>2019-06-11T15:15:30Z</time>
      </trkpt>
      <trkpt lat="46.0238" lon="6.77388">
        <ele>1083</ele>
        <time>2019-06-11T15:15:38Z</time>
      </trkpt>
      <trkpt lat="46.02389" lon="6.7739">
        <ele>1082</ele>
        <time>2019-06-11T15:15:40Z</time>
      </trkpt>
      <trkpt lat="46.02402" lon="6.77385">
        <ele>1082</ele>
        <time>2019-06-11T15:15:42Z</time>
      </trkpt>
      <trkpt lat="46.02428" lon="6.77361">
        <ele>1087</ele>
        <time>2019-06-11T15:15:48Z</time>
      </trkpt>
      <trkpt lat="46.02434" lon="6.77362">
        <ele>1085</ele>
        <time>2019-06-11T15:15:49Z</time>
      </trkpt>
      <trkpt lat="46.02437" lon="6.77371">
        <ele>1081</ele>
        <time>2019-06-11T15:15:50Z</time>
      </trkpt>
      <trkpt lat="46.02434" lon="6.77381">
        <ele>1078</ele>
        <time>2019-06-11T15:15:51Z</time>
      </trkpt>
      <trkpt lat="46.02413" lon="6.77404">
        <ele>1074</ele>
        <time>2019-06-11T15:15:56Z</time>
      </trkpt>
      <trkpt lat="46.02408" lon="6.77408">
        <ele>1073</ele>
        <time>2019-06-11T15:15:57Z</time>
      </trkpt>
      <trkpt lat="46.02374" lon="6.77418">
        <ele>1074</ele>
        <time>2019-06-11T15:16:03Z</time>
      </trkpt>
      <trkpt lat="46.0237" lon="6.77422">
        <ele>1074</ele>
        <time>2019-06-11T15:16:04Z</time>
      </trkpt>
      <trkpt lat="46.02365" lon="6.77435">
        <ele>1072</ele>
        <time>2019-06-11T15:16:06Z</time>
      </trkpt>
      <trkpt lat="46.02356" lon="6.77505">
        <ele>1061</ele>
        <time>2019-06-11T15:16:15Z</time>
      </trkpt>
      <trkpt lat="46.02339" lon="6.7758">
        <ele>1060</ele>
        <time>2019-06-11T15:16:24Z</time>
      </trkpt>
      <trkpt lat="46.02341" lon="6.77593">
        <ele>1059</ele>
        <time>2019-06-11T15:16:26Z</time>
      </trkpt>
      <trkpt lat="46.02347" lon="6.77603">
        <ele>1058</ele>
        <time>2019-06-11T15:16:28Z</time>
      </trkpt>
      <trkpt lat="46.02352" lon="6.77605">
        <ele>1057</ele>
        <time>2019-06-11T15:16:29Z</time>
      </trkpt>
      <trkpt lat="46.02361" lon="6.77603">
        <ele>1056</ele>
        <time>2019-06-11T15:16:30Z</time>
      </trkpt>
      <trkpt lat="46.02368" lon="6.77595">
        <ele>1056</ele>
        <time>2019-06-11T15:16:32Z</time>
      </trkpt>
      <trkpt lat="46.02382" lon="6.77569">
        <ele>1054</ele>
        <time>2019-06-11T15:16:36Z</time>
      </trkpt>
      <trkpt lat="46.02391" lon="6.77563">
        <ele>1053</ele>
        <time>2019-06-11T15:16:38Z</time>
      </trkpt>
      <trkpt lat="46.02463" lon="6.77554">
        <ele>1047</ele>
        <time>2019-06-11T15:16:50Z</time>
      </trkpt>
      <trkpt lat="46.02482" lon="6.77548">
        <ele>1045</ele>
        <time>2019-06-11T15:16:54Z</time>
      </trkpt>
      <trkpt lat="46.02553" lon="6.77507">
        <ele>1036</ele>
        <time>2019-06-11T15:17:07Z</time>
      </trkpt>
      <trkpt lat="46.02562" lon="6.77499">
        <ele>1035</ele>
        <time>2019-06-11T15:17:09Z</time>
      </trkpt>
      <trkpt lat="46.02583" lon="6.77464">
        <ele>1036</ele>
        <time>2019-06-11T15:17:15Z</time>
      </trkpt>
      <trkpt lat="46.02591" lon="6.77459">
        <ele>1034</ele>
        <time>2019-06-11T15:17:17Z</time>
      </trkpt>
      <trkpt lat="46.02595" lon="6.77459">
        <ele>1033</ele>
        <time>2019-06-11T15:17:17Z</time>
      </trkpt>
      <trkpt lat="46.02601" lon="6.77463">
        <ele>1031</ele>
        <time>2019-06-11T15:17:19Z</time>
      </trkpt>
      <trkpt lat="46.02605" lon="6.7747">
        <ele>1030</ele>
        <time>2019-06-11T15:17:20Z</time>
      </trkpt>
      <trkpt lat="46.02607" lon="6.77479">
        <ele>1029</ele>
        <time>2019-06-11T15:17:21Z</time>
      </trkpt>
      <trkpt lat="46.02606" lon="6.77491">
        <ele>1029</ele>
        <time>2019-06-11T15:17:22Z</time>
      </trkpt>
      <trkpt lat="46.02597" lon="6.77541">
        <ele>1028</ele>
        <time>2019-06-11T15:17:29Z</time>
      </trkpt>
      <trkpt lat="46.02592" lon="6.77554">
        <ele>1029</ele>
        <time>2019-06-11T15:17:31Z</time>
      </trkpt>
      <trkpt lat="46.02586" lon="6.77558">
        <ele>1030</ele>
        <time>2019-06-11T15:17:32Z</time>
      </trkpt>
      <trkpt lat="46.02574" lon="6.77557">
        <ele>1033</ele>
        <time>2019-06-11T15:17:34Z</time>
      </trkpt>
      <trkpt lat="46.02566" lon="6.7756">
        <ele>1034</ele>
        <time>2019-06-11T15:17:35Z</time>
      </trkpt>
      <trkpt lat="46.02561" lon="6.77566">
        <ele>1035</ele>
        <time>2019-06-11T15:17:36Z</time>
      </trkpt>
      <trkpt lat="46.0256" lon="6.77575">
        <ele>1035</ele>
        <time>2019-06-11T15:17:38Z</time>
      </trkpt>
      <trkpt lat="46.02563" lon="6.77585">
        <ele>1034</ele>
        <time>2019-06-11T15:17:39Z</time>
      </trkpt>
      <trkpt lat="46.02569" lon="6.7759">
        <ele>1034</ele>
        <time>2019-06-11T15:17:40Z</time>
      </trkpt>
      <trkpt lat="46.02599" lon="6.77595">
        <ele>1027</ele>
        <time>2019-06-11T15:17:46Z</time>
      </trkpt>
      <trkpt lat="46.02611" lon="6.77587">
        <ele>1024</ele>
        <time>2019-06-11T15:17:48Z</time>
      </trkpt>
      <trkpt lat="46.02648" lon="6.77534">
        <ele>1017</ele>
        <time>2019-06-11T15:17:57Z</time>
      </trkpt>
      <trkpt lat="46.02667" lon="6.77478">
        <ele>1015</ele>
        <time>2019-06-11T15:18:05Z</time>
      </trkpt>
      <trkpt lat="46.02676" lon="6.77427">
        <ele>1012</ele>
        <time>2019-06-11T15:18:11Z</time>
      </trkpt>
      <trkpt lat="46.02676" lon="6.77385">
        <ele>1018</ele>
        <time>2019-06-11T15:18:17Z</time>
      </trkpt>
      <trkpt lat="46.02681" lon="6.77352">
        <ele>1021</ele>
        <time>2019-06-11T15:18:21Z</time>
      </trkpt>
      <trkpt lat="46.02685" lon="6.77343">
        <ele>1021</ele>
        <time>2019-06-11T15:18:22Z</time>
      </trkpt>
      <trkpt lat="46.02691" lon="6.7734">
        <ele>1019</ele>
        <time>2019-06-11T15:18:23Z</time>
      </trkpt>
      <trkpt lat="46.02694" lon="6.7734">
        <ele>1018</ele>
        <time>2019-06-11T15:18:24Z</time>
      </trkpt>
      <trkpt lat="46.02703" lon="6.77348">
        <ele>1013</ele>
        <time>2019-06-11T15:18:26Z</time>
      </trkpt>
      <trkpt lat="46.02713" lon="6.77379">
        <ele>1005</ele>
        <time>2019-06-11T15:18:30Z</time>
      </trkpt>
      <trkpt lat="46.0272" lon="6.77389">
        <ele>1002</ele>
        <time>2019-06-11T15:18:32Z</time>
      </trkpt>
      <trkpt lat="46.02727" lon="6.77396">
        <ele>999</ele>
        <time>2019-06-11T15:18:33Z</time>
      </trkpt>
      <trkpt lat="46.02736" lon="6.77399">
        <ele>996</ele>
        <time>2019-06-11T15:18:35Z</time>
      </trkpt>
      <trkpt lat="46.02744" lon="6.77398">
        <ele>993</ele>
        <time>2019-06-11T15:18:36Z</time>
      </trkpt>
      <trkpt lat="46.02747" lon="6.77396">
        <ele>992</ele>
        <time>2019-06-11T15:18:37Z</time>
      </trkpt>
      <trkpt lat="46.02754" lon="6.77384">
        <ele>991</ele>
        <time>2019-06-11T15:18:39Z</time>
      </trkpt>
      <trkpt lat="46.02762" lon="6.77344">
        <ele>990</ele>
        <time>2019-06-11T15:18:44Z</time>
      </trkpt>
      <trkpt lat="46.02766" lon="6.77338">
        <ele>990</ele>
        <time>2019-06-11T15:18:45Z</time>
      </trkpt>
      <trkpt lat="46.02771" lon="6.77337">
        <ele>989</ele>
        <time>2019-06-11T15:18:46Z</time>
      </trkpt>
      <trkpt lat="46.02775" lon="6.77339">
        <ele>988</ele>
        <time>2019-06-11T15:18:47Z</time>
      </trkpt>
      <trkpt lat="46.02781" lon="6.77349">
        <ele>986</ele>
        <time>2019-06-11T15:18:48Z</time>
      </trkpt>
      <trkpt lat="46.02782" lon="6.77357">
        <ele>985</ele>
        <time>2019-06-11T15:18:49Z</time>
      </trkpt>
      <trkpt lat="46.0278" lon="6.77371">
        <ele>985</ele>
        <time>2019-06-11T15:18:51Z</time>
      </trkpt>
      <trkpt lat="46.02771" lon="6.77391">
        <ele>986</ele>
        <time>2019-06-11T15:18:54Z</time>
      </trkpt>
      <trkpt lat="46.0277" lon="6.77408">
        <ele>985</ele>
        <time>2019-06-11T15:18:56Z</time>
      </trkpt>
      <trkpt lat="46.02773" lon="6.77413">
        <ele>984</ele>
        <time>2019-06-11T15:18:57Z</time>
      </trkpt>
      <trkpt lat="46.02778" lon="6.77415">
        <ele>983</ele>
        <time>2019-06-11T15:18:58Z</time>
      </trkpt>
      <trkpt lat="46.02782" lon="6.77414">
        <ele>982</ele>
        <time>2019-06-11T15:18:58Z</time>
      </trkpt>
      <trkpt lat="46.02787" lon="6.7741">
        <ele>980</ele>
        <time>2019-06-11T15:18:59Z</time>
      </trkpt>
      <trkpt lat="46.02815" lon="6.77365">
        <ele>977</ele>
        <time>2019-06-11T15:19:07Z</time>
      </trkpt>
      <trkpt lat="46.02821" lon="6.77351">
        <ele>977</ele>
        <time>2019-06-11T15:19:09Z</time>
      </trkpt>
      <trkpt lat="46.02824" lon="6.77339">
        <ele>977</ele>
        <time>2019-06-11T15:19:11Z</time>
      </trkpt>
      <trkpt lat="46.02824" lon="6.77331">
        <ele>978</ele>
        <time>2019-06-11T15:19:12Z</time>
      </trkpt>
      <trkpt lat="46.02822" lon="6.77324">
        <ele>978</ele>
        <time>2019-06-11T15:19:12Z</time>
      </trkpt>
      <trkpt lat="46.02801" lon="6.7731">
        <ele>982</ele>
        <time>2019-06-11T15:19:17Z</time>
      </trkpt>
      <trkpt lat="46.02796" lon="6.77304">
        <ele>983</ele>
        <time>2019-06-11T15:19:18Z</time>
      </trkpt>
      <trkpt lat="46.02792" lon="6.77285">
        <ele>984</ele>
        <time>2019-06-11T15:19:20Z</time>
      </trkpt>
      <trkpt lat="46.02792" lon="6.77269">
        <ele>984</ele>
        <time>2019-06-11T15:19:22Z</time>
      </trkpt>
      <trkpt lat="46.02794" lon="6.77259">
        <ele>983</ele>
        <time>2019-06-11T15:19:23Z</time>
      </trkpt>
      <trkpt lat="46.02799" lon="6.77247">
        <ele>982</ele>
        <time>2019-06-11T15:19:25Z</time>
      </trkpt>
      <trkpt lat="46.02809" lon="6.77235">
        <ele>980</ele>
        <time>2019-06-11T15:19:27Z</time>
      </trkpt>
      <trkpt lat="46.02838" lon="6.77206">
        <ele>969</ele>
        <time>2019-06-11T15:19:34Z</time>
      </trkpt>
      <trkpt lat="46.02851" lon="6.77189">
        <ele>965</ele>
        <time>2019-06-11T15:19:37Z</time>
      </trkpt>
      <trkpt lat="46.02861" lon="6.77175">
        <ele>961</ele>
        <time>2019-06-11T15:19:39Z</time>
      </trkpt>
      <trkpt lat="46.02866" lon="6.77153">
        <ele>961</ele>
        <time>2019-06-11T15:19:42Z</time>
      </trkpt>
      <trkpt lat="46.02863" lon="6.77114">
        <ele>968</ele>
        <time>2019-06-11T15:19:47Z</time>
      </trkpt>
      <trkpt lat="46.02866" lon="6.77108">
        <ele>968</ele>
        <time>2019-06-11T15:19:48Z</time>
      </trkpt>
      <trkpt lat="46.02869" lon="6.77104">
        <ele>968</ele>
        <time>2019-06-11T15:19:49Z</time>
      </trkpt>
      <trkpt lat="46.02896" lon="6.77093">
        <ele>961</ele>
        <time>2019-06-11T15:19:54Z</time>
      </trkpt>
      <trkpt lat="46.02926" lon="6.77074">
        <ele>957</ele>
        <time>2019-06-11T15:20:00Z</time>
      </trkpt>
      <trkpt lat="46.02972" lon="6.77038">
        <ele>955</ele>
        <time>2019-06-11T15:20:09Z</time>
      </trkpt>
      <trkpt lat="46.0299" lon="6.77032">
        <ele>951</ele>
        <time>2019-06-11T15:20:12Z</time>
      </trkpt>
      <trkpt lat="46.03039" lon="6.77023">
        <ele>945</ele>
        <time>2019-06-11T15:20:21Z</time>
      </trkpt>
      <trkpt lat="46.03072" lon="6.77">
        <ele>947</ele>
        <time>2019-06-11T15:20:27Z</time>
      </trkpt>
      <trkpt lat="46.03076" lon="6.76999">
        <ele>947</ele>
        <time>2019-06-11T15:20:28Z</time>
      </trkpt>
      <trkpt lat="46.03097" lon="6.77003">
        <ele>944</ele>
        <time>2019-06-11T15:20:32Z</time>
      </trkpt>
      <trkpt lat="46.03125" lon="6.77015">
        <ele>937</ele>
        <time>2019-06-11T15:20:37Z</time>
      </trkpt>
      <trkpt lat="46.03135" lon="6.77017">
        <ele>936</ele>
        <time>2019-06-11T15:20:39Z</time>
      </trkpt>
      <trkpt lat="46.03197" lon="6.77015">
        <ele>925</ele>
        <time>2019-06-11T15:20:50Z</time>
      </trkpt>
      <trkpt lat="46.03208" lon="6.77011">
        <ele>923</ele>
        <time>2019-06-11T15:20:52Z</time>
      </trkpt>
      <trkpt lat="46.03227" lon="6.77001">
        <ele>921</ele>
        <time>2019-06-11T15:20:56Z</time>
      </trkpt>
      <trkpt lat="46.0324" lon="6.76988">
        <ele>921</ele>
        <time>2019-06-11T15:20:58Z</time>
      </trkpt>
      <trkpt lat="46.03264" lon="6.76944">
        <ele>928</ele>
        <time>2019-06-11T15:21:05Z</time>
      </trkpt>
      <trkpt lat="46.03271" lon="6.76937">
        <ele>927</ele>
        <time>2019-06-11T15:21:07Z</time>
      </trkpt>
      <trkpt lat="46.03278" lon="6.76935">
        <ele>925</ele>
        <time>2019-06-11T15:21:08Z</time>
      </trkpt>
      <trkpt lat="46.03293" lon="6.76941">
        <ele>916</ele>
        <time>2019-06-11T15:21:11Z</time>
      </trkpt>
      <trkpt lat="46.03303" lon="6.7694">
        <ele>912</ele>
        <time>2019-06-11T15:21:13Z</time>
      </trkpt>
      <trkpt lat="46.03332" lon="6.76915">
        <ele>904</ele>
        <time>2019-06-11T15:21:19Z</time>
      </trkpt>
      <trkpt lat="46.03411" lon="6.76806">
        <ele>897</ele>
        <time>2019-06-11T15:21:38Z</time>
      </trkpt>
      <trkpt lat="46.03417" lon="6.76802">
        <ele>895</ele>
        <time>2019-06-11T15:21:39Z</time>
      </trkpt>
      <trkpt lat="46.03424" lon="6.76806">
        <ele>893</ele>
        <time>2019-06-11T15:21:41Z</time>
      </trkpt>
      <trkpt lat="46.03428" lon="6.76815">
        <ele>890</ele>
        <time>2019-06-11T15:21:42Z</time>
      </trkpt>
      <trkpt lat="46.03429" lon="6.7682">
        <ele>889</ele>
        <time>2019-06-11T15:21:43Z</time>
      </trkpt>
      <trkpt lat="46.03425" lon="6.76832">
        <ele>888</ele>
        <time>2019-06-11T15:21:44Z</time>
      </trkpt>
      <trkpt lat="46.03359" lon="6.76946">
        <ele>890</ele>
        <time>2019-06-11T15:22:03Z</time>
      </trkpt>
      <trkpt lat="46.03335" lon="6.76967">
        <ele>892</ele>
        <time>2019-06-11T15:22:08Z</time>
      </trkpt>
      <trkpt lat="46.0333" lon="6.76977">
        <ele>891</ele>
        <time>2019-06-11T15:22:09Z</time>
      </trkpt>
      <trkpt lat="46.03329" lon="6.76984">
        <ele>890</ele>
        <time>2019-06-11T15:22:10Z</time>
      </trkpt>
      <trkpt lat="46.03326" lon="6.77101">
        <ele>868</ele>
        <time>2019-06-11T15:22:24Z</time>
      </trkpt>
      <trkpt lat="46.03323" lon="6.77115">
        <ele>866</ele>
        <time>2019-06-11T15:22:26Z</time>
      </trkpt>
      <trkpt lat="46.03281" lon="6.77185">
        <ele>869</ele>
        <time>2019-06-11T15:22:38Z</time>
      </trkpt>
      <trkpt lat="46.03281" lon="6.7719">
        <ele>870</ele>
        <time>2019-06-11T15:22:38Z</time>
      </trkpt>
      <trkpt lat="46.03292" lon="6.77222">
        <ele>871</ele>
        <time>2019-06-11T15:22:43Z</time>
      </trkpt>
      <trkpt lat="46.03298" lon="6.77229">
        <ele>871</ele>
        <time>2019-06-11T15:22:44Z</time>
      </trkpt>
      <trkpt lat="46.03307" lon="6.77229">
        <ele>869</ele>
        <time>2019-06-11T15:22:46Z</time>
      </trkpt>
      <trkpt lat="46.03362" lon="6.77199">
        <ele>859</ele>
        <time>2019-06-11T15:22:56Z</time>
      </trkpt>
      <trkpt lat="46.03377" lon="6.77193">
        <ele>856</ele>
        <time>2019-06-11T15:22:59Z</time>
      </trkpt>
      <trkpt lat="46.03419" lon="6.77191">
        <ele>852</ele>
        <time>2019-06-11T15:23:06Z</time>
      </trkpt>
      <trkpt lat="46.03426" lon="6.77193">
        <ele>852</ele>
        <time>2019-06-11T15:23:08Z</time>
      </trkpt>
      <trkpt lat="46.03442" lon="6.77201">
        <ele>853</ele>
        <time>2019-06-11T15:23:11Z</time>
      </trkpt>
      <trkpt lat="46.0345" lon="6.77211">
        <ele>854</ele>
        <time>2019-06-11T15:23:13Z</time>
      </trkpt>
      <trkpt lat="46.03476" lon="6.77276">
        <ele>866</ele>
        <time>2019-06-11T15:23:22Z</time>
      </trkpt>
      <trkpt lat="46.0348" lon="6.77282">
        <ele>867</ele>
        <time>2019-06-11T15:23:23Z</time>
      </trkpt>
      <trkpt lat="46.03495" lon="6.77294">
        <ele>870</ele>
        <time>2019-06-11T15:23:26Z</time>
      </trkpt>
      <trkpt lat="46.03517" lon="6.77303">
        <ele>870</ele>
        <time>2019-06-11T15:23:30Z</time>
      </trkpt>
      <trkpt lat="46.03641" lon="6.77367">
        <ele>872</ele>
        <time>2019-06-11T15:23:53Z</time>
      </trkpt>
      <trkpt lat="46.03653" lon="6.77369">
        <ele>871</ele>
        <time>2019-06-11T15:23:56Z</time>
      </trkpt>
      <trkpt lat="46.03665" lon="6.77367">
        <ele>868</ele>
        <time>2019-06-11T15:23:58Z</time>
      </trkpt>
      <trkpt lat="46.03728" lon="6.77345">
        <ele>862</ele>
        <time>2019-06-11T15:24:09Z</time>
      </trkpt>
      <trkpt lat="46.03743" lon="6.77338">
        <ele>860</ele>
        <time>2019-06-11T15:24:12Z</time>
      </trkpt>
      <trkpt lat="46.03779" lon="6.77311">
        <ele>857</ele>
        <time>2019-06-11T15:24:19Z</time>
      </trkpt>
      <trkpt lat="46.03792" lon="6.77307">
        <ele>857</ele>
        <time>2019-06-11T15:24:22Z</time>
      </trkpt>
      <trkpt lat="46.03808" lon="6.77306">
        <ele>858</ele>
        <time>2019-06-11T15:24:25Z</time>
      </trkpt>
      <trkpt lat="46.03849" lon="6.77315">
        <ele>861</ele>
        <time>2019-06-11T15:24:32Z</time>
      </trkpt>
      <trkpt lat="46.03873" lon="6.77315">
        <ele>861</ele>
        <time>2019-06-11T15:24:36Z</time>
      </trkpt>
      <trkpt lat="46.03885" lon="6.77311">
        <ele>860</ele>
        <time>2019-06-11T15:24:38Z</time>
      </trkpt>
      <trkpt lat="46.03913" lon="6.77298">
        <ele>858</ele>
        <time>2019-06-11T15:24:44Z</time>
      </trkpt>
      <trkpt lat="46.03987" lon="6.77251">
        <ele>861</ele>
        <time>2019-06-11T15:24:58Z</time>
      </trkpt>
      <trkpt lat="46.04008" lon="6.77234">
        <ele>862</ele>
        <time>2019-06-11T15:25:02Z</time>
      </trkpt>
      <trkpt lat="46.0405" lon="6.77177">
        <ele>861</ele>
        <time>2019-06-11T15:25:13Z</time>
      </trkpt>
      <trkpt lat="46.04095" lon="6.77129">
        <ele>860</ele>
        <time>2019-06-11T15:25:22Z</time>
      </trkpt>
      <trkpt lat="46.04159" lon="6.77085">
        <ele>857</ele>
        <time>2019-06-11T15:25:35Z</time>
      </trkpt>
      <trkpt lat="46.04187" lon="6.7707">
        <ele>856</ele>
        <time>2019-06-11T15:25:40Z</time>
      </trkpt>
      <trkpt lat="46.04222" lon="6.77059">
        <ele>855</ele>
        <time>2019-06-11T15:25:47Z</time>
      </trkpt>
      <trkpt lat="46.04291" lon="6.77048">
        <ele>853</ele>
        <time>2019-06-11T15:25:59Z</time>
      </trkpt>
      <trkpt lat="46.04329" lon="6.77048">
        <ele>852</ele>
        <time>2019-06-11T15:26:06Z</time>
      </trkpt>
      <trkpt lat="46.04392" lon="6.77037">
        <ele>849</ele>
        <time>2019-06-11T15:26:17Z</time>
      </trkpt>
      <trkpt lat="46.04451" lon="6.77019">
        <ele>845</ele>
        <time>2019-06-11T15:26:28Z</time>
      </trkpt>
      <trkpt lat="46.04556" lon="6.76977">
        <ele>837</ele>
        <time>2019-06-11T15:26:47Z</time>
      </trkpt>
      <trkpt lat="46.04594" lon="6.76964">
        <ele>833</ele>
        <time>2019-06-11T15:26:54Z</time>
      </trkpt>
      <trkpt lat="46.04634" lon="6.76954">
        <ele>830</ele>
        <time>2019-06-11T15:27:02Z</time>
      </trkpt>
      <trkpt lat="46.04672" lon="6.76949">
        <ele>827</ele>
        <time>2019-06-11T15:27:08Z</time>
      </trkpt>
      <trkpt lat="46.047" lon="6.76954">
        <ele>825</ele>
        <time>2019-06-11T15:27:13Z</time>
      </trkpt>
      <trkpt lat="46.04781" lon="6.76988">
        <ele>819</ele>
        <time>2019-06-11T15:27:28Z</time>
      </trkpt>
      <trkpt lat="46.04816" lon="6.77008">
        <ele>815</ele>
        <time>2019-06-11T15:27:35Z</time>
      </trkpt>
      <trkpt lat="46.04831" lon="6.7703">
        <ele>813</ele>
        <time>2019-06-11T15:27:39Z</time>
      </trkpt>
      <trkpt lat="46.04849" lon="6.77074">
        <ele>812</ele>
        <time>2019-06-11T15:27:45Z</time>
      </trkpt>
      <trkpt lat="46.04856" lon="6.77086">
        <ele>811</ele>
        <time>2019-06-11T15:27:47Z</time>
      </trkpt>
      <trkpt lat="46.04924" lon="6.77144">
        <ele>806</ele>
        <time>2019-06-11T15:28:01Z</time>
      </trkpt>
      <trkpt lat="46.05019" lon="6.77233">
        <ele>804</ele>
        <time>2019-06-11T15:28:21Z</time>
      </trkpt>
      <trkpt lat="46.05033" lon="6.77244">
        <ele>803</ele>
        <time>2019-06-11T15:28:24Z</time>
      </trkpt>
      <trkpt lat="46.05065" lon="6.77258">
        <ele>800</ele>
        <time>2019-06-11T15:28:30Z</time>
      </trkpt>
      <trkpt lat="46.05177" lon="6.77283">
        <ele>787</ele>
        <time>2019-06-11T15:28:50Z</time>
      </trkpt>
      <trkpt lat="46.05189" lon="6.77287">
        <ele>785</ele>
        <time>2019-06-11T15:28:52Z</time>
      </trkpt>
      <trkpt lat="46.05199" lon="6.77293">
        <ele>784</ele>
        <time>2019-06-11T15:28:54Z</time>
      </trkpt>
      <trkpt lat="46.05222" lon="6.77315">
        <ele>782</ele>
        <time>2019-06-11T15:28:59Z</time>
      </trkpt>
      <trkpt lat="46.05233" lon="6.7733">
        <ele>782</ele>
        <time>2019-06-11T15:29:02Z</time>
      </trkpt>
      <trkpt lat="46.05246" lon="6.77355">
        <ele>785</ele>
        <time>2019-06-11T15:29:06Z</time>
      </trkpt>
      <trkpt lat="46.053" lon="6.77477">
        <ele>787</ele>
        <time>2019-06-11T15:29:24Z</time>
      </trkpt>
      <trkpt lat="46.05305" lon="6.77484">
        <ele>786</ele>
        <time>2019-06-11T15:29:25Z</time>
      </trkpt>
      <trkpt lat="46.05316" lon="6.77494">
        <ele>782</ele>
        <time>2019-06-11T15:29:27Z</time>
      </trkpt>
      <trkpt lat="46.05332" lon="6.775">
        <ele>775</ele>
        <time>2019-06-11T15:29:30Z</time>
      </trkpt>
      <trkpt lat="46.05369" lon="6.77503">
        <ele>771</ele>
        <time>2019-06-11T15:29:37Z</time>
      </trkpt>
      <trkpt lat="46.0538" lon="6.77508">
        <ele>770</ele>
        <time>2019-06-11T15:29:39Z</time>
      </trkpt>
      <trkpt lat="46.05393" lon="6.77515">
        <ele>769</ele>
        <time>2019-06-11T15:29:41Z</time>
      </trkpt>
      <trkpt lat="46.05451" lon="6.77578">
        <ele>767</ele>
        <time>2019-06-11T15:29:54Z</time>
      </trkpt>
      <trkpt lat="46.05458" lon="6.77582">
        <ele>767</ele>
        <time>2019-06-11T15:29:56Z</time>
      </trkpt>
      <trkpt lat="46.05469" lon="6.77582">
        <ele>766</ele>
        <time>2019-06-11T15:29:58Z</time>
      </trkpt>
      <trkpt lat="46.05494" lon="6.77574">
        <ele>764</ele>
        <time>2019-06-11T15:30:02Z</time>
      </trkpt>
      <trkpt lat="46.05499" lon="6.77646">
        <ele>765</ele>
        <time>2019-06-11T15:30:11Z</time>
      </trkpt>
      <trkpt lat="46.05502" lon="6.77661">
        <ele>766</ele>
        <time>2019-06-11T15:30:13Z</time>
      </trkpt>
      <trkpt lat="46.0553" lon="6.77708">
        <ele>770</ele>
        <time>2019-06-11T15:30:21Z</time>
      </trkpt>
      <trkpt lat="46.05542" lon="6.77741">
        <ele>770</ele>
        <time>2019-06-11T15:30:25Z</time>
      </trkpt>
      <trkpt lat="46.05572" lon="6.77778">
        <ele>771</ele>
        <time>2019-06-11T15:30:32Z</time>
      </trkpt>
      <trkpt lat="46.05573" lon="6.77786">
        <ele>772</ele>
        <time>2019-06-11T15:30:33Z</time>
      </trkpt>
      <trkpt lat="46.05584" lon="6.77802">
        <ele>772</ele>
        <time>2019-06-11T15:30:36Z</time>
      </trkpt>
      <trkpt lat="46.05591" lon="6.77823">
        <ele>775</ele>
        <time>2019-06-11T15:30:39Z</time>
      </trkpt>
      <trkpt lat="46.05597" lon="6.77865">
        <ele>778</ele>
        <time>2019-06-11T15:30:44Z</time>
      </trkpt>
      <trkpt lat="46.05596" lon="6.77877">
        <ele>778</ele>
        <time>2019-06-11T15:30:46Z</time>
      </trkpt>
      <trkpt lat="46.05594" lon="6.77888">
        <ele>779</ele>
        <time>2019-06-11T15:30:47Z</time>
      </trkpt>
      <trkpt lat="46.05582" lon="6.77915">
        <ele>779</ele>
        <time>2019-06-11T15:30:51Z</time>
      </trkpt>
      <trkpt lat="46.05577" lon="6.77941">
        <ele>782</ele>
        <time>2019-06-11T15:30:54Z</time>
      </trkpt>
      <trkpt lat="46.05572" lon="6.77995">
        <ele>785</ele>
        <time>2019-06-11T15:31:01Z</time>
      </trkpt>
      <trkpt lat="46.05568" lon="6.78032">
        <ele>787</ele>
        <time>2019-06-11T15:31:06Z</time>
      </trkpt>
      <trkpt lat="46.0557" lon="6.78046">
        <ele>786</ele>
        <time>2019-06-11T15:31:07Z</time>
      </trkpt>
      <trkpt lat="46.05582" lon="6.78082">
        <ele>783</ele>
        <time>2019-06-11T15:31:12Z</time>
      </trkpt>
      <trkpt lat="46.0559" lon="6.7812">
        <ele>781</ele>
        <time>2019-06-11T15:31:17Z</time>
      </trkpt>
      <trkpt lat="46.05592" lon="6.78185">
        <ele>780</ele>
        <time>2019-06-11T15:31:25Z</time>
      </trkpt>
      <trkpt lat="46.05611" lon="6.78254">
        <ele>780</ele>
        <time>2019-06-11T15:31:35Z</time>
      </trkpt>
      <trkpt lat="46.05623" lon="6.78289">
        <ele>783</ele>
        <time>2019-06-11T15:31:39Z</time>
      </trkpt>
      <trkpt lat="46.05651" lon="6.78325">
        <ele>779</ele>
        <time>2019-06-11T15:31:46Z</time>
      </trkpt>
      <trkpt lat="46.05659" lon="6.7833">
        <ele>776</ele>
        <time>2019-06-11T15:31:48Z</time>
      </trkpt>
      <trkpt lat="46.05668" lon="6.78331">
        <ele>774</ele>
        <time>2019-06-11T15:31:49Z</time>
      </trkpt>
      <trkpt lat="46.05703" lon="6.78318">
        <ele>775</ele>
        <time>2019-06-11T15:31:56Z</time>
      </trkpt>
      <trkpt lat="46.05788" lon="6.78296">
        <ele>784</ele>
        <time>2019-06-11T15:32:11Z</time>
      </trkpt>
      <trkpt lat="46.05812" lon="6.78283">
        <ele>791</ele>
        <time>2019-06-11T15:32:16Z</time>
      </trkpt>
      <trkpt lat="46.05848" lon="6.78464">
        <ele>782</ele>
        <time>2019-06-11T15:32:39Z</time>
      </trkpt>
      <trkpt lat="46.05852" lon="6.78511">
        <ele>783</ele>
        <time>2019-06-11T15:32:45Z</time>
      </trkpt>
      <trkpt lat="46.05852" lon="6.78536">
        <ele>785</ele>
        <time>2019-06-11T15:32:48Z</time>
      </trkpt>
      <trkpt lat="46.05841" lon="6.78589">
        <ele>787</ele>
        <time>2019-06-11T15:32:55Z</time>
      </trkpt>
      <trkpt lat="46.05812" lon="6.78649">
        <ele>792</ele>
        <time>2019-06-11T15:33:04Z</time>
      </trkpt>
      <trkpt lat="46.05805" lon="6.78669">
        <ele>795</ele>
        <time>2019-06-11T15:33:06Z</time>
      </trkpt>
      <trkpt lat="46.05801" lon="6.78688">
        <ele>797</ele>
        <time>2019-06-11T15:33:09Z</time>
      </trkpt>
      <trkpt lat="46.05801" lon="6.78712">
        <ele>800</ele>
        <time>2019-06-11T15:33:12Z</time>
      </trkpt>
      <trkpt lat="46.05814" lon="6.78808">
        <ele>807</ele>
        <time>2019-06-11T15:33:24Z</time>
      </trkpt>
      <trkpt lat="46.05826" lon="6.78849">
        <ele>805</ele>
        <time>2019-06-11T15:33:29Z</time>
      </trkpt>
      <trkpt lat="46.0586" lon="6.78902">
        <ele>806</ele>
        <time>2019-06-11T15:33:38Z</time>
      </trkpt>
      <trkpt lat="46.05878" lon="6.78972">
        <ele>810</ele>
        <time>2019-06-11T15:33:47Z</time>
      </trkpt>
      <trkpt lat="46.05885" lon="6.78991">
        <ele>811</ele>
        <time>2019-06-11T15:33:50Z</time>
      </trkpt>
      <trkpt lat="46.05904" lon="6.79025">
        <ele>811</ele>
        <time>2019-06-11T15:33:55Z</time>
      </trkpt>
      <trkpt lat="46.05909" lon="6.7904">
        <ele>811</ele>
        <time>2019-06-11T15:33:58Z</time>
      </trkpt>
      <trkpt lat="46.05912" lon="6.79056">
        <ele>810</ele>
        <time>2019-06-11T15:34:00Z</time>
      </trkpt>
      <trkpt lat="46.05914" lon="6.79135">
        <ele>815</ele>
        <time>2019-06-11T15:34:09Z</time>
      </trkpt>
      <trkpt lat="46.0592" lon="6.79162">
        <ele>817</ele>
        <time>2019-06-11T15:34:13Z</time>
      </trkpt>
      <trkpt lat="46.05933" lon="6.79194">
        <ele>820</ele>
        <time>2019-06-11T15:34:17Z</time>
      </trkpt>
      <trkpt lat="46.05946" lon="6.79211">
        <ele>821</ele>
        <time>2019-06-11T15:34:21Z</time>
      </trkpt>
      <trkpt lat="46.05968" lon="6.79228">
        <ele>820</ele>
        <time>2019-06-11T15:34:25Z</time>
      </trkpt>
      <trkpt lat="46.06103" lon="6.79315">
        <ele>818</ele>
        <time>2019-06-11T15:34:51Z</time>
      </trkpt>
      <trkpt lat="46.06151" lon="6.79354">
        <ele>817</ele>
        <time>2019-06-11T15:35:01Z</time>
      </trkpt>
      <trkpt lat="46.06167" lon="6.79363">
        <ele>817</ele>
        <time>2019-06-11T15:35:04Z</time>
      </trkpt>
      <trkpt lat="46.06179" lon="6.79365">
        <ele>818</ele>
        <time>2019-06-11T15:35:06Z</time>
      </trkpt>
      <trkpt lat="46.06224" lon="6.79359">
        <ele>825</ele>
        <time>2019-06-11T15:35:14Z</time>
      </trkpt>
      <trkpt lat="46.06237" lon="6.7936">
        <ele>827</ele>
        <time>2019-06-11T15:35:17Z</time>
      </trkpt>
      <trkpt lat="46.06255" lon="6.79365">
        <ele>829</ele>
        <time>2019-06-11T15:35:20Z</time>
      </trkpt>
      <trkpt lat="46.06278" lon="6.79379">
        <ele>831</ele>
        <time>2019-06-11T15:35:24Z</time>
      </trkpt>
      <trkpt lat="46.06327" lon="6.79431">
        <ele>832</ele>
        <time>2019-06-11T15:35:35Z</time>
      </trkpt>
      <trkpt lat="46.06395" lon="6.79472">
        <ele>841</ele>
        <time>2019-06-11T15:35:48Z</time>
      </trkpt>
      <trkpt lat="46.06407" lon="6.79482">
        <ele>841</ele>
        <time>2019-06-11T15:35:51Z</time>
      </trkpt>
      <trkpt lat="46.06416" lon="6.79495">
        <ele>838</ele>
        <time>2019-06-11T15:35:53Z</time>
      </trkpt>
      <trkpt lat="46.06426" lon="6.79525">
        <ele>837</ele>
        <time>2019-06-11T15:35:57Z</time>
      </trkpt>
      <trkpt lat="46.06433" lon="6.79563">
        <ele>835</ele>
        <time>2019-06-11T15:36:02Z</time>
      </trkpt>
      <trkpt lat="46.06435" lon="6.79592">
        <ele>834</ele>
        <time>2019-06-11T15:36:06Z</time>
      </trkpt>
      <trkpt lat="46.06437" lon="6.79666">
        <ele>828</ele>
        <time>2019-06-11T15:36:15Z</time>
      </trkpt>
      <trkpt lat="46.06439" lon="6.79684">
        <ele>828</ele>
        <time>2019-06-11T15:36:17Z</time>
      </trkpt>
      <trkpt lat="46.06448" lon="6.79707">
        <ele>829</ele>
        <time>2019-06-11T15:36:20Z</time>
      </trkpt>
      <trkpt lat="46.0646" lon="6.79722">
        <ele>829</ele>
        <time>2019-06-11T15:36:23Z</time>
      </trkpt>
      <trkpt lat="46.06507" lon="6.79766">
        <ele>829</ele>
        <time>2019-06-11T15:36:33Z</time>
      </trkpt>
      <trkpt lat="46.06525" lon="6.79791">
        <ele>830</ele>
        <time>2019-06-11T15:36:38Z</time>
      </trkpt>
      <trkpt lat="46.06532" lon="6.79809">
        <ele>829</ele>
        <time>2019-06-11T15:36:40Z</time>
      </trkpt>
      <trkpt lat="46.06548" lon="6.79859">
        <ele>828</ele>
        <time>2019-06-11T15:36:47Z</time>
      </trkpt>
      <trkpt lat="46.06563" lon="6.79916">
        <ele>826</ele>
        <time>2019-06-11T15:36:54Z</time>
      </trkpt>
      <trkpt lat="46.06583" lon="6.79982">
        <ele>828</ele>
        <time>2019-06-11T15:37:03Z</time>
      </trkpt>
      <trkpt lat="46.06608" lon="6.80045">
        <ele>832</ele>
        <time>2019-06-11T15:37:12Z</time>
      </trkpt>
      <trkpt lat="46.0663" lon="6.80085">
        <ele>833</ele>
        <time>2019-06-11T15:37:19Z</time>
      </trkpt>
      <trkpt lat="46.06674" lon="6.80153">
        <ele>836</ele>
        <time>2019-06-11T15:37:30Z</time>
      </trkpt>
      <trkpt lat="46.06705" lon="6.80213">
        <ele>838</ele>
        <time>2019-06-11T15:37:39Z</time>
      </trkpt>
      <trkpt lat="46.06721" lon="6.80249">
        <ele>837</ele>
        <time>2019-06-11T15:37:45Z</time>
      </trkpt>
      <trkpt lat="46.06764" lon="6.80384">
        <ele>837</ele>
        <time>2019-06-11T15:38:03Z</time>
      </trkpt>
      <trkpt lat="46.06806" lon="6.80538">
        <ele>837</ele>
        <time>2019-06-11T15:38:23Z</time>
      </trkpt>
      <trkpt lat="46.06816" lon="6.80557">
        <ele>836</ele>
        <time>2019-06-11T15:38:26Z</time>
      </trkpt>
      <trkpt lat="46.06825" lon="6.80571">
        <ele>835</ele>
        <time>2019-06-11T15:38:29Z</time>
      </trkpt>
      <trkpt lat="46.06901" lon="6.80643">
        <ele>843</ele>
        <time>2019-06-11T15:38:45Z</time>
      </trkpt>
      <trkpt lat="46.06916" lon="6.80662">
        <ele>843</ele>
        <time>2019-06-11T15:38:48Z</time>
      </trkpt>
      <trkpt lat="46.06954" lon="6.80742">
        <ele>854</ele>
        <time>2019-06-11T15:39:00Z</time>
      </trkpt>
      <trkpt lat="46.06988" lon="6.80795">
        <ele>853</ele>
        <time>2019-06-11T15:39:09Z</time>
      </trkpt>
      <trkpt lat="46.06994" lon="6.80808">
        <ele>850</ele>
        <time>2019-06-11T15:39:11Z</time>
      </trkpt>
      <trkpt lat="46.07004" lon="6.80834">
        <ele>845</ele>
        <time>2019-06-11T15:39:15Z</time>
      </trkpt>
      <trkpt lat="46.07018" lon="6.80884">
        <ele>848</ele>
        <time>2019-06-11T15:39:21Z</time>
      </trkpt>
      <trkpt lat="46.07026" lon="6.80934">
        <ele>848</ele>
        <time>2019-06-11T15:39:28Z</time>
      </trkpt>
      <trkpt lat="46.07038" lon="6.8104">
        <ele>848</ele>
        <time>2019-06-11T15:39:41Z</time>
      </trkpt>
      <trkpt lat="46.07054" lon="6.81232">
        <ele>851</ele>
        <time>2019-06-11T15:40:05Z</time>
      </trkpt>
      <trkpt lat="46.0706" lon="6.8126">
        <ele>851</ele>
        <time>2019-06-11T15:40:09Z</time>
      </trkpt>
      <trkpt lat="46.07132" lon="6.81475">
        <ele>855</ele>
        <time>2019-06-11T15:40:38Z</time>
      </trkpt>
      <trkpt lat="46.07171" lon="6.8157">
        <ele>860</ele>
        <time>2019-06-11T15:40:52Z</time>
      </trkpt>
      <trkpt lat="46.07186" lon="6.81616">
        <ele>862</ele>
        <time>2019-06-11T15:40:58Z</time>
      </trkpt>
      <trkpt lat="46.07189" lon="6.8163">
        <ele>862</ele>
        <time>2019-06-11T15:41:00Z</time>
      </trkpt>
      <trkpt lat="46.07188" lon="6.8165">
        <ele>862</ele>
        <time>2019-06-11T15:41:02Z</time>
      </trkpt>
      <trkpt lat="46.07183" lon="6.81683">
        <ele>862</ele>
        <time>2019-06-11T15:41:06Z</time>
      </trkpt>
      <trkpt lat="46.07183" lon="6.81692">
        <ele>862</ele>
        <time>2019-06-11T15:41:07Z</time>
      </trkpt>
      <trkpt lat="46.07185" lon="6.81701">
        <ele>862</ele>
        <time>2019-06-11T15:41:09Z</time>
      </trkpt>
      <trkpt lat="46.072" lon="6.81735">
        <ele>863</ele>
        <time>2019-06-11T15:41:14Z</time>
      </trkpt>
      <trkpt lat="46.07229" lon="6.81775">
        <ele>863</ele>
        <time>2019-06-11T15:41:21Z</time>
      </trkpt>
      <trkpt lat="46.07257" lon="6.81855">
        <ele>867</ele>
        <time>2019-06-11T15:41:32Z</time>
      </trkpt>
      <trkpt lat="46.07365" lon="6.82117">
        <ele>876</ele>
        <time>2019-06-11T15:42:09Z</time>
      </trkpt>
      <trkpt lat="46.07372" lon="6.8214">
        <ele>876</ele>
        <time>2019-06-11T15:42:13Z</time>
      </trkpt>
      <trkpt lat="46.07375" lon="6.8216">
        <ele>876</ele>
        <time>2019-06-11T15:42:15Z</time>
      </trkpt>
      <trkpt lat="46.07375" lon="6.82174">
        <ele>876</ele>
        <time>2019-06-11T15:42:17Z</time>
      </trkpt>
      <trkpt lat="46.07372" lon="6.82195">
        <ele>875</ele>
        <time>2019-06-11T15:42:19Z</time>
      </trkpt>
      <trkpt lat="46.07359" lon="6.82241">
        <ele>874</ele>
        <time>2019-06-11T15:42:26Z</time>
      </trkpt>
      <trkpt lat="46.07357" lon="6.82266">
        <ele>875</ele>
        <time>2019-06-11T15:42:29Z</time>
      </trkpt>
      <trkpt lat="46.07356" lon="6.82389">
        <ele>882</ele>
        <time>2019-06-11T15:42:44Z</time>
      </trkpt>
      <trkpt lat="46.07359" lon="6.82416">
        <ele>884</ele>
        <time>2019-06-11T15:42:47Z</time>
      </trkpt>
      <trkpt lat="46.07364" lon="6.82431">
        <ele>886</ele>
        <time>2019-06-11T15:42:49Z</time>
      </trkpt>
      <trkpt lat="46.07371" lon="6.82444">
        <ele>887</ele>
        <time>2019-06-11T15:42:51Z</time>
      </trkpt>
      <trkpt lat="46.0738" lon="6.82454">
        <ele>888</ele>
        <time>2019-06-11T15:42:53Z</time>
      </trkpt>
      <trkpt lat="46.07409" lon="6.82473">
        <ele>889</ele>
        <time>2019-06-11T15:42:59Z</time>
      </trkpt>
      <trkpt lat="46.07424" lon="6.82486">
        <ele>889</ele>
        <time>2019-06-11T15:43:02Z</time>
      </trkpt>
      <trkpt lat="46.07432" lon="6.82499">
        <ele>889</ele>
        <time>2019-06-11T15:43:04Z</time>
      </trkpt>
      <trkpt lat="46.07442" lon="6.82523">
        <ele>889</ele>
        <time>2019-06-11T15:43:08Z</time>
      </trkpt>
      <trkpt lat="46.07448" lon="6.82548">
        <ele>891</ele>
        <time>2019-06-11T15:43:11Z</time>
      </trkpt>
      <trkpt lat="46.075" lon="6.82823">
        <ele>903</ele>
        <time>2019-06-11T15:43:46Z</time>
      </trkpt>
      <trkpt lat="46.07533" lon="6.82914">
        <ele>910</ele>
        <time>2019-06-11T15:43:59Z</time>
      </trkpt>
      <trkpt lat="46.07537" lon="6.82931">
        <ele>911</ele>
        <time>2019-06-11T15:44:01Z</time>
      </trkpt>
      <trkpt lat="46.0755" lon="6.83071">
        <ele>920</ele>
        <time>2019-06-11T15:44:19Z</time>
      </trkpt>
      <trkpt lat="46.07548" lon="6.83092">
        <ele>921</ele>
        <time>2019-06-11T15:44:21Z</time>
      </trkpt>
      <trkpt lat="46.07537" lon="6.8318">
        <ele>923</ele>
        <time>2019-06-11T15:44:32Z</time>
      </trkpt>
      <trkpt lat="46.07536" lon="6.83219">
        <ele>924</ele>
        <time>2019-06-11T15:44:37Z</time>
      </trkpt>
      <trkpt lat="46.07549" lon="6.8331">
        <ele>925</ele>
        <time>2019-06-11T15:44:48Z</time>
      </trkpt>
      <trkpt lat="46.0756" lon="6.83365">
        <ele>925</ele>
        <time>2019-06-11T15:44:56Z</time>
      </trkpt>
      <trkpt lat="46.07594" lon="6.83454">
        <ele>926</ele>
        <time>2019-06-11T15:45:08Z</time>
      </trkpt>
      <trkpt lat="46.07602" lon="6.83492">
        <ele>930</ele>
        <time>2019-06-11T15:45:13Z</time>
      </trkpt>
      <trkpt lat="46.07613" lon="6.83606">
        <ele>935</ele>
        <time>2019-06-11T15:45:27Z</time>
      </trkpt>
      <trkpt lat="46.07614" lon="6.83637">
        <ele>937</ele>
        <time>2019-06-11T15:45:31Z</time>
      </trkpt>
      <trkpt lat="46.0761" lon="6.83815">
        <ele>946</ele>
        <time>2019-06-11T15:45:53Z</time>
      </trkpt>
      <trkpt lat="46.07613" lon="6.83854">
        <ele>949</ele>
        <time>2019-06-11T15:45:58Z</time>
      </trkpt>
      <trkpt lat="46.07641" lon="6.84014">
        <ele>959</ele>
        <time>2019-06-11T15:46:18Z</time>
      </trkpt>
      <trkpt lat="46.0765" lon="6.84041">
        <ele>960</ele>
        <time>2019-06-11T15:46:22Z</time>
      </trkpt>
      <trkpt lat="46.07655" lon="6.8405">
        <ele>961</ele>
        <time>2019-06-11T15:46:23Z</time>
      </trkpt>
      <trkpt lat="46.07686" lon="6.84097">
        <ele>961</ele>
        <time>2019-06-11T15:46:31Z</time>
      </trkpt>
      <trkpt lat="46.07693" lon="6.84102">
        <ele>961</ele>
        <time>2019-06-11T15:46:33Z</time>
      </trkpt>
      <trkpt lat="46.07703" lon="6.84103">
        <ele>961</ele>
        <time>2019-06-11T15:46:34Z</time>
      </trkpt>
      <trkpt lat="46.0772" lon="6.84099">
        <ele>961</ele>
        <time>2019-06-11T15:46:38Z</time>
      </trkpt>
      <trkpt lat="46.07738" lon="6.84084">
        <ele>960</ele>
        <time>2019-06-11T15:46:41Z</time>
      </trkpt>
      <trkpt lat="46.0776" lon="6.8406">
        <ele>962</ele>
        <time>2019-06-11T15:46:46Z</time>
      </trkpt>
      <trkpt lat="46.07775" lon="6.84051">
        <ele>963</ele>
        <time>2019-06-11T15:46:49Z</time>
      </trkpt>
      <trkpt lat="46.07785" lon="6.84048">
        <ele>964</ele>
        <time>2019-06-11T15:46:51Z</time>
      </trkpt>
      <trkpt lat="46.078" lon="6.84051">
        <ele>965</ele>
        <time>2019-06-11T15:46:54Z</time>
      </trkpt>
      <trkpt lat="46.07785" lon="6.84048">
        <ele>964</ele>
        <time>2019-06-11T15:46:56Z</time>
      </trkpt>
      <trkpt lat="46.07775" lon="6.84051">
        <ele>963</ele>
        <time>2019-06-11T15:46:58Z</time>
      </trkpt>
      <trkpt lat="46.0776" lon="6.8406">
        <ele>962</ele>
        <time>2019-06-11T15:47:01Z</time>
      </trkpt>
      <trkpt lat="46.07738" lon="6.84084">
        <ele>960</ele>
        <time>2019-06-11T15:47:06Z</time>
      </trkpt>
      <trkpt lat="46.0772" lon="6.84099">
        <ele>961</ele>
        <time>2019-06-11T15:47:10Z</time>
      </trkpt>
      <trkpt lat="46.07703" lon="6.84103">
        <ele>961</ele>
        <time>2019-06-11T15:47:13Z</time>
      </trkpt>
      <trkpt lat="46.07693" lon="6.84102">
        <ele>961</ele>
        <time>2019-06-11T15:47:14Z</time>
      </trkpt>
      <trkpt lat="46.07683" lon="6.84094">
        <ele>961</ele>
        <time>2019-06-11T15:47:16Z</time>
      </trkpt>
      <trkpt lat="46.07655" lon="6.8405">
        <ele>961</ele>
        <time>2019-06-11T15:47:24Z</time>
      </trkpt>
      <trkpt lat="46.0765" lon="6.84041">
        <ele>960</ele>
        <time>2019-06-11T15:47:25Z</time>
      </trkpt>
      <trkpt lat="46.07641" lon="6.84014">
        <ele>959</ele>
        <time>2019-06-11T15:47:29Z</time>
      </trkpt>
      <trkpt lat="46.07613" lon="6.83854">
        <ele>949</ele>
        <time>2019-06-11T15:47:49Z</time>
      </trkpt>
      <trkpt lat="46.0761" lon="6.83815">
        <ele>946</ele>
        <time>2019-06-11T15:47:54Z</time>
      </trkpt>
      <trkpt lat="46.07614" lon="6.83637">
        <ele>937</ele>
        <time>2019-06-11T15:48:16Z</time>
      </trkpt>
      <trkpt lat="46.07613" lon="6.83606">
        <ele>935</ele>
        <time>2019-06-11T15:48:20Z</time>
      </trkpt>
      <trkpt lat="46.07602" lon="6.83492">
        <ele>930</ele>
        <time>2019-06-11T15:48:34Z</time>
      </trkpt>
      <trkpt lat="46.07594" lon="6.83454">
        <ele>926</ele>
        <time>2019-06-11T15:48:39Z</time>
      </trkpt>
      <trkpt lat="46.0756" lon="6.83365">
        <ele>925</ele>
        <time>2019-06-11T15:48:52Z</time>
      </trkpt>
      <trkpt lat="46.07549" lon="6.8331">
        <ele>925</ele>
        <time>2019-06-11T15:48:59Z</time>
      </trkpt>
      <trkpt lat="46.07536" lon="6.83219">
        <ele>924</ele>
        <time>2019-06-11T15:49:10Z</time>
      </trkpt>
      <trkpt lat="46.07537" lon="6.8318">
        <ele>923</ele>
        <time>2019-06-11T15:49:15Z</time>
      </trkpt>
      <trkpt lat="46.07548" lon="6.83092">
        <ele>921</ele>
        <time>2019-06-11T15:49:26Z</time>
      </trkpt>
      <trkpt lat="46.0755" lon="6.83071">
        <ele>920</ele>
        <time>2019-06-11T15:49:29Z</time>
      </trkpt>
      <trkpt lat="46.07537" lon="6.82931">
        <ele>911</ele>
        <time>2019-06-11T15:49:46Z</time>
      </trkpt>
      <trkpt lat="46.07533" lon="6.82914">
        <ele>910</ele>
        <time>2019-06-11T15:49:48Z</time>
      </trkpt>
      <trkpt lat="46.075" lon="6.82823">
        <ele>903</ele>
        <time>2019-06-11T15:50:01Z</time>
      </trkpt>
      <trkpt lat="46.07448" lon="6.82548">
        <ele>891</ele>
        <time>2019-06-11T15:50:36Z</time>
      </trkpt>
      <trkpt lat="46.07442" lon="6.82523">
        <ele>889</ele>
        <time>2019-06-11T15:50:39Z</time>
      </trkpt>
      <trkpt lat="46.07432" lon="6.82499">
        <ele>889</ele>
        <time>2019-06-11T15:50:43Z</time>
      </trkpt>
      <trkpt lat="46.07424" lon="6.82486">
        <ele>889</ele>
        <time>2019-06-11T15:50:45Z</time>
      </trkpt>
      <trkpt lat="46.07409" lon="6.82473">
        <ele>889</ele>
        <time>2019-06-11T15:50:48Z</time>
      </trkpt>
      <trkpt lat="46.0738" lon="6.82454">
        <ele>888</ele>
        <time>2019-06-11T15:50:54Z</time>
      </trkpt>
      <trkpt lat="46.07371" lon="6.82444">
        <ele>887</ele>
        <time>2019-06-11T15:50:56Z</time>
      </trkpt>
      <trkpt lat="46.07364" lon="6.82431">
        <ele>886</ele>
        <time>2019-06-11T15:50:58Z</time>
      </trkpt>
      <trkpt lat="46.07359" lon="6.82416">
        <ele>884</ele>
        <time>2019-06-11T15:51:00Z</time>
      </trkpt>
      <trkpt lat="46.07356" lon="6.82389">
        <ele>882</ele>
        <time>2019-06-11T15:51:03Z</time>
      </trkpt>
      <trkpt lat="46.07357" lon="6.82266">
        <ele>875</ele>
        <time>2019-06-11T15:51:18Z</time>
      </trkpt>
      <trkpt lat="46.07359" lon="6.82241">
        <ele>874</ele>
        <time>2019-06-11T15:51:22Z</time>
      </trkpt>
      <trkpt lat="46.07372" lon="6.82195">
        <ele>875</ele>
        <time>2019-06-11T15:51:28Z</time>
      </trkpt>
      <trkpt lat="46.07375" lon="6.82174">
        <ele>876</ele>
        <time>2019-06-11T15:51:30Z</time>
      </trkpt>
      <trkpt lat="46.07375" lon="6.8216">
        <ele>876</ele>
        <time>2019-06-11T15:51:32Z</time>
      </trkpt>
      <trkpt lat="46.07372" lon="6.8214">
        <ele>876</ele>
        <time>2019-06-11T15:51:35Z</time>
      </trkpt>
      <trkpt lat="46.07365" lon="6.82117">
        <ele>876</ele>
        <time>2019-06-11T15:51:38Z</time>
      </trkpt>
      <trkpt lat="46.07257" lon="6.81855">
        <ele>867</ele>
        <time>2019-06-11T15:52:15Z</time>
      </trkpt>
      <trkpt lat="46.07224" lon="6.81759">
        <ele>863</ele>
        <time>2019-06-11T15:52:29Z</time>
      </trkpt>
      <trkpt lat="46.07186" lon="6.81616">
        <ele>862</ele>
        <time>2019-06-11T15:52:47Z</time>
      </trkpt>
      <trkpt lat="46.07174" lon="6.81579">
        <ele>860</ele>
        <time>2019-06-11T15:52:52Z</time>
      </trkpt>
      <trkpt lat="46.07132" lon="6.81475">
        <ele>855</ele>
        <time>2019-06-11T15:53:07Z</time>
      </trkpt>
      <trkpt lat="46.0706" lon="6.8126">
        <ele>851</ele>
        <time>2019-06-11T15:53:37Z</time>
      </trkpt>
      <trkpt lat="46.07054" lon="6.81232">
        <ele>851</ele>
        <time>2019-06-11T15:53:40Z</time>
      </trkpt>
      <trkpt lat="46.07038" lon="6.8104">
        <ele>848</ele>
        <time>2019-06-11T15:54:04Z</time>
      </trkpt>
      <trkpt lat="46.07028" lon="6.80948">
        <ele>848</ele>
        <time>2019-06-11T15:54:16Z</time>
      </trkpt>
      <trkpt lat="46.07018" lon="6.80884">
        <ele>848</ele>
        <time>2019-06-11T15:54:24Z</time>
      </trkpt>
      <trkpt lat="46.07004" lon="6.80834">
        <ele>845</ele>
        <time>2019-06-11T15:54:31Z</time>
      </trkpt>
      <trkpt lat="46.06994" lon="6.80808">
        <ele>850</ele>
        <time>2019-06-11T15:54:34Z</time>
      </trkpt>
      <trkpt lat="46.06988" lon="6.80795">
        <ele>853</ele>
        <time>2019-06-11T15:54:36Z</time>
      </trkpt>
      <trkpt lat="46.06954" lon="6.80742">
        <ele>854</ele>
        <time>2019-06-11T15:54:45Z</time>
      </trkpt>
      <trkpt lat="46.06916" lon="6.80662">
        <ele>843</ele>
        <time>2019-06-11T15:54:57Z</time>
      </trkpt>
      <trkpt lat="46.06911" lon="6.80654">
        <ele>844</ele>
        <time>2019-06-11T15:54:58Z</time>
      </trkpt>
      <trkpt lat="46.06825" lon="6.80571">
        <ele>835</ele>
        <time>2019-06-11T15:55:17Z</time>
      </trkpt>
      <trkpt lat="46.06816" lon="6.80557">
        <ele>836</ele>
        <time>2019-06-11T15:55:19Z</time>
      </trkpt>
      <trkpt lat="46.06806" lon="6.80538">
        <ele>837</ele>
        <time>2019-06-11T15:55:22Z</time>
      </trkpt>
      <trkpt lat="46.06764" lon="6.80384">
        <ele>837</ele>
        <time>2019-06-11T15:55:42Z</time>
      </trkpt>
      <trkpt lat="46.06721" lon="6.80249">
        <ele>837</ele>
        <time>2019-06-11T15:56:01Z</time>
      </trkpt>
      <trkpt lat="46.06705" lon="6.80213">
        <ele>838</ele>
        <time>2019-06-11T15:56:06Z</time>
      </trkpt>
      <trkpt lat="46.06674" lon="6.80153">
        <ele>836</ele>
        <time>2019-06-11T15:56:15Z</time>
      </trkpt>
      <trkpt lat="46.0663" lon="6.80085">
        <ele>833</ele>
        <time>2019-06-11T15:56:27Z</time>
      </trkpt>
      <trkpt lat="46.06608" lon="6.80045">
        <ele>832</ele>
        <time>2019-06-11T15:56:33Z</time>
      </trkpt>
      <trkpt lat="46.06583" lon="6.79982">
        <ele>828</ele>
        <time>2019-06-11T15:56:42Z</time>
      </trkpt>
      <trkpt lat="46.06563" lon="6.79916">
        <ele>826</ele>
        <time>2019-06-11T15:56:51Z</time>
      </trkpt>
      <trkpt lat="46.06548" lon="6.79859">
        <ele>828</ele>
        <time>2019-06-11T15:56:58Z</time>
      </trkpt>
      <trkpt lat="46.06532" lon="6.79809">
        <ele>829</ele>
        <time>2019-06-11T15:57:05Z</time>
      </trkpt>
      <trkpt lat="46.06525" lon="6.79791">
        <ele>830</ele>
        <time>2019-06-11T15:57:08Z</time>
      </trkpt>
      <trkpt lat="46.06507" lon="6.79766">
        <ele>829</ele>
        <time>2019-06-11T15:57:12Z</time>
      </trkpt>
      <trkpt lat="46.0646" lon="6.79722">
        <ele>829</ele>
        <time>2019-06-11T15:57:22Z</time>
      </trkpt>
      <trkpt lat="46.06448" lon="6.79707">
        <ele>829</ele>
        <time>2019-06-11T15:57:25Z</time>
      </trkpt>
      <trkpt lat="46.06439" lon="6.79684">
        <ele>828</ele>
        <time>2019-06-11T15:57:28Z</time>
      </trkpt>
      <trkpt lat="46.06437" lon="6.79666">
        <ele>828</ele>
        <time>2019-06-11T15:57:31Z</time>
      </trkpt>
      <trkpt lat="46.06435" lon="6.79592">
        <ele>834</ele>
        <time>2019-06-11T15:57:40Z</time>
      </trkpt>
      <trkpt lat="46.06433" lon="6.79563">
        <ele>835</ele>
        <time>2019-06-11T15:57:43Z</time>
      </trkpt>
      <trkpt lat="46.06426" lon="6.79525">
        <ele>837</ele>
        <time>2019-06-11T15:57:48Z</time>
      </trkpt>
      <trkpt lat="46.06416" lon="6.79495">
        <ele>838</ele>
        <time>2019-06-11T15:57:52Z</time>
      </trkpt>
      <trkpt lat="46.06407" lon="6.79482">
        <ele>841</ele>
        <time>2019-06-11T15:57:55Z</time>
      </trkpt>
      <trkpt lat="46.06395" lon="6.79472">
        <ele>841</ele>
        <time>2019-06-11T15:57:57Z</time>
      </trkpt>
      <trkpt lat="46.06327" lon="6.79431">
        <ele>832</ele>
        <time>2019-06-11T15:58:10Z</time>
      </trkpt>
      <trkpt lat="46.06278" lon="6.79379">
        <ele>831</ele>
        <time>2019-06-11T15:58:21Z</time>
      </trkpt>
      <trkpt lat="46.06255" lon="6.79365">
        <ele>829</ele>
        <time>2019-06-11T15:58:25Z</time>
      </trkpt>
      <trkpt lat="46.06237" lon="6.7936">
        <ele>827</ele>
        <time>2019-06-11T15:58:29Z</time>
      </trkpt>
      <trkpt lat="46.06224" lon="6.79359">
        <ele>825</ele>
        <time>2019-06-11T15:58:31Z</time>
      </trkpt>
      <trkpt lat="46.06179" lon="6.79365">
        <ele>818</ele>
        <time>2019-06-11T15:58:39Z</time>
      </trkpt>
      <trkpt lat="46.06167" lon="6.79363">
        <ele>817</ele>
        <time>2019-06-11T15:58:41Z</time>
      </trkpt>
      <trkpt lat="46.06151" lon="6.79354">
        <ele>817</ele>
        <time>2019-06-11T15:58:44Z</time>
      </trkpt>
      <trkpt lat="46.06103" lon="6.79315">
        <ele>818</ele>
        <time>2019-06-11T15:58:54Z</time>
      </trkpt>
      <trkpt lat="46.05968" lon="6.79228">
        <ele>820</ele>
        <time>2019-06-11T15:59:20Z</time>
      </trkpt>
      <trkpt lat="46.05946" lon="6.79211">
        <ele>821</ele>
        <time>2019-06-11T15:59:25Z</time>
      </trkpt>
      <trkpt lat="46.05933" lon="6.79194">
        <ele>820</ele>
        <time>2019-06-11T15:59:28Z</time>
      </trkpt>
      <trkpt lat="46.0592" lon="6.79162">
        <ele>817</ele>
        <time>2019-06-11T15:59:32Z</time>
      </trkpt>
      <trkpt lat="46.05914" lon="6.79135">
        <ele>815</ele>
        <time>2019-06-11T15:59:36Z</time>
      </trkpt>
      <trkpt lat="46.05912" lon="6.79056">
        <ele>810</ele>
        <time>2019-06-11T15:59:46Z</time>
      </trkpt>
      <trkpt lat="46.05909" lon="6.7904">
        <ele>811</ele>
        <time>2019-06-11T15:59:48Z</time>
      </trkpt>
      <trkpt lat="46.05904" lon="6.79025">
        <ele>811</ele>
        <time>2019-06-11T15:59:50Z</time>
      </trkpt>
      <trkpt lat="46.05885" lon="6.78991">
        <ele>811</ele>
        <time>2019-06-11T15:59:55Z</time>
      </trkpt>
      <trkpt lat="46.05878" lon="6.78972">
        <ele>810</ele>
        <time>2019-06-11T15:59:58Z</time>
      </trkpt>
      <trkpt lat="46.0586" lon="6.78902">
        <ele>806</ele>
        <time>2019-06-11T16:00:07Z</time>
      </trkpt>
      <trkpt lat="46.05826" lon="6.78849">
        <ele>805</ele>
        <time>2019-06-11T16:00:16Z</time>
      </trkpt>
      <trkpt lat="46.05814" lon="6.78808">
        <ele>807</ele>
        <time>2019-06-11T16:00:22Z</time>
      </trkpt>
      <trkpt lat="46.05801" lon="6.78712">
        <ele>800</ele>
        <time>2019-06-11T16:00:34Z</time>
      </trkpt>
      <trkpt lat="46.05801" lon="6.78688">
        <ele>797</ele>
        <time>2019-06-11T16:00:37Z</time>
      </trkpt>
      <trkpt lat="46.05805" lon="6.78669">
        <ele>795</ele>
        <time>2019-06-11T16:00:39Z</time>
      </trkpt>
      <trkpt lat="46.05812" lon="6.78649">
        <ele>792</ele>
        <time>2019-06-11T16:00:42Z</time>
      </trkpt>
      <trkpt lat="46.05841" lon="6.78589">
        <ele>787</ele>
        <time>2019-06-11T16:00:51Z</time>
      </trkpt>
      <trkpt lat="46.05852" lon="6.78536">
        <ele>785</ele>
        <time>2019-06-11T16:00:58Z</time>
      </trkpt>
      <trkpt lat="46.05852" lon="6.78511">
        <ele>783</ele>
        <time>2019-06-11T16:01:01Z</time>
      </trkpt>
      <trkpt lat="46.05848" lon="6.78464">
        <ele>782</ele>
        <time>2019-06-11T16:01:07Z</time>
      </trkpt>
      <trkpt lat="46.05812" lon="6.78283">
        <ele>791</ele>
        <time>2019-06-11T16:01:30Z</time>
      </trkpt>
      <trkpt lat="46.05806" lon="6.78259">
        <ele>794</ele>
        <time>2019-06-11T16:01:33Z</time>
      </trkpt>
      <trkpt lat="46.05794" lon="6.78232">
        <ele>795</ele>
        <time>2019-06-11T16:01:37Z</time>
      </trkpt>
      <trkpt lat="46.0576" lon="6.7818">
        <ele>787</ele>
        <time>2019-06-11T16:01:46Z</time>
      </trkpt>
      <trkpt lat="46.05745" lon="6.78152">
        <ele>785</ele>
        <time>2019-06-11T16:01:50Z</time>
      </trkpt>
      <trkpt lat="46.05723" lon="6.78103">
        <ele>789</ele>
        <time>2019-06-11T16:01:57Z</time>
      </trkpt>
      <trkpt lat="46.05661" lon="6.77945">
        <ele>783</ele>
        <time>2019-06-11T16:02:20Z</time>
      </trkpt>
      <trkpt lat="46.05644" lon="6.77855">
        <ele>783</ele>
        <time>2019-06-11T16:02:31Z</time>
      </trkpt>
      <trkpt lat="46.05636" lon="6.77829">
        <ele>782</ele>
        <time>2019-06-11T16:02:35Z</time>
      </trkpt>
      <trkpt lat="46.05614" lon="6.7778">
        <ele>777</ele>
        <time>2019-06-11T16:02:42Z</time>
      </trkpt>
      <trkpt lat="46.05605" lon="6.77763">
        <ele>773</ele>
        <time>2019-06-11T16:02:45Z</time>
      </trkpt>
      <trkpt lat="46.05553" lon="6.77694">
        <ele>770</ele>
        <time>2019-06-11T16:02:57Z</time>
      </trkpt>
      <trkpt lat="46.05546" lon="6.77677">
        <ele>770</ele>
        <time>2019-06-11T16:03:00Z</time>
      </trkpt>
      <trkpt lat="46.05533" lon="6.77609">
        <ele>769</ele>
        <time>2019-06-11T16:03:08Z</time>
      </trkpt>
      <trkpt lat="46.05528" lon="6.77564">
        <ele>769</ele>
        <time>2019-06-11T16:03:14Z</time>
      </trkpt>
      <trkpt lat="46.05494" lon="6.77367">
        <ele>764</ele>
        <time>2019-06-11T16:03:39Z</time>
      </trkpt>
      <trkpt lat="46.05486" lon="6.77294">
        <ele>765</ele>
        <time>2019-06-11T16:03:48Z</time>
      </trkpt>
      <trkpt lat="46.05485" lon="6.7726">
        <ele>765</ele>
        <time>2019-06-11T16:03:52Z</time>
      </trkpt>
      <trkpt lat="46.05489" lon="6.77217">
        <ele>766</ele>
        <time>2019-06-11T16:03:58Z</time>
      </trkpt>
      <trkpt lat="46.05509" lon="6.77096">
        <ele>775</ele>
        <time>2019-06-11T16:04:13Z</time>
      </trkpt>
      <trkpt lat="46.05519" lon="6.76998">
        <ele>783</ele>
        <time>2019-06-11T16:04:25Z</time>
      </trkpt>
      <trkpt lat="46.0552" lon="6.7698">
        <ele>783</ele>
        <time>2019-06-11T16:04:28Z</time>
      </trkpt>
      <trkpt lat="46.05518" lon="6.76946">
        <ele>779</ele>
        <time>2019-06-11T16:04:32Z</time>
      </trkpt>
      <trkpt lat="46.05507" lon="6.76846">
        <ele>769</ele>
        <time>2019-06-11T16:04:44Z</time>
      </trkpt>
      <trkpt lat="46.05506" lon="6.7681">
        <ele>770</ele>
        <time>2019-06-11T16:04:49Z</time>
      </trkpt>
      <trkpt lat="46.05506" lon="6.76704">
        <ele>773</ele>
        <time>2019-06-11T16:05:02Z</time>
      </trkpt>
      <trkpt lat="46.05513" lon="6.76651">
        <ele>777</ele>
        <time>2019-06-11T16:05:08Z</time>
      </trkpt>
      <trkpt lat="46.05542" lon="6.76519">
        <ele>778</ele>
        <time>2019-06-11T16:05:26Z</time>
      </trkpt>
      <trkpt lat="46.05544" lon="6.76475">
        <ele>776</ele>
        <time>2019-06-11T16:05:31Z</time>
      </trkpt>
      <trkpt lat="46.05537" lon="6.76419">
        <ele>774</ele>
        <time>2019-06-11T16:05:38Z</time>
      </trkpt>
      <trkpt lat="46.05535" lon="6.76387">
        <ele>771</ele>
        <time>2019-06-11T16:05:42Z</time>
      </trkpt>
      <trkpt lat="46.05536" lon="6.76368">
        <ele>770</ele>
        <time>2019-06-11T16:05:44Z</time>
      </trkpt>
      <trkpt lat="46.05542" lon="6.76334">
        <ele>770</ele>
        <time>2019-06-11T16:05:49Z</time>
      </trkpt>
      <trkpt lat="46.05549" lon="6.76308">
        <ele>769</ele>
        <time>2019-06-11T16:05:52Z</time>
      </trkpt>
      <trkpt lat="46.05565" lon="6.76276">
        <ele>770</ele>
        <time>2019-06-11T16:05:57Z</time>
      </trkpt>
      <trkpt lat="46.05602" lon="6.76228">
        <ele>776</ele>
        <time>2019-06-11T16:06:06Z</time>
      </trkpt>
      <trkpt lat="46.05605" lon="6.76222">
        <ele>776</ele>
        <time>2019-06-11T16:06:07Z</time>
      </trkpt>
      <trkpt lat="46.05612" lon="6.76203">
        <ele>777</ele>
        <time>2019-06-11T16:06:09Z</time>
      </trkpt>
      <trkpt lat="46.05623" lon="6.76146">
        <ele>779</ele>
        <time>2019-06-11T16:06:17Z</time>
      </trkpt>
      <trkpt lat="46.05626" lon="6.76125">
        <ele>782</ele>
        <time>2019-06-11T16:06:19Z</time>
      </trkpt>
      <trkpt lat="46.05626" lon="6.76102">
        <ele>783</ele>
        <time>2019-06-11T16:06:22Z</time>
      </trkpt>
      <trkpt lat="46.05623" lon="6.76082">
        <ele>783</ele>
        <time>2019-06-11T16:06:25Z</time>
      </trkpt>
      <trkpt lat="46.05619" lon="6.76068">
        <ele>782</ele>
        <time>2019-06-11T16:06:27Z</time>
      </trkpt>
      <trkpt lat="46.05608" lon="6.76048">
        <ele>778</ele>
        <time>2019-06-11T16:06:30Z</time>
      </trkpt>
      <trkpt lat="46.05565" lon="6.7599">
        <ele>776</ele>
        <time>2019-06-11T16:06:40Z</time>
      </trkpt>
      <trkpt lat="46.05559" lon="6.75979">
        <ele>778</ele>
        <time>2019-06-11T16:06:42Z</time>
      </trkpt>
      <trkpt lat="46.05551" lon="6.75953">
        <ele>782</ele>
        <time>2019-06-11T16:06:45Z</time>
      </trkpt>
      <trkpt lat="46.05551" lon="6.75928">
        <ele>785</ele>
        <time>2019-06-11T16:06:49Z</time>
      </trkpt>
      <trkpt lat="46.05557" lon="6.75904">
        <ele>787</ele>
        <time>2019-06-11T16:06:52Z</time>
      </trkpt>
      <trkpt lat="46.056" lon="6.75809">
        <ele>792</ele>
        <time>2019-06-11T16:07:06Z</time>
      </trkpt>
      <trkpt lat="46.05637" lon="6.75736">
        <ele>791</ele>
        <time>2019-06-11T16:07:17Z</time>
      </trkpt>
      <trkpt lat="46.05651" lon="6.75713">
        <ele>786</ele>
        <time>2019-06-11T16:07:21Z</time>
      </trkpt>
      <trkpt lat="46.05671" lon="6.75692">
        <ele>783</ele>
        <time>2019-06-11T16:07:25Z</time>
      </trkpt>
      <trkpt lat="46.05738" lon="6.75632">
        <ele>783</ele>
        <time>2019-06-11T16:07:39Z</time>
      </trkpt>
      <trkpt lat="46.05818" lon="6.75567">
        <ele>784</ele>
        <time>2019-06-11T16:07:55Z</time>
      </trkpt>
      <trkpt lat="46.05832" lon="6.75546">
        <ele>782</ele>
        <time>2019-06-11T16:07:59Z</time>
      </trkpt>
      <trkpt lat="46.05839" lon="6.75531">
        <ele>780</ele>
        <time>2019-06-11T16:08:01Z</time>
      </trkpt>
      <trkpt lat="46.05878" lon="6.75426">
        <ele>772</ele>
        <time>2019-06-11T16:08:16Z</time>
      </trkpt>
      <trkpt lat="46.05886" lon="6.75372">
        <ele>768</ele>
        <time>2019-06-11T16:08:23Z</time>
      </trkpt>
      <trkpt lat="46.05887" lon="6.75336">
        <ele>763</ele>
        <time>2019-06-11T16:08:27Z</time>
      </trkpt>
      <trkpt lat="46.05884" lon="6.75313">
        <ele>763</ele>
        <time>2019-06-11T16:08:30Z</time>
      </trkpt>
      <trkpt lat="46.05861" lon="6.7518">
        <ele>762</ele>
        <time>2019-06-11T16:08:47Z</time>
      </trkpt>
      <trkpt lat="46.05851" lon="6.75144">
        <ele>761</ele>
        <time>2019-06-11T16:08:52Z</time>
      </trkpt>
      <trkpt lat="46.05845" lon="6.75131">
        <ele>760</ele>
        <time>2019-06-11T16:08:54Z</time>
      </trkpt>
      <trkpt lat="46.05834" lon="6.75116">
        <ele>757</ele>
        <time>2019-06-11T16:08:56Z</time>
      </trkpt>
      <trkpt lat="46.05798" lon="6.75087">
        <ele>753</ele>
        <time>2019-06-11T16:09:04Z</time>
      </trkpt>
      <trkpt lat="46.05783" lon="6.75071">
        <ele>752</ele>
        <time>2019-06-11T16:09:07Z</time>
      </trkpt>
      <trkpt lat="46.05764" lon="6.75038">
        <ele>750</ele>
        <time>2019-06-11T16:09:12Z</time>
      </trkpt>
      <trkpt lat="46.05749" lon="6.75003">
        <ele>749</ele>
        <time>2019-06-11T16:09:17Z</time>
      </trkpt>
      <trkpt lat="46.05744" lon="6.74981">
        <ele>748</ele>
        <time>2019-06-11T16:09:20Z</time>
      </trkpt>
      <trkpt lat="46.0574" lon="6.74914">
        <ele>749</ele>
        <time>2019-06-11T16:09:29Z</time>
      </trkpt>
      <trkpt lat="46.05741" lon="6.749">
        <ele>748</ele>
        <time>2019-06-11T16:09:30Z</time>
      </trkpt>
      <trkpt lat="46.05744" lon="6.74888">
        <ele>747</ele>
        <time>2019-06-11T16:09:32Z</time>
      </trkpt>
      <trkpt lat="46.05757" lon="6.74866">
        <ele>746</ele>
        <time>2019-06-11T16:09:36Z</time>
      </trkpt>
      <trkpt lat="46.05802" lon="6.74806">
        <ele>753</ele>
        <time>2019-06-11T16:09:46Z</time>
      </trkpt>
      <trkpt lat="46.05811" lon="6.74792">
        <ele>753</ele>
        <time>2019-06-11T16:09:49Z</time>
      </trkpt>
      <trkpt lat="46.05847" lon="6.74722">
        <ele>746</ele>
        <time>2019-06-11T16:10:00Z</time>
      </trkpt>
      <trkpt lat="46.05928" lon="6.7458">
        <ele>729</ele>
        <time>2019-06-11T16:10:22Z</time>
      </trkpt>
      <trkpt lat="46.05959" lon="6.74521">
        <ele>728</ele>
        <time>2019-06-11T16:10:31Z</time>
      </trkpt>
      <trkpt lat="46.05974" lon="6.74496">
        <ele>728</ele>
        <time>2019-06-11T16:10:35Z</time>
      </trkpt>
      <trkpt lat="46.05987" lon="6.74481">
        <ele>728</ele>
        <time>2019-06-11T16:10:38Z</time>
      </trkpt>
      <trkpt lat="46.05997" lon="6.74471">
        <ele>728</ele>
        <time>2019-06-11T16:10:41Z</time>
      </trkpt>
      <trkpt lat="46.06008" lon="6.74465">
        <ele>727</ele>
        <time>2019-06-11T16:10:43Z</time>
      </trkpt>
      <trkpt lat="46.06023" lon="6.74459">
        <ele>727</ele>
        <time>2019-06-11T16:10:45Z</time>
      </trkpt>
      <trkpt lat="46.06042" lon="6.74454">
        <ele>727</ele>
        <time>2019-06-11T16:10:49Z</time>
      </trkpt>
      <trkpt lat="46.06125" lon="6.74448">
        <ele>725</ele>
        <time>2019-06-11T16:11:04Z</time>
      </trkpt>
      <trkpt lat="46.06248" lon="6.74442">
        <ele>725</ele>
        <time>2019-06-11T16:11:26Z</time>
      </trkpt>
      <trkpt lat="46.06297" lon="6.74438">
        <ele>725</ele>
        <time>2019-06-11T16:11:34Z</time>
      </trkpt>
      <trkpt lat="46.0634" lon="6.74431">
        <ele>724</ele>
        <time>2019-06-11T16:11:42Z</time>
      </trkpt>
      <trkpt lat="46.06342" lon="6.7445">
        <ele>724</ele>
        <time>2019-06-11T16:11:44Z</time>
      </trkpt>
      <trkpt lat="46.06344" lon="6.74455">
        <ele>724</ele>
        <time>2019-06-11T16:11:45Z</time>
      </trkpt>
      <trkpt lat="46.06351" lon="6.74461">
        <ele>724</ele>
        <time>2019-06-11T16:11:47Z</time>
      </trkpt>
      <trkpt lat="46.06756" lon="6.74629">
        <ele>716</ele>
        <time>2019-06-11T16:13:02Z</time>
      </trkpt>
      <trkpt lat="46.06877" lon="6.74683">
        <ele>719</ele>
        <time>2019-06-11T16:13:24Z</time>
      </trkpt>
      <trkpt lat="46.06937" lon="6.74708">
        <ele>719</ele>
        <time>2019-06-11T16:13:35Z</time>
      </trkpt>
      <trkpt lat="46.0697" lon="6.74742">
        <ele>718</ele>
        <time>2019-06-11T16:13:42Z</time>
      </trkpt>
      <trkpt lat="46.06983" lon="6.74749">
        <ele>718</ele>
        <time>2019-06-11T16:13:45Z</time>
      </trkpt>
      <trkpt lat="46.07005" lon="6.74755">
        <ele>718</ele>
        <time>2019-06-11T16:13:49Z</time>
      </trkpt>
      <trkpt lat="46.07023" lon="6.74752">
        <ele>719</ele>
        <time>2019-06-11T16:13:52Z</time>
      </trkpt>
      <trkpt lat="46.07048" lon="6.7474">
        <ele>720</ele>
        <time>2019-06-11T16:13:57Z</time>
      </trkpt>
      <trkpt lat="46.07065" lon="6.74735">
        <ele>721</ele>
        <time>2019-06-11T16:14:00Z</time>
      </trkpt>
      <trkpt lat="46.07108" lon="6.74736">
        <ele>721</ele>
        <time>2019-06-11T16:14:07Z</time>
      </trkpt>
      <trkpt lat="46.07118" lon="6.74733">
        <ele>721</ele>
        <time>2019-06-11T16:14:09Z</time>
      </trkpt>
      <trkpt lat="46.0713" lon="6.7472">
        <ele>720</ele>
        <time>2019-06-11T16:14:12Z</time>
      </trkpt>
      <trkpt lat="46.07155" lon="6.74672">
        <ele>717</ele>
        <time>2019-06-11T16:14:19Z</time>
      </trkpt>
      <trkpt lat="46.07177" lon="6.74642">
        <ele>715</ele>
        <time>2019-06-11T16:14:25Z</time>
      </trkpt>
      <trkpt lat="46.0721" lon="6.74616">
        <ele>716</ele>
        <time>2019-06-11T16:14:31Z</time>
      </trkpt>
      <trkpt lat="46.07327" lon="6.74537">
        <ele>717</ele>
        <time>2019-06-11T16:14:54Z</time>
      </trkpt>
      <trkpt lat="46.07356" lon="6.74513">
        <ele>719</ele>
        <time>2019-06-11T16:15:00Z</time>
      </trkpt>
      <trkpt lat="46.07373" lon="6.74497">
        <ele>720</ele>
        <time>2019-06-11T16:15:04Z</time>
      </trkpt>
      <trkpt lat="46.07405" lon="6.74453">
        <ele>718</ele>
        <time>2019-06-11T16:15:12Z</time>
      </trkpt>
      <trkpt lat="46.07486" lon="6.74305">
        <ele>714</ele>
        <time>2019-06-11T16:15:35Z</time>
      </trkpt>
      <trkpt lat="46.0751" lon="6.74277">
        <ele>714</ele>
        <time>2019-06-11T16:15:41Z</time>
      </trkpt>
      <trkpt lat="46.07525" lon="6.74254">
        <ele>714</ele>
        <time>2019-06-11T16:15:45Z</time>
      </trkpt>
      <trkpt lat="46.07533" lon="6.74231">
        <ele>714</ele>
        <time>2019-06-11T16:15:48Z</time>
      </trkpt>
      <trkpt lat="46.07534" lon="6.74179">
        <ele>713</ele>
        <time>2019-06-11T16:15:54Z</time>
      </trkpt>
      <trkpt lat="46.07548" lon="6.74131">
        <ele>713</ele>
        <time>2019-06-11T16:16:01Z</time>
      </trkpt>
      <trkpt lat="46.07558" lon="6.74055">
        <ele>712</ele>
        <time>2019-06-11T16:16:10Z</time>
      </trkpt>
      <trkpt lat="46.07563" lon="6.74034">
        <ele>712</ele>
        <time>2019-06-11T16:16:13Z</time>
      </trkpt>
      <trkpt lat="46.07604" lon="6.73958">
        <ele>711</ele>
        <time>2019-06-11T16:16:25Z</time>
      </trkpt>
      <trkpt lat="46.07612" lon="6.73933">
        <ele>711</ele>
        <time>2019-06-11T16:16:28Z</time>
      </trkpt>
      <trkpt lat="46.07643" lon="6.73807">
        <ele>710</ele>
        <time>2019-06-11T16:16:45Z</time>
      </trkpt>
      <trkpt lat="46.07644" lon="6.73795">
        <ele>710</ele>
        <time>2019-06-11T16:16:46Z</time>
      </trkpt>
      <trkpt lat="46.07639" lon="6.73684">
        <ele>708</ele>
        <time>2019-06-11T16:17:00Z</time>
      </trkpt>
      <trkpt lat="46.07641" lon="6.73658">
        <ele>708</ele>
        <time>2019-06-11T16:17:03Z</time>
      </trkpt>
      <trkpt lat="46.07646" lon="6.73635">
        <ele>708</ele>
        <time>2019-06-11T16:17:06Z</time>
      </trkpt>
      <trkpt lat="46.07658" lon="6.73603">
        <ele>708</ele>
        <time>2019-06-11T16:17:11Z</time>
      </trkpt>
      <trkpt lat="46.077" lon="6.73523">
        <ele>706</ele>
        <time>2019-06-11T16:17:23Z</time>
      </trkpt>
      <trkpt lat="46.07707" lon="6.73519">
        <ele>705</ele>
        <time>2019-06-11T16:17:24Z</time>
      </trkpt>
      <trkpt lat="46.07718" lon="6.7352">
        <ele>705</ele>
        <time>2019-06-11T16:17:26Z</time>
      </trkpt>
      <trkpt lat="46.07725" lon="6.73515">
        <ele>705</ele>
        <time>2019-06-11T16:17:28Z</time>
      </trkpt>
      <trkpt lat="46.07729" lon="6.73501">
        <ele>705</ele>
        <time>2019-06-11T16:17:29Z</time>
      </trkpt>
      <trkpt lat="46.07731" lon="6.73488">
        <ele>705</ele>
        <time>2019-06-11T16:17:31Z</time>
      </trkpt>
      <trkpt lat="46.07731" lon="6.73475">
        <ele>705</ele>
        <time>2019-06-11T16:17:33Z</time>
      </trkpt>
      <trkpt lat="46.0777" lon="6.7344">
        <ele>706</ele>
        <time>2019-06-11T16:17:41Z</time>
      </trkpt>
      <trkpt lat="46.08063" lon="6.73149">
        <ele>714</ele>
        <time>2019-06-11T16:18:44Z</time>
      </trkpt>
      <trkpt lat="46.08062" lon="6.73142">
        <ele>714</ele>
        <time>2019-06-11T16:18:45Z</time>
      </trkpt>
      <trkpt lat="46.08051" lon="6.73113">
        <ele>714</ele>
        <time>2019-06-11T16:18:49Z</time>
      </trkpt>
      <trkpt lat="46.08027" lon="6.73078">
        <ele>713</ele>
        <time>2019-06-11T16:18:55Z</time>
      </trkpt>
      <trkpt lat="46.08016" lon="6.73054">
        <ele>712</ele>
        <time>2019-06-11T16:18:59Z</time>
      </trkpt>
      <trkpt lat="46.08005" lon="6.73013">
        <ele>712</ele>
        <time>2019-06-11T16:19:04Z</time>
      </trkpt>
      <trkpt lat="46.07986" lon="6.72915">
        <ele>711</ele>
        <time>2019-06-11T16:19:17Z</time>
      </trkpt>
      <trkpt lat="46.07985" lon="6.729">
        <ele>711</ele>
        <time>2019-06-11T16:19:19Z</time>
      </trkpt>
      <trkpt lat="46.07986" lon="6.72874">
        <ele>711</ele>
        <time>2019-06-11T16:19:22Z</time>
      </trkpt>
      <trkpt lat="46.07993" lon="6.7285">
        <ele>710</ele>
        <time>2019-06-11T16:19:25Z</time>
      </trkpt>
      <trkpt lat="46.08035" lon="6.72754">
        <ele>708</ele>
        <time>2019-06-11T16:19:39Z</time>
      </trkpt>
      <trkpt lat="46.08067" lon="6.72724">
        <ele>706</ele>
        <time>2019-06-11T16:19:46Z</time>
      </trkpt>
      <trkpt lat="46.0807" lon="6.72712">
        <ele>706</ele>
        <time>2019-06-11T16:19:47Z</time>
      </trkpt>
      <trkpt lat="46.08069" lon="6.72705">
        <ele>706</ele>
        <time>2019-06-11T16:19:48Z</time>
      </trkpt>
      <trkpt lat="46.08062" lon="6.72696">
        <ele>705</ele>
        <time>2019-06-11T16:19:50Z</time>
      </trkpt>
      <trkpt lat="46.08053" lon="6.72697">
        <ele>705</ele>
        <time>2019-06-11T16:19:52Z</time>
      </trkpt>
      <trkpt lat="46.08046" lon="6.72683">
        <ele>705</ele>
        <time>2019-06-11T16:19:54Z</time>
      </trkpt>
      <trkpt lat="46.08031" lon="6.72661">
        <ele>704</ele>
        <time>2019-06-11T16:19:58Z</time>
      </trkpt>
      <trkpt lat="46.08016" lon="6.72647">
        <ele>704</ele>
        <time>2019-06-11T16:20:01Z</time>
      </trkpt>
      <trkpt lat="46.07907" lon="6.72566">
        <ele>703</ele>
        <time>2019-06-11T16:20:23Z</time>
      </trkpt>
      <trkpt lat="46.0788" lon="6.72552">
        <ele>703</ele>
        <time>2019-06-11T16:20:28Z</time>
      </trkpt>
      <trkpt lat="46.07863" lon="6.72539">
        <ele>703</ele>
        <time>2019-06-11T16:20:31Z</time>
      </trkpt>
      <trkpt lat="46.07831" lon="6.72621">
        <ele>705</ele>
        <time>2019-06-11T16:20:43Z</time>
      </trkpt>
    </trkseg>
  </trk>
</gpx>